[[{"header":{"parameterUnit":"m.s-1","parameterCategory":1,"la1":30.6,"la2":28.766,"lo1":-90.7593,"lo2":-88.6598,"dy":0.0162,"dx":0.0183,"nx":116,"ny":114,"refTime":"2023-11-21T06:00:00:Z","depth":0,"parameterNumber":2,"parameterNumberName":"U-component_of_WINDS"},"data":[0.0,0.0,0.0,0.0,0.0,0.0,0.0,0.0,0.0,0.0,0.0,0.0,0.0,0.0,0.0,0.0,0.0,0.0,0.0,0.0,0.0,0.0,0.0,0.0,0.0,0.0,0.0,0.0,0.0,0.0,0.0,0.0,0.0,0.0,0.0,0.0,0.0,0.0,0.0,0.0,0.0,0.0,0.0,0.0,0.0,0.0,0.0,0.0,0.0,0.0,0.0,0.0,0.0,0.0,0.0,0.0,0.0,0.0,0.0,0.0,0.0,0.0,0.0,0.0,0.0,0.0,0.0,0.0,0.0,0.0,0.0,0.0,0.0,0.0,0.0,0.0,0.0,0.0,0.0,0.0,0.0,0.0,0.0,0.0,0.0,0.0,0.0,0.0,0.0,0.0,0.0,0.0,0.0,0.0,0.0,0.0,0.0,0.0,0.0,0.0,0.0,0.0,0.0,0.0,0.0,0.0,0.0,0.0,0.0,0.0,0.0,0.0,0.0,0.0,0.0,0.0,0.0,0.0,0.0,0.0,0.0,0.0,0.0,0.0,0.0,0.0,0.0,0.0,0.0,0.0,0.0,0.0,0.0,0.0,0.0,0.0,0.0,0.0,0.0,0.0,0.0,0.0,0.0,0.0,0.0,0.0,0.0,0.0,0.0,0.0,0.0,0.0,0.0,0.0,0.0,0.0,0.0,0.0,0.0,0.0,0.0,0.0,0.0,0.0,0.0,0.0,0.0,0.0,0.0,0.0,0.0,0.0,0.0,0.0,0.0,0.0,0.0,0.0,0.0,0.0,0.0,0.0,0.0,0.0,0.0,0.0,0.0,0.0,0.0,0.0,0.0,0.0,0.0,0.0,0.0,0.0,0.0,0.0,0.0,0.0,0.0,0.0,0.0,0.0,0.0,0.0,0.0,0.0,0.0,0.0,0.0,0.0,0.0,0.0,0.0,0.0,0.0,0.0,0.0,0.0,0.0,0.0,0.0,0.0,0.0,0.0,0.0,0.0,0.0,0.0,0.0,0.0,0.0,0.0,0.0,0.0,0.0,0.0,0.0,0.0,0.0,0.0,0.0,0.0,0.0,0.0,0.0,0.0,0.0,0.0,0.0,0.0,0.0,0.0,0.0,0.0,0.0,0.0,0.0,0.0,0.0,0.0,0.0,0.0,0.0,0.0,0.0,0.0,0.0,0.0,0.0,0.0,0.0,0.0,0.0,0.0,0.0,0.0,0.0,0.0,0.0,0.0,0.0,0.0,0.0,0.0,0.0,0.0,0.0,0.0,0.0,0.0,0.0,0.0,0.0,0.0,0.0,0.0,0.0,0.0,0.0,0.0,0.0,0.0,0.0,0.0,0.0,0.0,0.0,0.0,0.0,0.0,0.0,0.0,0.0,0.0,0.0,0.0,0.0,0.0,0.0,0.0,0.0,0.0,0.0,0.0,0.0,0.0,0.0,0.0,0.0,0.0,0.0,0.0,0.0,0.0,0.0,0.0,0.0,0.0,0.0,0.0,0.0,0.0,0.0,0.0,0.0,0.0,0.0,0.0,0.0,0.0,0.0,0.0,0.0,0.0,0.0,0.0,0.0,0.0,0.0,0.0,0.0,0.0,0.0,0.0,0.0,0.0,0.0,0.0,0.0,0.0,0.0,0.0,0.0,0.0,0.0,0.0,0.0,0.0,0.0,0.0,0.0,0.0,0.0,0.0,0.0,0.0,0.0,0.0,0.0,0.0,0.0,0.0,0.0,0.0,0.0,0.0,0.0,0.0,0.0,0.0,0.0,0.0,0.0,0.0,0.0,0.0,0.0,0.0,0.0,0.0,0.0,0.0,0.0,0.0,0.0,0.0,0.0,0.0,0.0,0.0,0.0,0.0,0.0,0.0,0.0,0.0,0.0,0.0,0.0,0.0,0.0,0.0,0.0,0.0,0.0,0.0,0.0,0.0,0.0,0.0,0.0,0.0,0.0,0.0,0.0,0.0,0.0,0.0,0.0,0.0,0.0,0.0,0.0,0.0,0.0,0.0,0.0,0.0,0.0,0.0,0.0,0.0,0.0,0.0,0.0,0.0,0.0,0.0,0.0,0.0,0.0,0.0,0.0,0.0,0.0,0.0,0.0,0.0,0.0,0.0,0.0,0.0,0.0,0.0,0.0,0.0,0.0,0.0,0.0,0.0,0.0,0.0,0.0,0.0,0.0,0.0,0.0,0.0,0.0,0.0,0.0,0.0,0.0,0.0,0.0,0.0,0.0,0.0,0.0,0.0,0.0,0.0,0.0,0.0,0.0,0.0,0.0,0.0,0.0,0.0,0.0,0.0,0.0,0.0,0.0,0.0,0.0,0.0,0.0,0.0,0.0,0.0,0.0,0.0,0.0,0.0,0.0,0.0,0.0,0.0,0.0,0.0,0.0,0.0,0.0,0.0,0.0,0.0,0.0,0.0,0.0,0.0,0.0,0.0,0.0,0.0,0.0,0.0,0.0,0.0,0.0,0.0,0.0,0.0,0.0,0.0,0.0,0.0,0.0,0.0,0.0,0.0,0.0,0.0,0.0,0.0,0.0,0.0,0.0,0.0,0.0,0.0,0.0,0.0,0.0,0.0,0.0,0.0,0.0,0.0,0.0,0.0,0.0,0.0,0.0,0.0,0.0,0.0,0.0,0.0,0.0,0.0,0.0,0.0,0.0,0.0,0.0,0.0,0.0,0.0,0.0,0.0,0.0,0.0,0.0,0.0,0.0,0.0,0.0,0.0,0.0,0.0,0.0,0.0,0.0,0.0,0.0,0.0,0.0,0.0,0.0,0.0,0.0,0.0,0.0,0.0,0.0,0.0,0.0,0.0,0.0,0.0,0.0,0.0,0.0,0.0,0.0,0.0,0.0,0.0,0.0,0.0,0.0,0.0,0.0,0.0,0.0,0.0,0.0,0.0,0.0,0.0,0.0,0.0,0.0,0.0,0.0,0.0,0.0,0.0,0.0,0.0,0.0,0.0,0.0,0.0,0.0,0.0,0.0,0.0,0.0,0.0,0.0,0.0,0.0,0.0,0.0,0.0,0.0,0.0,0.0,0.0,0.0,0.0,0.0,0.0,0.0,0.0,0.0,0.0,0.0,0.0,0.0,0.0,0.0,0.0,0.0,0.0,0.0,0.0,0.0,0.0,0.0,0.0,0.0,0.0,0.0,0.0,0.0,0.0,0.0,0.0,0.0,0.0,0.0,0.0,0.0,0.0,0.0,0.0,0.0,0.0,0.0,0.0,0.0,0.0,0.0,0.0,0.0,0.0,0.0,0.0,0.0,0.0,0.0,0.0,0.0,0.0,0.0,0.0,0.0,0.0,0.0,0.0,0.0,0.0,0.0,0.0,0.0,0.0,0.0,0.0,0.0,0.0,0.0,0.0,0.0,0.0,0.0,0.0,0.0,0.0,0.0,0.0,0.0,0.0,0.0,0.0,0.0,0.0,0.0,0.0,0.0,0.0,0.0,0.0,0.0,0.0,0.0,0.0,0.0,0.0,0.0,0.0,0.0,0.0,0.0,0.0,0.0,0.0,0.0,0.0,0.0,0.0,0.0,0.0,0.0,0.0,0.0,0.0,0.0,0.0,0.0,0.0,0.0,0.0,0.0,0.0,0.0,0.0,0.0,0.0,0.0,0.0,0.0,0.0,0.0,0.0,0.0,0.0,0.0,0.0,0.0,0.0,0.0,0.0,0.0,0.0,0.0,0.0,0.0,0.0,0.0,0.0,0.0,0.0,0.0,0.0,0.0,0.0,0.0,0.0,0.0,0.0,0.0,0.0,0.0,0.0,0.0,0.0,0.0,0.0,0.0,0.0,0.0,0.0,0.0,0.0,0.0,0.0,0.0,0.0,0.0,0.0,0.0,0.0,0.0,0.0,0.0,0.0,0.0,0.0,0.0,0.0,0.0,0.0,0.0,0.0,0.0,0.0,0.0,0.0,0.0,0.0,0.0,0.0,0.0,0.0,0.0,0.0,0.0,0.0,0.0,0.0,0.0,0.0,0.0,0.0,0.0,0.0,0.0,0.0,0.0,0.0,0.0,0.0,0.0,0.0,0.0,0.0,0.0,0.0,0.0,0.0,0.0,0.0,0.0,0.0,0.0,0.0,0.0,0.0,0.0,0.0,0.0,0.0,0.0,0.0,0.0,0.0,0.0,0.0,0.0,0.0,0.0,0.0,0.0,0.0,0.0,0.0,0.0,0.0,0.0,0.0,0.0,0.0,0.0,0.0,0.0,0.0,0.0,0.0,0.0,0.0,0.0,0.0,0.0,0.0,0.0,0.0,0.0,0.0,0.0,0.0,0.0,0.0,0.0,0.0,0.0,0.0,0.0,0.0,0.0,0.0,0.0,0.0,0.0,0.0,0.0,0.0,0.0,0.0,0.0,0.0,0.0,0.0,0.0,0.0,0.0,0.0,0.0,0.0,0.0,0.0,0.0,0.0,0.0,0.0,0.0,0.0,0.0,0.0,0.0,0.0,0.0,0.0,0.0,0.0,0.0,0.0,0.0,0.0,0.0,0.0,0.0,0.0,0.0,0.0,0.0,0.0,0.0,0.0,0.0,0.0,0.0,0.0,0.0,0.0,0.0,0.0,0.0,0.0,0.0,0.0,0.0,0.0,0.0,0.0,0.0,0.0,0.0,0.0,0.0,0.0,0.0,0.0,0.0,0.0,0.0,0.0,0.0,0.0,0.0,0.0,0.0,0.0,0.0,0.0,0.0,0.0,0.0,0.0,0.0,0.0,0.0,0.0,0.0,0.0,0.0,0.0,0.0,0.0,0.0,0.0,0.0,0.0,0.0,0.0,0.0,0.0,0.0,0.0,0.0,0.0,0.0,0.0,0.0,0.0,0.0,0.0,0.0,0.0,0.0,0.0,0.0,0.0,0.0,0.0,0.0,0.0,0.0,0.0,0.0,0.0,0.0,0.0,0.0,0.0,0.0,0.0,0.0,0.0,0.0,0.0,0.0,0.0,0.0,0.0,0.0,0.0,0.0,0.0,0.0,0.0,0.0,0.0,0.0,0.0,0.0,0.0,0.0,0.0,0.0,0.0,0.0,0.0,0.0,0.0,0.0,0.0,0.0,0.0,0.0,0.0,0.0,0.0,0.0,0.0,0.0,0.0,0.0,0.0,0.0,0.0,0.0,0.0,0.0,0.0,0.0,0.0,0.0,0.0,0.0,0.0,0.0,0.0,0.0,0.0,0.0,0.0,0.0,0.0,0.0,0.0,0.0,0.0,0.0,0.0,0.0,0.0,0.0,0.0,0.0,0.0,0.0,0.0,0.0,0.0,0.0,0.0,0.0,0.0,0.0,0.0,0.0,0.0,0.0,0.0,0.0,0.0,0.0,0.0,0.0,0.0,0.0,0.0,0.0,0.0,0.0,0.0,0.0,0.0,0.0,0.0,0.0,0.0,0.0,0.0,0.0,0.0,0.0,0.0,0.0,0.0,0.0,0.0,0.0,0.0,0.0,0.0,0.0,0.0,0.0,0.0,0.0,0.0,0.0,0.0,0.0,0.0,0.0,0.0,0.0,0.0,0.0,0.0,0.0,0.0,0.0,0.0,0.0,0.0,0.0,0.0,0.0,0.0,0.0,0.0,0.0,0.0,0.0,0.0,0.0,0.0,0.0,0.0,0.0,0.0,0.0,0.0,0.0,0.0,0.0,0.0,0.0,0.0,0.0,0.0,0.0,0.0,0.0,0.0,0.0,0.0,0.0,0.0,0.0,0.0,0.0,0.0,0.0,0.0,0.0,0.0,0.0,0.0,0.0,0.0,0.0,0.0,0.0,0.0,0.0,0.0,0.0,0.0,0.0,0.0,0.0,0.0,0.0,0.0,0.0,0.0,0.0,0.0,0.0,0.0,0.0,0.0,0.0,0.0,0.0,0.0,0.0,0.0,0.0,0.0,0.0,0.0,0.0,0.0,0.0,0.0,0.0,0.0,0.0,0.0,0.0,0.0,0.0,0.0,0.0,0.0,0.0,0.0,0.0,0.0,0.0,0.0,0.0,0.0,0.0,0.0,0.0,0.0,0.0,0.0,0.0,0.0,0.0,0.0,0.0,0.0,0.0,0.0,0.0,0.0,4.1305,0.0,0.0,0.0,0.0,0.0,0.0,0.0,0.0,0.0,0.0,0.0,0.0,0.0,0.0,0.0,0.0,0.0,0.0,0.0,0.0,0.0,0.0,0.0,0.0,0.0,0.0,0.0,0.0,0.0,0.0,0.0,0.0,0.0,0.0,0.0,0.0,0.0,0.0,0.0,4.9843,4.9864,4.9492,5.1014,5.0371,4.797,0.0,0.0,0.0,0.0,0.0,0.0,0.0,0.0,0.0,0.0,0.0,0.0,0.0,0.0,0.0,0.0,0.0,0.0,0.0,0.0,0.0,0.0,0.0,0.0,0.0,0.0,0.0,0.0,0.0,0.0,0.0,0.0,0.0,0.0,0.0,0.0,0.0,0.0,0.0,0.0,0.0,0.0,0.0,0.0,0.0,0.0,0.0,0.0,0.0,0.0,0.0,0.0,0.0,0.0,0.0,0.0,0.0,0.0,0.0,0.0,0.0,0.0,0.0,0.0,0.0,0.0,0.0,0.0,0.0,0.0,0.0,4.2354,0.0,0.0,0.0,0.0,0.0,0.0,0.0,0.0,0.0,0.0,0.0,0.0,0.0,0.0,0.0,0.0,0.0,0.0,0.0,0.0,0.0,0.0,0.0,4.7091,4.8394,4.9323,4.8656,4.8494,0.0,0.0,0.0,0.0,0.0,0.0,4.777,4.9284,5.0085,5.0021,5.0488,5.1522,5.3112,5.4025,5.2469,4.8951,4.9729,0.0,0.0,0.0,0.0,0.0,0.0,0.0,0.0,0.0,0.0,0.0,0.0,0.0,0.0,0.0,0.0,0.0,0.0,0.0,0.0,0.0,0.0,0.0,0.0,0.0,0.0,0.0,0.0,0.0,0.0,0.0,0.0,0.0,0.0,0.0,0.0,0.0,0.0,0.0,0.0,0.0,0.0,0.0,0.0,0.0,0.0,0.0,0.0,0.0,0.0,0.0,0.0,0.0,0.0,0.0,0.0,0.0,0.0,0.0,0.0,0.0,0.0,0.0,5.0056,5.1048,5.1657,5.1657,5.1319,5.0642,4.868,4.6447,4.4181,0.0,0.0,0.0,0.0,0.0,0.0,0.0,0.0,0.0,0.0,0.0,0.0,0.0,0.0,0.0,0.0,0.0,0.0,0.0,0.0,0.0,0.0,4.7599,4.9194,5.0781,5.0784,5.0514,4.9999,0.0,0.0,4.7836,4.845,4.8751,4.8528,4.9553,5.0375,5.0989,5.2369,5.4126,5.6258,5.7645,5.7983,5.7205,5.2266,5.1454,5.3484,0.0,0.0,0.0,0.0,0.0,0.0,0.0,0.0,0.0,0.0,0.0,0.0,0.0,0.0,0.0,0.0,0.0,0.0,0.0,0.0,0.0,0.0,0.0,0.0,0.0,0.0,0.0,0.0,0.0,0.0,0.0,0.0,0.0,0.0,0.0,0.0,0.0,0.0,0.0,0.0,0.0,4.0425,4.2201,0.0,0.0,0.0,0.0,0.0,0.0,0.0,0.0,0.0,0.0,0.0,0.0,0.0,4.6739,4.8104,5.1112,5.2819,5.309,5.6191,5.7746,5.7848,5.7848,5.778,5.7645,5.6697,0.0,4.7192,4.5229,0.0,0.0,0.0,0.0,0.0,0.0,0.0,0.0,0.0,0.0,0.0,0.0,0.0,0.0,0.0,0.0,0.0,0.0,0.0,0.0,0.0,5.0386,5.2605,5.247,5.4283,5.4448,5.2198,5.2268,5.1595,4.969,5.0045,4.9953,4.9354,5.0626,5.2334,5.4363,5.7543,5.9404,5.9979,6.1028,6.1535,6.14,5.7915,5.619,5.5683,5.3653,0.0,0.0,0.0,0.0,0.0,0.0,0.0,0.0,0.0,0.0,0.0,0.0,0.0,0.0,0.0,0.0,0.0,0.0,0.0,0.0,0.0,0.0,0.0,0.0,0.0,0.0,0.0,0.0,0.0,0.0,0.0,0.0,0.0,0.0,0.0,0.0,0.0,0.0,0.0,4.1056,4.3637,4.3108,4.5143,4.5432,0.0,0.0,0.0,0.0,0.0,0.0,0.0,0.0,0.0,4.9726,5.0913,5.2313,5.3712,5.5223,5.6791,5.8426,6.0125,6.1129,6.1535,6.1535,6.1095,6.0283,5.9945,5.7408,5.3281,5.0236,4.7733,4.5635,0.0,0.0,0.0,0.0,4.0704,4.0124,0.0,0.0,0.0,0.0,0.0,0.0,0.0,0.0,0.0,0.0,0.0,0.0,4.9316,5.3198,5.5673,5.5784,5.7959,5.8084,5.5072,5.4577,5.3636,5.1828,5.142,5.0925,5.0456,5.2572,5.5209,5.822,6.2347,6.4275,6.414,6.5053,6.5527,6.5459,6.414,6.1907,5.893,5.6664,5.4329,5.1928,0.0,0.0,0.0,0.0,0.0,0.0,0.0,0.0,0.0,0.0,0.0,0.0,0.0,0.0,0.0,0.0,0.0,0.0,0.0,0.0,0.0,0.0,0.0,0.0,0.0,0.0,0.0,0.0,0.0,0.0,0.0,0.0,0.0,0.0,0.0,0.0,0.0,4.423,4.6519,4.4388,4.8186,4.8928,0.0,0.0,0.0,0.0,0.0,0.0,4.8898,5.2778,5.47,5.397,5.5695,5.7105,5.809,5.8737,6.0064,6.2202,6.293,6.3632,6.4343,6.4343,6.3565,6.2144,6.2144,6.057,5.7749,5.4193,5.0913,4.8037,4.6549,4.4901,4.3323,4.3117,4.2328,4.1565,0.0,0.0,0.0,0.0,0.0,0.0,0.0,0.0,0.0,0.0,0.0,4.7478,5.426,5.5213,5.7153,6.1559,6.1501,6.0444,5.8863,5.6085,5.4193,5.3416,5.1995,5.1555,5.2166,5.575,5.9099,6.211,6.5155,6.7387,6.8808,7.0229,7.0939,7.0872,7.0094,6.8064,6.4816,5.8423,5.6393,5.707,5.2063,0.0,0.0,0.0,0.0,0.0,0.0,0.0,0.0,0.0,0.0,0.0,0.0,0.0,0.0,0.0,0.0,0.0,0.0,0.0,0.0,0.0,0.0,0.0,0.0,0.0,0.0,0.0,0.0,0.0,0.0,0.0,0.0,0.0,0.0,0.0,0.0,0.0,0.0,4.7473,5.2702,0.0,0.0,0.0,0.0,5.0265,5.2302,5.3974,5.49,5.7756,5.8566,5.6985,5.8846,5.9686,5.9045,6.1346,6.2652,6.294,6.4747,6.5933,6.6643,6.6643,6.5831,6.4444,6.4444,6.2125,5.8224,5.4787,5.2875,5.1657,4.8139,4.6636,4.6187,4.3913,4.3072,4.2911,0.0,0.0,0.0,0.0,0.0,0.0,0.0,0.0,4.3272,4.6076,4.8561,5.1572,5.5655,6.0946,6.4487,6.5189,6.7184,6.6981,6.3531,6.0554,5.8558,5.778,5.5412,5.5108,5.7273,5.9133,6.2009,6.5933,6.847,7.0466,7.1921,7.2462,7.2699,7.2665,7.1954,7.1278,7.0331,6.458,6.0486,5.7611,5.4296,5.1792,0.0,0.0,0.0,0.0,0.0,0.0,0.0,0.0,0.0,0.0,0.0,0.0,0.0,0.0,0.0,0.0,0.0,0.0,0.0,0.0,0.0,0.0,0.0,0.0,0.0,0.0,0.0,0.0,0.0,0.0,0.0,0.0,0.0,0.0,0.0,0.0,0.0,5.2773,5.6934,0.0,5.3606,5.3858,5.4346,5.4422,5.7912,5.9977,5.982,6.3616,6.4447,6.1704,6.364,6.411,6.2962,6.3759,6.4609,6.56,6.6142,6.6542,6.6812,6.6812,6.6,6.4613,6.4613,6.2615,5.942,5.7735,5.5362,5.252,5.0924,4.9419,4.8035,4.7535,4.6475,4.5291,0.0,0.0,0.0,0.0,0.0,0.0,0.0,0.0,4.4069,4.8045,5.1048,5.4658,5.9152,6.5497,6.9451,6.9451,7.1244,7.0804,6.7083,6.3091,6.0554,5.9776,5.7611,5.7712,6.0452,6.2482,6.5358,6.9045,7.1312,7.3037,7.4221,7.4221,7.4221,7.4221,7.3713,7.3781,7.4018,7.0534,6.5764,6.025,5.7273,5.5175,5.3315,0.0,0.0,0.0,0.0,0.0,0.0,0.0,0.0,0.0,0.0,0.0,0.0,0.0,0.0,0.0,0.0,0.0,0.0,0.0,0.0,0.0,0.0,0.0,0.0,0.0,0.0,0.0,0.0,0.0,0.0,0.0,0.0,0.0,0.0,0.0,5.6482,5.7462,6.1363,6.2339,5.7962,5.8852,5.9467,5.8748,6.2484,6.4573,6.4211,6.7802,6.844,6.5219,6.6528,6.6574,6.5111,6.4942,6.5317,6.6318,6.6644,6.6812,6.6812,6.6812,6.6136,6.4952,6.4715,6.2724,5.9638,5.8786,5.6459,5.3335,5.3138,5.1934,5.0392,5.0218,4.9206,4.7939,0.0,0.0,0.0,0.0,0.0,0.0,0.0,4.389,4.4741,5.0237,5.2215,5.6301,6.4855,6.8538,7.1548,7.4458,7.3308,7.1515,6.9316,6.3463,5.9776,5.9099,5.8355,5.9133,6.1535,6.5764,6.9079,7.1447,7.3646,7.5067,7.5777,7.5811,7.5811,7.5811,7.5811,7.5811,7.5845,7.5777,7.1988,6.5662,6.1095,5.9201,5.866,0.0,0.0,0.0,0.0,0.0,0.0,0.0,0.0,0.0,0.0,0.0,0.0,0.0,0.0,0.0,0.0,0.0,0.0,0.0,0.0,0.0,0.0,0.0,0.0,0.0,0.0,0.0,0.0,0.0,0.0,0.0,0.0,0.0,5.2004,5.6857,6.0465,6.1379,6.6019,6.6489,5.9601,6.2729,6.4669,6.3388,6.5853,6.7658,6.8163,7.0113,6.9982,6.7368,6.7266,6.6543,6.5219,6.5077,6.4953,6.4988,6.6257,6.6846,6.6812,6.6812,6.6406,6.5662,6.4918,6.2481,5.8888,5.7871,5.6287,5.4498,5.4562,5.416,5.3349,5.1655,5.0975,5.0744,0.0,0.0,0.0,0.0,0.0,0.0,0.0,4.4821,4.5617,5.1229,5.4832,5.9526,6.6542,7.1954,7.5608,7.6927,7.4695,7.2496,7.0804,6.4038,6.0013,5.981,6.0148,6.2685,6.7658,6.8402,7.0635,7.4492,7.6217,7.7164,7.7367,7.845,7.8686,7.8179,7.8179,7.845,7.8855,7.7266,7.5811,7.4018,6.7354,6.37,6.1772,0.0,0.0,0.0,0.0,0.0,0.0,0.0,0.0,0.0,0.0,0.0,0.0,0.0,0.0,0.0,0.0,0.0,0.0,0.0,0.0,0.0,0.0,0.0,0.0,0.0,0.0,0.0,0.0,0.0,0.0,0.0,0.0,5.3553,5.476,5.9218,6.3378,6.6157,6.8526,6.9207,6.729,6.8104,6.8463,6.7554,6.8203,6.923,7.0364,7.0036,6.9409,6.8699,6.8699,6.7974,6.6679,6.7001,6.6968,6.6445,6.7179,6.732,6.6812,6.6812,6.6406,6.5662,6.4918,6.3377,6.1298,5.9646,5.8091,5.6654,5.4309,5.3737,5.4194,5.3145,5.2438,5.1698,0.0,0.0,0.0,0.0,0.0,0.0,0.0,4.5241,4.625,5.2472,5.6501,6.1316,6.7723,7.3172,7.6454,7.6555,7.439,7.1887,6.9147,6.37,6.0757,6.1061,6.3328,6.6609,7.1007,7.2225,7.439,7.7604,7.8788,7.9532,7.987,8.0716,8.0885,8.0479,8.0479,8.0716,8.1054,7.9769,7.9464,7.9397,7.4424,7.0703,6.759,6.2482,6.0182,5.9336,5.6596,5.548,5.504,5.3112,0.0,0.0,0.0,0.0,0.0,0.0,0.0,0.0,0.0,0.0,0.0,0.0,0.0,0.0,0.0,0.0,0.0,0.0,0.0,0.0,0.0,0.0,0.0,0.0,5.2733,5.7314,5.9751,6.302,6.6477,7.0096,7.0903,7.1246,7.1227,7.1815,7.1516,7.0303,7.0921,7.1553,7.1695,7.101,7.0376,7.0076,6.9537,6.8797,6.8074,6.8109,6.7838,6.7504,6.7724,6.7692,6.7252,6.6948,6.6576,0.0,6.5392,6.4098,6.2397,6.0423,5.898,0.0,0.0,0.0,0.0,0.0,5.3247,5.2131,0.0,0.0,0.0,0.0,0.0,0.0,0.0,4.5175,4.6543,5.355,5.7291,6.1775,6.8027,7.2732,7.5202,7.4525,7.3138,7.0398,6.5967,6.3328,6.2279,6.3125,6.7286,7.0669,7.2969,7.6454,7.8923,8.031,8.1122,8.1832,8.2408,8.2577,8.2611,8.2543,8.2611,8.2678,8.2644,8.2577,8.2543,8.2408,8.1021,7.8247,7.439,6.8808,6.6914,6.6643,6.2381,6.008,5.8761,5.7036,0.0,0.0,0.0,0.0,0.0,0.0,0.0,0.0,0.0,0.0,0.0,0.0,0.0,0.0,0.0,0.0,0.0,0.0,0.0,0.0,0.0,0.0,0.0,0.0,5.5272,6.0186,6.5259,6.7235,6.9444,7.2969,7.3003,7.2834,7.278,7.4027,7.4018,7.1821,7.3399,7.3898,7.2515,0.0,0.0,0.0,0.0,6.9409,6.9409,6.8781,6.8451,6.8352,6.8115,6.7996,6.7861,6.7151,6.6812,6.6779,6.6,6.469,6.2855,6.067,5.9268,5.8264,5.6731,5.5954,5.5615,5.4871,5.3721,5.2435,0.0,0.0,0.0,0.0,0.0,0.0,0.0,4.4816,4.6348,5.2876,5.6533,6.0627,6.58,7.0872,7.3849,7.3713,7.236,6.9857,6.5933,6.573,6.6373,6.7726,7.0906,7.3984,7.6826,7.8788,8.0209,8.1088,8.2408,8.2847,8.2441,8.3625,8.3862,8.3321,8.393,8.42,8.4167,8.3558,8.3287,8.3219,8.234,8.0107,7.7029,7.4018,7.1481,6.918,6.6474,6.5696,6.5459,6.2212,6.1298,6.0926,5.7137,5.4431,0.0,0.0,0.0,0.0,0.0,0.0,0.0,0.0,0.0,0.0,0.0,0.0,0.0,0.0,0.0,0.0,0.0,0.0,0.0,5.2928,5.7105,6.1337,6.5606,6.8306,7.0509,7.2404,7.4052,7.4837,7.4214,7.5614,7.5466,7.3171,7.3606,7.3409,7.2416,7.1951,0.0,7.2225,7.131,7.0882,7.0882,7.0748,7.0377,6.9772,0.0,0.0,6.7861,6.7151,6.6812,6.6779,6.6,6.5174,6.4068,6.2098,6.0454,5.9086,5.7315,5.6246,5.5615,5.4871,5.4397,5.3957,0.0,0.0,0.0,0.0,0.0,0.0,0.0,4.5127,4.6651,5.2201,5.5231,5.8441,6.2425,6.5899,6.7793,6.7421,6.6339,6.5561,6.5155,6.7252,6.9654,7.2293,7.527,7.7908,8.0141,8.1291,8.2205,8.2949,8.4099,8.4268,8.3558,8.4674,8.4809,8.4065,8.4471,8.464,8.4606,8.4234,8.4065,8.4031,8.3659,8.2408,8.0445,7.7841,7.5709,7.3781,7.1515,7.0466,6.962,6.6271,6.4918,6.3937,6.0182,5.7746,5.5747,0.0,0.0,0.0,0.0,0.0,0.0,0.0,0.0,0.0,0.0,0.0,0.0,0.0,0.0,4.7606,0.0,0.0,5.2937,5.6149,5.946,6.2848,6.6262,6.9089,7.1386,7.2843,7.4559,7.5709,7.5743,7.644,7.6708,7.6307,7.5628,7.4884,7.4023,7.3708,7.3035,7.1837,7.1825,7.1684,7.1312,7.1312,7.1142,7.0737,6.9992,6.9451,6.9011,6.7861,6.7354,6.732,6.6576,6.5831,6.5019,6.2896,6.1146,5.9689,5.8403,5.7442,5.6765,5.6393,5.5547,5.4431,0.0,0.0,0.0,0.0,0.0,0.0,0.0,4.533,4.6971,5.129,5.3699,5.5979,5.8754,6.0655,6.1501,6.0926,6.0926,6.2245,6.529,6.9113,7.2834,7.642,7.9464,8.1629,8.2813,8.3693,8.4471,8.508,8.5689,8.5689,8.508,8.5723,8.5655,8.508,8.508,8.508,8.508,8.508,8.508,8.5046,8.4911,8.4471,8.3659,8.0987,7.9397,7.8314,7.6082,7.4018,7.2022,6.9586,6.7489,6.5392,6.2516,6.0926,5.9321,5.524,5.4439,0.0,0.0,0.0,0.0,0.0,0.0,0.0,0.0,0.0,4.8643,5.0481,5.058,5.0974,5.2917,5.4874,5.6929,5.9117,6.1369,6.3792,6.6384,6.9237,7.1556,7.2741,7.4837,7.6386,7.7063,7.7309,7.7832,7.8758,7.807,7.7212,7.6004,7.5773,7.4469,7.172,7.1866,7.169,7.1118,7.1199,7.1312,7.1312,7.0534,7.0195,7.0128,6.8774,6.8064,6.7861,6.6981,6.617,6.5324,6.3396,6.1806,6.0486,5.9911,5.9201,5.849,5.7881,5.6562,5.4905,0.0,0.0,0.0,0.0,0.0,0.0,0.0,0.0,4.6606,4.9873,5.2127,5.3884,5.5106,5.7712,5.937,5.9268,6.2212,6.5392,6.8402,7.2665,7.6454,7.9566,8.2543,8.42,8.437,8.579,8.6569,8.6636,8.6738,8.6738,8.667,8.6738,8.6738,8.6636,8.6636,8.6636,8.6636,8.6636,8.6636,8.6602,8.5926,8.5621,8.5351,8.3659,8.2137,8.0615,7.8416,7.5371,7.236,7.2022,6.9586,6.6745,6.6948,6.5628,6.3067,5.8349,5.6337,5.4586,5.0089,4.8881,4.9191,5.0383,5.1329,5.2807,0.0,0.0,5.5799,5.5834,5.6301,5.6506,5.5943,5.7423,5.9177,6.0625,6.1605,6.294,6.5018,6.7853,6.9885,7.0567,7.4832,7.7773,7.7874,7.9094,7.9257,7.8106,7.9757,7.9626,7.6795,7.6148,7.5025,7.3368,7.1458,7.0466,7.027,7.1002,7.1312,7.1312,7.0534,7.0195,7.0161,6.935,6.8571,6.7827,6.6406,6.5392,6.4647,6.3768,6.2888,6.211,6.2042,6.1569,6.0588,5.7915,5.6765,5.6359,0.0,0.0,0.0,0.0,0.0,0.0,0.0,0.0,0.0,4.8517,4.9917,5.1061,5.1928,5.3078,5.3653,5.3247,5.8592,6.3429,6.688,7.3341,7.8754,8.2611,8.4403,8.552,8.596,8.6569,8.6907,8.6907,8.7347,8.7313,8.6941,8.7347,8.7313,8.6907,8.6907,8.6907,8.6907,8.6907,8.6907,8.6873,8.6569,8.6163,8.5655,8.4573,8.2441,7.9735,7.7468,7.4559,0.0,6.9755,6.8098,6.6779,6.6643,6.5392,6.3323,6.0158,5.774,5.524,5.1638,5.0569,0.0,0.0,5.4289,5.6325,5.9201,5.9498,5.9114,5.9056,5.9379,5.9553,5.9105,6.0027,6.1164,0.0,6.278,6.3683,6.4923,6.6808,6.8191,6.8525,7.1578,7.4262,7.577,7.7703,7.8923,7.9177,7.9176,7.863,7.7447,7.62,7.43,7.1585,7.0653,7.0192,7.0207,7.0092,7.0482,7.1312,7.1007,7.0838,7.0804,6.9243,6.7878,6.6712,6.5646,6.5243,6.5189,6.4444,6.3734,6.2956,6.211,6.1839,6.167,5.9505,5.8186,5.7273,0.0,0.0,0.0,0.0,0.0,0.0,0.0,0.0,0.0,0.0,4.824,4.8923,4.9345,4.9413,4.9211,4.8644,5.4901,6.0655,6.4816,7.2394,7.8923,8.3795,8.5554,8.6738,8.7482,8.7922,8.8125,8.8125,8.8632,8.8531,8.782,8.8361,8.8226,8.7516,8.7516,8.7617,8.782,8.782,8.782,8.7786,8.7583,8.6805,8.5655,8.4471,8.1325,7.7333,7.5473,7.2496,6.9079,6.6474,6.5189,6.4681,6.4749,6.4072,6.275,6.0256,5.7066,5.3938,5.2476,0.0,0.0,5.518,5.76,5.9979,6.2042,6.2482,6.2431,6.2233,6.2242,6.2117,6.1687,6.2061,6.257,6.3228,6.3707,6.4146,6.4738,6.6189,6.6979,6.6416,6.8467,7.0566,7.2022,7.5316,7.7675,7.8481,7.8681,7.824,7.7233,7.6123,7.3876,7.0416,6.9979,6.9542,6.9335,6.9256,6.9727,7.0699,7.1098,7.1098,7.0666,6.8492,6.687,6.5661,6.5312,6.5017,6.4875,6.4653,6.4038,6.3091,6.2009,6.1907,6.2245,6.0926,5.9471,5.8084,0.0,0.0,0.0,0.0,0.0,0.0,0.0,0.0,0.0,0.0,0.0,0.0,0.0,4.7704,4.7671,4.7671,5.2671,5.8051,6.326,6.9891,7.6284,8.2205,8.5993,8.826,8.9004,9.0425,9.1169,9.1169,9.1169,9.0831,9.0121,9.0121,8.9748,8.9004,8.9004,8.941,9.0121,9.0121,9.0121,9.0053,8.9309,8.7719,8.5554,8.3321,7.8822,7.3544,7.2766,6.918,6.458,6.3024,6.1061,5.9641,6.1806,6.2448,6.1682,5.8008,5.3409,4.9968,5.2122,0.0,5.4406,5.7767,6.0939,6.3734,6.5222,6.6201,6.6668,6.6053,6.545,6.4611,6.3334,6.3019,6.3258,6.3857,6.3977,6.3977,6.4093,6.5818,6.6461,6.4443,6.6659,6.7896,0.0,7.2165,7.5644,7.4815,7.8783,7.9602,7.5906,7.5695,7.4331,7.1366,6.9263,6.7869,6.7237,6.8586,6.9217,6.9313,7.0666,7.0574,6.9184,6.7063,6.5756,6.5119,6.5694,6.4679,6.2913,6.4052,6.3734,6.2415,6.2381,6.2381,6.2313,6.1535,6.0283,5.8863,0.0,0.0,0.0,0.0,0.0,0.0,0.0,0.0,0.0,0.0,0.0,0.0,0.0,0.0,0.0,0.0,5.2505,5.6562,6.0283,6.7286,7.3544,7.8551,8.278,8.5824,8.7617,8.8598,8.9342,8.9816,8.9816,8.9715,8.9478,8.9478,8.9579,8.985,9.0324,9.0696,9.0966,9.1474,9.1102,9.0154,8.9376,8.7753,8.5486,8.2712,7.721,7.0657,0.0,6.4512,6.0655,5.9167,5.8186,5.7611,5.7881,5.8287,5.795,5.4276,5.3672,5.4214,5.4109,0.0,5.9861,6.2647,6.4922,6.7083,6.9586,7.04,7.0016,6.7995,6.6664,6.502,6.2242,6.1762,6.2002,6.263,6.4186,6.5173,6.4755,6.6432,6.6516,6.3183,6.4758,0.0,0.0,0.0,0.0,7.2464,7.4669,7.5454,7.42,7.354,7.2177,6.985,6.8274,6.7321,6.7043,6.6739,6.7368,6.9217,6.9633,6.8699,6.6438,6.5324,6.4808,6.4889,6.4224,6.4473,6.531,6.4315,6.3869,6.3768,6.2787,6.2381,6.2347,6.211,6.14,6.0419,0.0,0.0,0.0,0.0,0.0,0.0,0.0,0.0,0.0,0.0,0.0,0.0,0.0,0.0,0.0,0.0,0.0,5.3883,5.7239,6.2649,6.792,7.3105,7.6792,7.9803,8.2069,8.2577,8.3558,8.5114,8.5655,8.6298,8.711,8.7922,8.8429,8.8666,8.941,8.9884,9.0154,9.0628,8.9816,8.8091,8.6805,8.4336,8.1021,7.7739,7.2042,0.0,6.2598,5.9221,5.5921,5.5707,5.5446,5.5175,5.4972,5.5097,5.5029,5.329,5.4744,5.6991,5.7891,6.0922,6.4607,6.7671,6.918,7.0466,7.2699,7.2766,7.1513,6.8295,6.6341,6.4102,6.0331,5.9308,5.9518,6.1104,6.281,6.4336,6.5562,6.643,6.6071,6.3767,6.4395,6.4336,0.0,0.0,0.0,6.9448,7.1977,7.3208,7.2639,7.2238,7.1334,6.9819,6.8027,6.7003,6.7043,6.648,6.7213,6.9217,6.9217,6.7774,6.5111,6.4646,6.4327,6.4184,6.3797,6.4207,6.5277,6.4315,6.3869,6.37,6.2753,6.2381,6.2381,6.2381,6.211,6.1535,0.0,0.0,0.0,0.0,0.0,0.0,0.0,0.0,0.0,0.0,0.0,0.0,0.0,0.0,0.0,0.0,0.0,0.0,5.3956,5.6229,6.0051,6.6052,6.8673,7.0973,7.3138,7.3274,7.4728,7.7638,7.9058,8.0851,8.2983,8.5148,8.5824,8.5249,8.5993,8.6738,8.7414,8.7414,8.6129,8.393,8.1731,7.7773,7.2868,6.9093,6.3852,5.8294,5.6843,5.3746,5.0627,5.2731,5.2943,5.257,5.3382,5.3436,5.347,5.5094,5.6434,5.8486,6.3177,6.6178,6.8844,7.2683,7.3578,7.3713,7.433,7.3316,7.1084,6.6902,6.4382,6.1658,0.0,0.0,5.6316,5.9518,6.0296,6.2061,6.652,6.6161,6.5622,0.0,0.0,0.0,0.0,0.0,0.0,6.5922,0.0,7.2547,7.1154,7.1715,7.1777,7.1096,6.8425,6.6973,6.6961,6.7723,6.8484,6.8991,6.9121,6.7774,6.5111,6.5219,6.4474,6.3276,6.4387,6.4156,6.2979,6.4169,6.3768,6.2482,6.2448,6.2415,6.2381,6.2381,6.2381,6.2178,0.0,0.0,0.0,0.0,0.0,0.0,0.0,0.0,0.0,0.0,0.0,0.0,0.0,0.0,0.0,0.0,0.0,0.0,4.8307,5.2638,5.6316,5.9052,6.4084,6.7624,6.9282,7.0432,7.1684,7.3003,7.3375,7.4153,7.5236,7.5811,7.6589,7.7502,7.8247,7.8991,7.9667,7.9667,7.872,7.7029,7.5337,7.2868,6.9836,6.641,6.1956,5.7275,5.5733,5.2571,4.9536,5.1631,5.3104,5.416,5.4905,5.5845,5.6962,5.888,6.2099,6.5421,6.7065,7.0523,7.3871,7.4837,7.4728,7.4074,7.3274,7.1679,6.8921,6.4254,6.1294,5.8304,0.0,0.0,0.0,5.9069,6.3079,0.0,6.8914,7.0201,0.0,6.8465,0.0,6.8495,6.6221,6.6131,0.0,0.0,6.7243,6.7968,6.8152,6.9178,6.948,6.8816,6.7183,6.6072,6.5585,6.682,6.7046,6.6154,6.8174,6.7774,6.5111,6.6154,6.6396,6.5934,6.5701,6.5742,6.5682,6.4889,6.4377,6.3971,6.3429,6.2888,6.2381,6.2381,6.2381,6.2245,0.0,0.0,0.0,0.0,0.0,0.0,0.0,0.0,0.0,0.0,0.0,0.0,0.0,0.0,0.0,0.0,0.0,0.0,0.0,4.8256,5.0649,5.2856,5.6302,5.894,6.0415,6.1717,6.3057,6.4478,6.5459,6.6643,6.803,6.9011,6.9891,7.0737,7.1481,7.2022,7.2428,7.2428,7.1379,0.0,0.0,6.5716,6.2781,6.0207,5.6824,5.3323,5.2499,5.0963,4.9583,0.0,0.0,5.6292,5.7712,5.9404,6.139,6.4137,0.0,7.0715,7.225,7.5157,7.7739,7.8077,7.7096,7.5518,7.3466,7.0685,6.6987,6.1154,5.7621,0.0,5.0727,0.0,0.0,0.0,0.0,0.0,6.9542,7.0919,7.1398,0.0,7.1068,0.0,6.8495,6.8315,6.7897,0.0,6.661,6.6944,6.7968,6.9002,6.9397,6.8972,6.7968,6.7169,6.6848,6.706,6.7061,6.6958,6.8503,6.8074,6.6048,6.747,6.7883,6.741,0.0,6.6556,6.6711,6.5561,6.4715,6.4072,6.3666,6.3057,6.2381,6.2381,6.2381,6.2279,0.0,0.0,0.0,0.0,0.0,0.0,0.0,0.0,0.0,0.0,0.0,0.0,0.0,0.0,0.0,0.0,0.0,0.0,0.0,0.0,4.4924,4.77,4.8172,4.9017,5.0401,5.1429,5.291,5.4898,5.6964,5.9032,6.1095,6.3024,6.3971,6.4106,6.4749,6.5087,6.5189,6.5087,6.3856,6.1886,6.0603,5.7807,5.4415,0.0,5.0877,4.8759,4.8677,4.9047,5.0154,0.0,5.6001,5.8882,6.1356,6.3835,6.6508,7.0161,7.2631,7.483,7.7671,7.9431,8.0648,8.1291,7.9701,7.7164,7.3831,6.9795,6.4688,5.7634,0.0,5.0684,4.7508,4.8745,5.1379,5.488,0.0,6.4126,6.9572,7.032,7.1038,7.2954,7.2654,7.1816,7.062,7.041,6.9812,6.8465,6.7687,6.7729,6.8969,6.9525,6.9803,6.971,6.9154,6.8706,6.8691,6.7828,6.7871,6.8894,6.9313,6.8797,6.747,6.8894,6.9046,6.8319,6.7691,0.0,6.6914,6.6237,6.5121,6.3802,6.3802,6.3294,6.255,6.255,6.2482,6.2313,0.0,0.0,0.0,0.0,0.0,0.0,0.0,0.0,0.0,0.0,4.5331,0.0,0.0,0.0,0.0,0.0,0.0,0.0,0.0,0.0,0.0,4.4518,4.6,4.7103,4.7942,4.9477,5.0419,5.0783,5.2001,5.3078,5.4059,5.4431,5.4972,5.5615,5.575,5.6156,5.6664,5.6089,5.5089,5.3971,5.3665,5.2253,5.0381,4.9726,0.0,0.0,4.7849,4.8133,4.9646,5.4157,5.8084,6.18,6.5547,6.9147,7.2563,7.5709,7.7333,7.8517,8.0242,8.1359,8.2069,8.2171,8.0073,7.6702,7.2011,6.6532,0.0,0.0,5.0253,4.7503,4.5185,4.7788,5.1678,5.6047,0.0,0.0,0.0,0.0,7.2924,0.0,0.0,0.0,0.0,0.0,0.0,0.0,0.0,6.829,6.7487,6.7547,6.7366,6.6794,6.6553,6.6625,6.6651,6.7557,6.7875,6.7572,6.9855,7.017,6.8894,7.0263,7.0478,6.9861,6.9726,0.0,6.7692,6.7557,6.6643,6.5324,6.5324,6.4512,6.3328,6.3328,6.2922,6.2381,0.0,0.0,0.0,0.0,0.0,0.0,0.0,0.0,0.0,4.9255,4.8483,4.7321,0.0,0.0,0.0,0.0,0.0,0.0,0.0,0.0,0.0,0.0,4.4289,4.534,4.5992,4.7677,4.8576,4.8694,0.0,5.0123,5.0574,5.0574,5.0777,5.115,5.115,5.1352,5.1657,5.1319,5.0626,4.9783,5.0472,4.9677,4.8057,0.0,0.0,0.0,0.0,0.0,4.9103,5.2807,5.72,6.222,6.8341,7.3178,7.6796,7.8515,8.0401,8.1997,8.2227,8.3564,8.4674,8.4268,8.1359,7.6837,7.0291,0.0,0.0,0.0,4.735,4.5364,4.4047,0.0,0.0,0.0,0.0,0.0,0.0,0.0,0.0,0.0,0.0,0.0,0.0,0.0,0.0,0.0,0.0,6.8555,6.7537,6.7178,6.7185,6.763,6.6281,6.6143,6.762,6.6897,6.7516,6.9346,6.9949,7.0263,7.0356,7.1007,7.1109,7.0737,7.0364,0.0,6.8504,6.8064,6.7015,6.5696,6.5696,6.5019,6.4072,6.4072,6.3869,6.3497,0.0,0.0,0.0,0.0,0.0,0.0,0.0,4.6346,4.7834,5.2435,5.2194,5.062,4.8001,4.4626,4.2325,0.0,0.0,0.0,0.0,0.0,0.0,0.0,0.0,0.0,0.0,0.0,0.0,0.0,4.7964,0.0,0.0,0.0,0.0,0.0,4.9018,4.9018,4.9018,4.8798,4.8161,0.0,0.0,4.7988,0.0,0.0,0.0,0.0,0.0,0.0,4.8443,0.0,5.5191,6.0572,6.7815,7.3805,7.8278,7.8727,8.1414,8.3951,8.3432,8.4798,8.623,8.5456,8.1576,7.604,6.862,6.2061,0.0,4.8324,4.5422,4.3958,4.3419,0.0,4.8686,0.0,5.3713,0.0,0.0,0.0,0.0,0.0,0.0,0.0,0.0,0.0,0.0,0.0,0.0,0.0,6.8016,6.7358,6.7729,6.9418,6.7143,6.6897,6.9138,6.7471,6.8119,7.1118,7.0276,7.0497,7.1548,7.1379,7.1312,7.1278,7.0703,0.0,0.0,6.8402,6.7286,6.5933,6.5933,6.5493,6.485,6.485,6.4749,6.4512,0.0,0.0,0.0,0.0,0.0,0.0,0.0,4.6887,4.956,5.4735,5.5308,5.4048,5.1018,4.6933,4.3428,0.0,0.0,0.0,0.0,0.0,0.0,0.0,0.0,0.0,0.0,0.0,0.0,0.0,0.0,0.0,0.0,0.0,0.0,0.0,0.0,0.0,4.8923,4.8096,0.0,0.0,0.0,0.0,0.0,0.0,0.0,0.0,0.0,0.0,0.0,0.0,0.0,5.6649,6.0512,6.7842,7.512,7.5282,0.0,0.0,8.3202,8.3928,8.444,8.3714,7.8681,7.2529,6.6598,0.0,5.3153,4.7978,4.5026,4.3389,4.3329,4.4107,0.0,0.0,0.0,5.6256,0.0,0.0,0.0,0.0,0.0,0.0,0.0,0.0,0.0,0.0,0.0,0.0,6.8016,6.7358,6.7941,6.9983,6.9302,6.8964,6.9308,7.094,7.1258,7.0367,7.1546,7.2201,7.2293,7.1616,7.1312,7.1312,7.1244,0.0,0.0,6.9011,6.8098,6.6711,6.6711,6.6237,6.5595,6.5595,6.5155,6.458,0.0,0.0,0.0,0.0,0.0,0.0,0.0,4.6786,4.9255,5.6731,5.6653,5.5279,5.3518,5.0121,4.605,0.0,0.0,0.0,0.0,0.0,0.0,0.0,0.0,0.0,0.0,0.0,0.0,0.0,0.0,0.0,0.0,0.0,0.0,0.0,0.0,0.0,0.0,4.7737,0.0,0.0,0.0,0.0,0.0,0.0,0.0,0.0,0.0,0.0,4.7309,0.0,0.0,0.0,5.3589,5.8539,0.0,0.0,7.4779,7.8694,8.0032,8.2197,8.3875,8.2742,7.77,7.1374,6.5448,0.0,5.1685,4.6936,4.4549,4.3329,4.3329,4.3868,4.5035,4.7279,4.8087,5.081,5.7573,0.0,0.0,0.0,0.0,0.0,0.0,0.0,0.0,0.0,0.0,0.0,6.9945,6.8906,6.8772,6.9604,6.9804,6.9727,6.917,7.095,7.1753,7.1553,7.2616,7.2834,7.2394,7.209,7.1718,7.1312,7.1312,0.0,0.0,6.9755,6.8842,6.7455,6.7455,6.7015,6.6373,6.6373,6.617,6.5865,0.0,0.0,0.0,0.0,0.0,4.1711,4.6515,4.6921,4.9492,5.734,5.7348,5.6224,5.5178,5.1851,4.7668,4.2529,0.0,0.0,0.0,0.0,0.0,0.0,0.0,0.0,0.0,0.0,0.0,4.4665,4.497,0.0,0.0,0.0,0.0,0.0,0.0,0.0,0.0,0.0,0.0,0.0,0.0,0.0,0.0,0.0,0.0,0.0,0.0,0.0,0.0,0.0,0.0,0.0,0.0,5.1349,5.6053,0.0,6.9879,7.4458,7.6432,7.9632,8.2045,8.1062,7.5845,6.9471,0.0,0.0,5.0432,4.6214,4.4257,4.3329,4.3329,4.3718,4.4317,4.5155,4.5633,4.7758,5.3144,5.4581,0.0,0.0,0.0,0.0,0.0,0.0,0.0,0.0,0.0,0.0,0.0,7.061,7.018,7.082,7.1112,7.1148,7.0745,7.1821,7.2529,7.2732,7.3003,7.2902,7.2394,7.2191,7.1785,7.1312,7.1312,0.0,0.0,7.0195,6.9417,6.8267,6.8267,6.7793,6.7151,6.7151,6.7015,6.6745,0.0,0.0,0.0,0.0,0.0,0.0,0.0,4.7564,5.0879,5.6122,5.7442,5.7339,5.597,5.1572,4.7795,4.5462,0.0,0.0,0.0,0.0,0.0,0.0,0.0,0.0,0.0,0.0,4.3658,4.4317,4.5292,4.5804,4.5742,0.0,0.0,0.0,0.0,0.0,0.0,0.0,0.0,0.0,0.0,0.0,4.7309,0.0,0.0,0.0,0.0,0.0,0.0,0.0,0.0,0.0,0.0,4.7818,4.9673,5.6286,6.3617,7.0255,7.288,7.5993,7.8474,7.8474,7.2662,6.5981,0.0,5.5478,4.9284,4.5992,4.4257,4.3329,4.3329,4.3329,4.3778,4.5095,4.6411,4.8656,5.2636,5.5418,0.0,0.0,0.0,0.0,0.0,0.0,0.0,0.0,0.0,0.0,0.0,7.2156,7.2359,7.4346,7.3895,7.3841,7.4499,7.4593,7.4221,7.3477,7.2766,7.2394,7.2394,7.165,7.1312,0.0,0.0,0.0,0.0,7.0195,6.9755,6.9079,6.9079,6.8605,6.7895,6.7895,6.7421,6.6812,0.0,0.0,0.0,0.0,0.0,0.0,0.0,4.4282,4.665,5.2909,5.3484,5.3528,5.4244,5.1334,4.8193,4.5552,0.0,0.0,0.0,0.0,0.0,0.0,0.0,0.0,0.0,0.0,4.3868,4.4975,4.5303,4.5677,4.6131,4.597,4.552,0.0,0.0,0.0,0.0,0.0,0.0,0.0,0.0,4.4885,4.5304,0.0,0.0,0.0,0.0,0.0,0.0,0.0,0.0,0.0,0.0,0.0,0.0,5.1199,5.6636,6.2202,6.4448,6.7031,6.891,6.7546,6.4081,6.0027,5.6496,5.2157,4.8087,4.5214,4.3928,4.3329,4.3329,4.297,4.3688,4.683,4.695,4.7848,5.1349,0.0,0.0,0.0,0.0,0.0,0.0,0.0,0.0,0.0,0.0,0.0,0.0,7.2604,7.2875,7.4516,7.4906,7.4134,7.2379,7.3816,7.3984,7.2732,7.3003,7.2868,7.2394,7.2157,7.1785,0.0,0.0,0.0,0.0,7.0973,7.0534,6.9789,6.9316,6.8605,6.7895,6.7895,6.7455,6.688,0.0,0.0,0.0,0.0,0.0,0.0,0.0,4.2658,4.4418,4.9187,4.9661,5.0159,5.1706,4.9256,4.7044,4.577,0.0,0.0,0.0,0.0,0.0,0.0,0.0,0.0,0.0,4.3,4.4347,4.6411,4.6681,4.713,4.7788,4.7608,4.6501,4.4676,4.4868,0.0,0.0,0.0,0.0,0.0,4.4407,4.4766,4.5424,0.0,0.0,0.0,0.0,0.0,0.0,0.0,0.0,0.0,0.0,0.0,0.0,0.0,5.1498,5.5448,5.8441,6.1164,6.2929,6.1972,5.9548,0.0,0.0,5.0451,4.7219,4.4796,4.3778,4.3329,4.3329,4.2791,4.3329,4.6292,4.6112,4.6711,5.0032,0.0,0.0,0.0,0.0,0.0,0.0,0.0,0.0,0.0,0.0,0.0,0.0,7.2956,7.3447,7.5836,7.583,7.482,7.2943,7.408,7.4018,7.28,7.3003,7.2699,7.1988,7.1988,7.1751,0.0,0.0,0.0,0.0,7.1312,7.1041,7.0567,7.0128,6.9282,6.8402,6.8673,6.8098,6.7201,0.0,0.0,0.0,0.0,0.0,0.0,0.0,0.0,0.0,4.5365,4.6244,4.7195,4.8509,4.6013,4.4692,4.592,0.0,0.0,0.0,0.0,0.0,0.0,0.0,0.0,0.0,4.303,4.4945,4.8207,4.8955,4.9703,5.0391,5.099,4.9224,4.5514,4.5394,4.4616,0.0,0.0,0.0,0.0,4.4556,4.5394,0.0,0.0,0.0,0.0,0.0,0.0,0.0,0.0,0.0,0.0,0.0,0.0,0.0,0.0,0.0,0.0,0.0,5.7363,5.9368,5.9937,5.7752,5.497,5.2995,0.0,0.0,4.4646,4.3748,4.3329,4.3389,4.2899,4.2929,4.4347,4.4638,4.5747,4.9015,0.0,0.0,0.0,0.0,0.0,0.0,0.0,0.0,0.0,0.0,0.0,0.0,7.3387,7.4244,7.7776,7.6487,7.5642,7.554,7.4864,7.4119,7.3341,7.2665,7.1954,7.1312,7.1312,7.1312,0.0,0.0,0.0,0.0,7.1312,7.1312,7.1312,7.1244,7.0398,6.9248,6.9925,6.9248,6.7791,0.0,0.0,0.0,0.0,0.0,0.0,0.0,0.0,0.0,0.0,4.5128,4.5557,4.4549,4.4787,4.4637,0.0,0.0,0.0,0.0,0.0,0.0,0.0,0.0,0.0,0.0,4.3269,4.4706,4.7549,4.9194,5.0601,5.1738,5.1887,5.0391,4.7549,4.6531,4.5065,0.0,0.0,0.0,0.0,4.4167,4.4287,0.0,0.0,0.0,0.0,4.5694,4.5633,0.0,0.0,0.0,0.0,0.0,0.0,0.0,0.0,4.7519,4.7997,4.9105,0.0,5.084,5.0002,4.9224,4.8237,0.0,0.0,0.0,0.0,0.0,0.0,0.0,0.0,4.4297,4.6971,4.7539,4.8529,5.1143,0.0,0.0,0.0,0.0,0.0,0.0,0.0,0.0,0.0,0.0,0.0,0.0,7.4723,7.5658,7.7164,7.6217,7.5168,7.4018,7.3849,7.3105,7.1819,7.165,7.1481,7.1312,7.1312,7.1312,0.0,0.0,0.0,7.1312,7.1312,7.1312,7.1244,7.0669,7.0229,6.9958,7.0128,6.962,6.891,0.0,0.0,0.0,0.0,0.0,0.0,0.0,0.0,0.0,0.0,0.0,0.0,0.0,0.0,0.0,0.0,0.0,0.0,0.0,0.0,0.0,0.0,0.0,4.1354,4.2432,4.3329,4.5394,4.8656,5.0002,5.1828,5.4012,5.3414,5.1708,4.9075,4.6232,4.4197,0.0,0.0,0.0,4.3359,4.3718,0.0,0.0,0.0,0.0,0.0,4.5203,4.4957,0.0,4.5109,4.5304,4.5514,0.0,0.0,0.0,0.0,4.7309,4.7309,4.7309,4.7549,4.7668,4.695,4.6561,4.6052,4.5005,0.0,0.0,0.0,0.0,0.0,0.0,0.0,0.0,4.6137,4.7401,4.9758,0.0,0.0,0.0,0.0,0.0,0.0,0.0,0.0,0.0,0.0,0.0,0.0,0.0,7.4561,7.5734,7.6893,7.5811,7.483,7.4018,7.3646,7.2935,7.1819,7.1819,7.165,7.1312,7.1312,7.1312,0.0,0.0,0.0,7.1312,7.1312,7.1312,7.1278,7.0872,7.05,7.0229,7.0567,7.0026,6.9059,0.0,0.0,0.0,0.0,0.0,0.0,0.0,0.0,0.0,0.0,0.0,0.0,0.0,0.0,0.0,0.0,0.0,0.0,0.0,0.0,0.0,0.0,0.0,4.1474,4.1953,4.3329,4.5963,4.9942,5.099,5.3054,5.6017,5.5388,5.3414,5.0182,4.5813,4.3359,0.0,0.0,4.2731,4.3329,4.3329,0.0,0.0,0.0,0.0,0.0,0.0,0.0,0.0,4.5031,4.5289,4.5394,4.6741,0.0,0.0,0.0,0.0,0.0,4.7549,4.7608,4.7489,4.7242,4.6725,4.6064,4.5372,0.0,0.0,0.0,0.0,0.0,0.0,0.0,0.0,0.0,0.0,0.0,0.0,0.0,0.0,0.0,0.0,0.0,0.0,0.0,0.0,0.0,0.0,0.0,0.0,7.3861,7.5305,7.6555,7.5168,7.439,7.4289,7.3646,7.2969,7.2225,7.2225,7.1921,7.1312,7.1312,7.1312,7.1312,0.0,0.0,7.1312,7.1312,7.1312,7.1312,7.1312,7.0939,7.0432,7.1075,7.0534,6.9242,0.0,0.0,0.0,0.0,0.0,0.0,0.0,0.0,0.0,0.0,0.0,0.0,0.0,0.0,0.0,0.0,0.0,0.0,0.0,0.0,0.0,4.2073,4.1085,4.1863,4.4646,4.3359,4.4616,4.8596,5.1468,5.3713,5.5388,5.7992,5.6286,5.09,4.7429,4.4885,4.315,4.2611,4.2731,4.3329,4.3329,0.0,0.0,0.0,0.0,0.0,0.0,0.0,0.0,4.5649,4.513,4.4706,4.6052,0.0,0.0,0.0,0.0,0.0,4.8656,4.8955,4.8681,4.716,4.6296,4.5618,4.5048,0.0,0.0,0.0,0.0,0.0,0.0,0.0,0.0,0.0,0.0,0.0,0.0,0.0,0.0,0.0,0.0,0.0,0.0,0.0,0.0,0.0,0.0,0.0,0.0,7.4367,7.5383,7.4965,7.4119,7.3375,7.2732,7.2631,7.2191,7.1481,7.1481,7.1413,7.1312,7.1312,7.1312,7.1312,0.0,7.1312,7.1312,7.1312,7.1312,7.1312,7.1312,7.1244,7.1142,7.1278,7.1176,7.076,0.0,0.0,0.0,0.0,0.0,0.0,0.0,0.0,0.0,0.0,0.0,0.0,0.0,0.0,0.0,0.0,0.0,0.0,0.0,0.0,0.0,4.4436,4.288,4.2851,4.4736,4.5274,4.7339,5.093,5.3174,5.5478,5.7812,5.7214,5.47,5.0541,4.686,4.4317,4.2791,4.2491,4.2521,4.2851,0.0,0.0,0.0,0.0,0.0,0.0,0.0,0.0,0.0,0.0,4.5105,4.4556,4.5903,0.0,0.0,0.0,0.0,0.0,4.707,4.713,4.7237,4.763,4.7862,4.7614,4.6671,0.0,0.0,0.0,0.0,0.0,0.0,0.0,0.0,0.0,0.0,0.0,0.0,0.0,0.0,0.0,0.0,0.0,0.0,0.0,0.0,0.0,0.0,0.0,0.0,0.0,7.4356,7.4018,7.3274,7.2732,7.2394,7.1988,7.165,7.1312,7.1312,7.1312,7.1312,7.1312,7.1312,7.1312,0.0,7.1312,7.1312,7.1312,7.1312,7.1312,7.1312,7.1312,7.1278,7.0872,7.0703,7.04,0.0,0.0,0.0,0.0,0.0,0.0,0.0,0.0,0.0,0.0,0.0,0.0,0.0,0.0,0.0,0.0,0.0,0.0,0.0,0.0,4.3419,4.5753,4.4526,4.4526,4.6142,4.7549,5.0122,5.3892,5.5538,5.8022,6.1164,5.7034,5.3623,5.075,4.677,4.4107,4.2581,4.2432,4.2462,4.2641,0.0,0.0,0.0,0.0,0.0,0.0,0.0,0.0,0.0,0.0,0.0,0.0,0.0,0.0,0.0,4.6022,4.6082,4.6022,4.5813,4.5753,4.616,4.7965,0.0,4.9037,4.8944,0.0,0.0,0.0,0.0,0.0,0.0,0.0,0.0,0.0,0.0,0.0,0.0,0.0,0.0,0.0,0.0,0.0,0.0,0.0,0.0,0.0,0.0,0.0,0.0,0.0,7.3138,7.2969,7.2428,7.2157,7.2157,7.1582,7.1312,7.1312,7.1312,7.1312,7.1312,7.1312,7.1312,7.1312,7.1312,7.1312,7.1312,7.1312,7.1312,7.1312,7.1312,7.1312,7.1244,7.0669,7.0466,7.0131,0.0,0.0,0.0,0.0,0.0,0.0,0.0,0.0,0.0,0.0,0.0,0.0,0.0,0.0,0.0,0.0,0.0,0.0,0.0,0.0,4.3,4.4407,4.4915,4.7189,5.1528,4.9434,5.081,5.5957,5.8501,6.1433,6.4575,5.9997,5.6107,5.2785,4.8835,4.5663,4.324,4.2611,4.2701,4.3269,4.3299,0.0,0.0,0.0,0.0,0.0,0.0,0.0,0.0,0.0,0.0,0.0,0.0,0.0,4.4586,4.5185,4.5364,4.5633,4.683,4.716,4.7189,4.7366,4.7159,0.0,5.1431,5.2324,0.0,0.0,0.0,0.0,0.0,0.0,0.0,0.0,0.0,0.0,0.0,0.0,0.0,0.0,0.0,0.0,0.0,0.0,0.0,0.0,0.0,0.0,0.0,0.0,0.0,7.1481,7.1413,7.1379,7.1379,7.1345,7.1312,7.1312,7.1312,7.1312,7.1312,7.1312,7.1312,7.1312,7.1312,7.1312,7.1312,7.1312,7.1312,7.1312,7.1312,7.1312,7.1312,7.1244,7.1244,7.103,0.0,0.0,0.0,0.0,0.0,0.0,0.0,0.0,0.0,0.0,0.0,0.0,0.0,0.0,0.0,0.0,0.0,0.0,0.0,4.1145,4.2701,4.4825,4.5155,4.707,5.09,5.2037,5.497,5.9847,6.2061,6.3169,6.3109,5.8471,5.4521,5.1199,4.7638,4.5274,4.3898,4.324,4.3329,4.3898,4.3509,4.3329,0.0,0.0,0.0,0.0,0.0,0.0,0.0,0.0,4.4899,4.3449,4.4107,4.4317,4.4377,4.4616,4.4676,4.4706,4.4796,4.5753,4.68,4.7219,0.0,0.0,0.0,0.0,0.0,0.0,0.0,0.0,0.0,0.0,0.0,0.0,0.0,0.0,0.0,0.0,0.0,0.0,0.0,0.0,0.0,0.0,0.0,0.0,0.0,0.0,0.0,0.0,0.0,7.1312,7.1312,7.1312,7.1312,7.1312,7.1312,7.1312,7.1312,7.1312,7.1312,7.1312,7.1312,7.1312,7.1312,7.1312,7.1312,7.1312,7.1312,7.1312,7.1312,7.1312,7.1312,7.1312,7.1312,7.1007,0.0,0.0,0.0,0.0,0.0,0.0,0.0,0.0,0.0,0.0,0.0,0.0,0.0,0.0,0.0,0.0,0.0,0.0,3.9709,4.0576,4.2162,4.4556,4.4885,4.6621,5.0152,5.3683,5.7363,6.1164,6.3767,6.3917,6.1702,5.7483,5.3952,5.102,4.7804,4.6086,4.5484,4.4569,4.4187,4.4257,4.3599,4.3329,0.0,0.0,0.0,0.0,0.0,0.0,0.0,0.0,4.4706,4.3419,4.3868,4.4018,4.4018,4.4018,4.4228,4.4267,4.3528,4.4559,4.604,0.0,0.0,0.0,0.0,0.0,0.0,0.0,0.0,0.0,0.0,0.0,0.0,0.0,0.0,0.0,0.0,0.0,0.0,0.0,0.0,0.0,0.0,0.0,0.0,0.0,0.0,0.0,0.0,0.0,0.0,0.0,7.1312,7.1312,7.1312,7.1312,7.1312,7.1312,7.1312,7.1312,7.1312,7.1312,7.1312,7.1312,7.1312,7.1312,7.1312,7.1312,7.1312,7.1312,7.1312,7.1312,7.1312,7.1312,7.1312,7.0916,0.0,0.0,0.0,0.0,0.0,0.0,0.0,0.0,0.0,0.0,0.0,0.0,0.0,0.0,0.0,0.0,0.0,0.0,4.0351,4.0397,4.1265,4.321,4.3958,4.6142,5.0092,5.4072,5.7124,5.9159,6.3079,6.3647,6.0984,5.7693,5.5059,5.3061,5.01,4.8607,4.8175,4.6585,4.5292,4.4257,4.3599,4.3329,4.3329,0.0,0.0,0.0,0.0,0.0,0.0,0.0,4.4159,4.3329,4.3329,4.3329,4.3329,4.3329,4.4004,4.4586,4.3566,4.4082,0.0,0.0,0.0,0.0,0.0,0.0,0.0,0.0,0.0,0.0,0.0,0.0,0.0,0.0,0.0,0.0,0.0,0.0,0.0,0.0,0.0,0.0,0.0,0.0,0.0,0.0,0.0,0.0,0.0,0.0,0.0,0.0,7.1312,7.1312,7.1312,7.1312,7.1312,7.1312,7.1312,7.1312,7.1312,7.1312,7.1312,7.1312,7.1312,7.1312,7.1312,7.1312,7.1312,7.1312,7.1312,7.1312,7.1312,7.1312,7.1312,7.0916,0.0,0.0,0.0,0.0,0.0,0.0,0.0,0.0,0.0,0.0,0.0,0.0,0.0,0.0,0.0,0.0,0.0,0.0,3.8402,3.9619,4.0666,4.1235,4.2791,4.4407,4.6022,5.0421,5.5927,6.254,6.2361,6.0685,5.7603,5.5688,5.2995,4.9824,5.0616,4.9733,4.7575,4.6973,4.6045,4.4945,4.4287,4.3748,4.3389,0.0,0.0,0.0,0.0,0.0,0.0,0.0,0.0,0.0,4.3329,4.4152,4.4894,4.3687,4.4386,4.5401,4.4557,4.5526,0.0,0.0,0.0,0.0,0.0,0.0,0.0,0.0,0.0,0.0,0.0,0.0,0.0,0.0,0.0,0.0,0.0,0.0,0.0,0.0,0.0,0.0,0.0,0.0,0.0,0.0,0.0,0.0,0.0,0.0,0.0,0.0,7.1312,7.1312,7.1312,7.1312,7.1312,7.1312,7.1312,7.1312,7.1312,7.1312,7.1312,7.1312,7.1312,7.1312,7.1312,7.1312,7.1312,7.1312,7.1312,7.1312,7.1312,7.1312,7.0666,6.9537,0.0,0.0,0.0,0.0,0.0,0.0,0.0,0.0,0.0,0.0,4.6752,0.0,0.0,0.0,0.0,0.0,0.0,0.0,0.0,3.9535,4.0247,4.0756,4.2192,4.4107,4.6621,4.9673,5.3862,5.9308,5.8949,5.7214,5.4221,5.4491,5.3435,5.1515,5.3375,5.2852,5.0415,4.9078,4.7252,4.5244,4.4586,4.4077,4.3748,0.0,0.0,0.0,0.0,0.0,0.0,0.0,0.0,0.0,4.3329,4.4043,4.4708,4.3908,4.4356,4.5091,4.4986,0.0,0.0,0.0,0.0,0.0,0.0,0.0,0.0,0.0,0.0,0.0,0.0,0.0,0.0,0.0,0.0,0.0,0.0,0.0,0.0,0.0,0.0,0.0,0.0,0.0,0.0,0.0,0.0,0.0,0.0,0.0,0.0,0.0,7.1312,7.1312,7.1312,7.1312,7.1312,7.1312,7.1312,7.1312,7.1312,7.1312,7.1312,7.1312,7.1312,7.1312,7.1312,7.1312,7.1312,7.1312,7.1312,7.1312,7.1312,7.1312,7.0791,6.9727,0.0,0.0,0.0,0.0,0.0,0.0,0.0,0.0,0.0,0.0,4.5669,4.5432,0.0,0.0,0.0,0.0,0.0,0.0,0.0,0.0,4.0214,4.1475,4.2359,4.5095,4.9942,5.0571,5.1139,5.1768,5.3713,5.3384,5.102,5.3811,5.5536,5.6061,5.7335,5.6902,5.4937,5.1927,4.8538,4.5155,4.4616,4.4398,4.4469,4.5448,0.0,0.0,0.0,0.0,0.0,0.0,0.0,0.0,4.3329,4.3438,4.3588,4.4077,4.4143,4.4229,0.0,0.0,0.0,0.0,0.0,0.0,0.0,0.0,0.0,0.0,0.0,0.0,0.0,0.0,0.0,0.0,0.0,0.0,0.0,0.0,0.0,0.0,0.0,0.0,0.0,0.0,0.0,0.0,0.0,0.0,0.0,0.0,0.0,7.1312,7.1312,7.1312,7.1312,7.1312,7.1278,7.121,7.121,7.1176,7.1109,7.1176,7.121,7.121,7.1278,7.1312,7.1312,7.1312,7.1312,7.1312,7.1312,7.1312,7.1312,7.1312,7.1222,7.0791,0.0,0.0,0.0,0.0,0.0,0.0,0.0,0.0,0.0,0.0,0.0,0.0,0.0,0.0,0.0,0.0,0.0,0.0,0.0,0.0,4.1576,4.2375,4.4871,4.701,4.8656,4.8327,4.8207,4.8356,4.9823,4.9972,4.8985,5.3254,5.5039,5.4902,5.8285,5.7533,5.359,5.0897,4.7746,4.4556,4.4915,4.4921,4.4849,4.602,4.6676,0.0,0.0,0.0,0.0,0.0,0.0,0.0,4.3329,4.4261,4.5141,4.3867,4.4447,4.568,0.0,0.0,0.0,0.0,0.0,0.0,0.0,0.0,0.0,0.0,0.0,0.0,0.0,0.0,0.0,0.0,0.0,0.0,0.0,0.0,0.0,0.0,0.0,0.0,0.0,0.0,0.0,0.0,0.0,0.0,0.0,0.0,0.0,7.1312,7.1312,7.1312,7.1312,7.1312,7.1007,0.0,7.0432,7.0128,6.9586,7.0161,7.0432,7.0466,7.1075,7.1312,7.1312,7.1312,7.1312,7.1312,7.1312,7.1312,7.1312,7.1312,7.0574,6.9537,0.0,0.0,0.0,0.0,0.0,0.0,0.0,0.0,0.0,0.0,0.0,0.0,0.0,0.0,0.0,0.0,0.0,0.0,0.0,0.0,4.3157,4.4827,4.6573,4.7654,4.8019,4.7684,4.6978,4.5873,4.6232,4.6966,4.8194,5.2286,5.497,5.6509,5.9217,5.8378,5.4677,5.198,4.9015,4.6191,4.6222,4.6313,4.6528,4.732,4.7599,4.7572,4.7572,0.0,0.0,0.0,0.0,0.0,0.0,0.0,4.4569,4.3968,4.3965,4.4678,0.0,0.0,0.0,0.0,0.0,0.0,0.0,0.0,0.0,0.0,0.0,0.0,0.0,0.0,0.0,0.0,0.0,0.0,0.0,0.0,0.0,0.0,0.0,0.0,0.0,0.0,0.0,0.0,0.0,0.0,0.0,7.1312,7.1312,7.1312,7.1312,7.1312,7.1312,7.0973,7.0567,7.0195,6.9823,6.9451,6.9113,6.9857,7.0398,7.0737,7.1142,7.1109,7.0804,7.1176,7.1109,7.0804,7.1176,7.1312,7.1278,7.0906,7.0344,6.9569,0.0,0.0,0.0,0.0,0.0,0.0,0.0,0.0,0.0,0.0,0.0,0.0,0.0,0.0,0.0,0.0,0.0,0.0,0.0,0.0,0.0,4.6697,4.7465,4.78,4.7681,4.7676,4.6548,4.4496,4.3718,4.505,4.8511,5.1684,5.5112,5.8639,5.9587,5.869,5.6095,5.2935,5.0141,4.7869,4.7381,4.759,4.8232,4.8482,4.8298,4.7933,4.8736,4.8386,4.7572,4.7572,0.0,0.0,0.0,0.0,4.3657,4.3988,4.3389,4.321,0.0,0.0,0.0,0.0,0.0,0.0,0.0,0.0,0.0,0.0,0.0,0.0,0.0,0.0,0.0,0.0,0.0,0.0,0.0,0.0,0.0,0.0,0.0,0.0,0.0,0.0,0.0,0.0,0.0,0.0,7.1188,7.1176,7.1176,7.1312,7.1312,7.1312,7.1312,7.0567,7.0128,6.9992,6.9113,6.8842,6.9113,6.9722,7.0331,7.0939,7.121,7.0804,7.006,7.0804,7.0669,7.006,7.0669,7.0939,7.0872,7.0229,6.9992,6.9803,0.0,0.0,0.0,0.0,0.0,0.0,0.0,0.0,0.0,0.0,4.3775,0.0,0.0,0.0,0.0,0.0,0.0,0.0,4.444,0.0,0.0,4.4679,4.6628,4.764,4.7387,4.7007,4.6303,4.5155,4.3928,0.0,0.0,0.0,5.5572,5.8621,5.8341,5.7272,5.5279,5.0994,4.8172,4.6493,4.6997,4.7367,4.7801,4.8394,4.8728,4.8861,4.8923,4.8386,4.7572,4.7572,4.69,0.0,0.0,0.0,4.4465,4.3657,4.3329,4.3688,0.0,0.0,0.0,0.0,0.0,0.0,0.0,0.0,0.0,0.0,0.0,0.0,0.0,0.0,0.0,0.0,0.0,0.0,0.0,0.0,0.0,0.0,0.0,0.0,0.0,0.0,0.0,0.0,0.0,0.0,7.1188,7.0703,7.0635,7.1312,7.1312,7.1312,7.1312,7.0567,6.9857,6.9214,6.7793,6.7827,6.9113,6.9214,6.9316,6.9451,7.077,7.0534,6.9316,7.0026,6.9891,6.9248,6.935,6.9383,6.9383,6.9282,6.9248,6.9248,0.0,0.0,0.0,0.0,0.0,0.0,0.0,0.0,0.0,0.0,0.0,4.5365,0.0,0.0,0.0,4.5196,4.4823,4.4756,4.5196,4.4805,4.5077,4.6293,4.6795,4.718,4.7435,4.6381,4.5547,4.5013,0.0,0.0,0.0,5.3455,5.6414,0.0,0.0,5.7628,5.5883,5.1865,4.9426,4.8398,4.8266,4.8795,4.9523,4.9055,4.9177,4.956,4.9154,4.8736,4.8353,4.8353,4.7737,4.6799,4.5921,0.0,0.0,0.0,0.0,0.0,0.0,0.0,0.0,0.0,0.0,0.0,0.0,0.0,0.0,0.0,0.0,0.0,0.0,0.0,0.0,0.0,0.0,0.0,0.0,0.0,0.0,0.0,0.0,0.0,0.0,0.0,0.0,0.0,0.0,6.8892,7.058,6.9992,6.9722,7.006,7.006,7.006,7.006,6.9316,6.8538,6.7827,6.7557,6.776,6.8436,6.8876,6.9316,6.9755,7.0398,6.9823,6.8504,6.9248,6.9113,6.847,6.891,6.9113,6.9045,6.8605,6.8436,6.8368,0.0,0.0,0.0,0.0,0.0,0.0,0.0,0.0,0.0,0.0,0.0,0.0,0.0,0.0,0.0,0.0,4.4891,4.4767,4.5076,4.4616,4.4995,4.6619,4.638,4.6454,4.6945,4.5859,4.5144,4.4903,0.0,0.0,5.3851,5.4325,5.7968,0.0,6.096,5.866,0.0,0.0,0.0,5.1116,4.9593,4.9661,5.0541,4.9424,4.9357,4.9729,4.9187,4.9018,4.9018,4.9018,4.8513,4.7803,4.6867,4.5921,0.0,0.0,0.0,0.0,0.0,0.0,0.0,0.0,0.0,0.0,0.0,0.0,0.0,0.0,0.0,0.0,0.0,0.0,0.0,0.0,0.0,0.0,0.0,0.0,0.0,0.0,0.0,0.0,0.0,0.0,0.0,0.0,0.0,6.8569,6.9891,6.9214,6.8876,6.9079,6.9113,6.9113,6.9113,6.8301,6.7523,6.6812,6.7354,6.7726,6.7929,6.8504,6.9113,6.962,6.9823,6.9045,6.7692,6.847,6.8335,6.7692,6.8267,6.8538,6.8436,6.7861,6.7624,6.7557,0.0,0.0,0.0,0.0,0.0,0.0,0.0,0.0,0.0,0.0,0.0,0.0,4.5771,4.5737,4.5432,4.4688,4.4587,4.427,4.3476,4.3953,4.4003,4.3297,4.4658,0.0,4.525,4.531,4.531,0.0,0.0,0.0,5.6327,5.6189,6.0619,6.8538,6.3463,5.9945,5.7645,0.0,0.0,0.0,5.0439,4.9052,4.912,4.9052,4.9018,4.9052,4.9018,0.0,4.9018,4.9018,4.8956,4.8798,0.0,0.0,0.0,0.0,0.0,0.0,0.0,0.0,0.0,0.0,0.0,0.0,0.0,0.0,0.0,0.0,0.0,0.0,0.0,0.0,0.0,0.0,0.0,0.0,0.0,0.0,0.0,0.0,0.0,0.0,0.0,0.0,0.0,0.0,0.0,6.8248,6.9113,6.8402,6.8301,6.9079,6.9113,6.9113,6.9113,6.8301,6.7523,6.6812,6.6846,6.7218,6.7895,6.7929,6.7996,6.8064,6.8842,6.8301,6.6914,6.7658,6.7523,6.688,6.6914,6.6948,6.6914,6.688,6.688,6.688,0.0,0.0,0.0,0.0,0.0,0.0,0.0,0.0,0.0,0.0,0.0,0.0,0.0,4.5974,4.5602,4.5331,4.4857,4.444,4.4121,4.439,4.4315,4.4045,4.4582,4.505,4.5479,4.4566,4.4683,0.0,0.0,4.7097,5.4344,5.4766,5.7997,6.326,6.1907,6.0858,5.9742,5.4329,0.0,0.0,0.0,0.0,4.9661,4.9187,0.0,0.0,0.0,0.0,0.0,0.0,0.0,0.0,0.0,0.0,0.0,0.0,0.0,0.0,0.0,0.0,0.0,0.0,0.0,0.0,0.0,0.0,0.0,0.0,0.0,0.0,0.0,0.0,0.0,0.0,0.0,0.0,0.0,0.0,0.0,0.0,0.0,0.0,0.0,0.0,0.0,0.0,0.0,6.803,6.8301,6.7624,6.7354,6.7624,6.7624,6.7624,6.7624,6.7354,6.7083,6.6812,6.6305,6.6474,6.7184,6.6203,6.6034,6.6474,6.6779,6.688,6.6846,6.7117,6.7049,6.6812,6.6812,6.6812,6.6812,6.6812,6.6812,6.6812,0.0,0.0,0.0,0.0,0.0,0.0,0.0,0.0,0.0,0.0,0.0,0.0,0.0,0.0,4.5872,4.5365,4.4857,4.4587,4.4587,4.4587,4.4688,4.4959,4.4722,4.5162,4.6413,4.4875,4.5069,0.0,0.0,0.0,0.0,5.3732,5.6263,6.0486,5.9742,6.0419,0.0,0.0,0.0,5.3585,0.0,0.0,5.0777,0.0,0.0,0.0,0.0,0.0,0.0,0.0,0.0,0.0,0.0,0.0,0.0,0.0,0.0,0.0,4.6523,0.0,0.0,0.0,0.0,0.0,0.0,0.0,0.0,0.0,0.0,0.0,0.0,0.0,0.0,0.0,0.0,0.0,0.0,0.0,0.0,0.0,0.0,0.0,0.0,0.0,0.0,0.0,0.0,0.0,6.7523,6.7083,6.6812,6.6812,6.6812,6.6812,6.6812,6.6812,6.6677,6.644,6.5933,6.5831,6.6034,6.5053,6.4884,6.5324,6.5324,6.573,6.644,6.6711,6.6812,6.6812,6.6812,6.6812,6.6812,6.6812,6.6812,6.6812,0.0,0.0,0.0,0.0,0.0,0.0,0.0,0.0,0.0,0.0,0.0,0.0,0.0,0.0,0.0,4.4823,4.4722,4.4688,4.4621,4.4621,4.4925,4.5669,4.4993,4.5635,4.7834,4.6481,4.6447,4.7936,0.0,0.0,0.0,0.0,5.5929,6.096,5.734,5.8558,6.3226,0.0,6.0182,5.8389,0.0,5.1014,5.2367,0.0,0.0,0.0,5.3551,5.2604,0.0,0.0,0.0,0.0,0.0,0.0,0.0,0.0,0.0,0.0,0.0,0.0,0.0,0.0,0.0,0.0,0.0,0.0,0.0,0.0,0.0,0.0,0.0,0.0,0.0,0.0,0.0,0.0,0.0,0.0,0.0,0.0,0.0,0.0,0.0,0.0,0.0,0.0,6.7252,6.6812,6.6812,6.6812,6.6812,6.6812,6.6812,6.6812,6.6779,6.6779,6.6406,6.5662,6.5628,6.5256,6.4613,6.4546,6.4546,6.458,6.458,6.4952,6.5662,6.644,6.6779,6.6779,6.6779,6.6779,6.6812,6.6812,6.6812,6.6812,0.0,0.0,0.0,0.0,0.0,0.0,0.0,0.0,0.0,0.0,0.0,0.0,0.0,4.8206,4.824,4.78,4.7767,4.709,4.55,4.5399,4.55,4.5703,4.55,4.594,4.709,4.6684,4.6955,4.7936,4.7087,4.8164,5.1048,5.1023,5.291,0.0,5.6494,5.7306,5.8423,5.4735,0.0,0.0,5.186,5.1657,0.0,0.0,0.0,0.0,0.0,5.4363,0.0,0.0,5.1826,5.1386,0.0,0.0,0.0,0.0,0.0,0.0,4.6913,0.0,0.0,0.0,0.0,0.0,4.9584,0.0,0.0,0.0,0.0,0.0,0.0,0.0,0.0,0.0,0.0,0.0,0.0,0.0,0.0,0.0,0.0,0.0,0.0,0.0,0.0,0.0,6.7557,6.6812,6.6812,6.6812,6.6812,6.6812,6.6812,6.6542,6.6,6.6,6.5628,6.4884,6.4377,6.4275,6.4546,6.3497,6.3294,6.3802,6.3802,6.3937,6.4174,6.4918,6.5527,6.6,6.6,6.6339,6.6812,6.6812,6.6812,6.6812,0.0,0.0,0.0,0.0,0.0,0.0,0.0,0.0,0.0,0.0,0.0,0.0,4.9255,5.0507,5.0811,4.956,4.9187,4.8342,4.6718,4.6346,4.6312,4.6616,4.6312,4.665,4.7699,4.7428,4.7631,4.8376,4.7936,4.8376,4.9627,4.9627,5.0744,5.2739,0.0,0.0,0.0,0.0,0.0,0.0,5.2841,0.0,0.0,5.5649,5.6494,0.0,0.0,0.0,5.7679,5.5243,5.3788,0.0,0.0,0.0,0.0,0.0,0.0,0.0,4.7661,4.7274,0.0,0.0,0.0,0.0,4.7424,4.7955,0.0,0.0,0.0,0.0,0.0,0.0,0.0,0.0,0.0,0.0,0.0,0.0,0.0,0.0,0.0,0.0,0.0,6.8293,6.788,6.8079,6.732,6.6812,6.6812,6.6812,6.6812,6.6812,6.6812,6.644,6.5696,6.5696,6.5155,6.414,6.3734,6.3565,6.3632,6.2787,6.2618,6.3057,6.3057,6.3057,6.3091,6.3497,6.4478,6.5696,6.5696,6.6136,6.6812,6.6812,6.6812,6.6812,0.0,0.0,0.0,0.0,0.0,0.0,0.0,0.0,0.0,0.0,5.1386,5.1319,5.2232,5.389,5.3856,5.1082,5.0033,4.9086,4.8105,4.7327,4.7225,4.7902,4.7259,4.7564,4.8984,4.8376,4.8342,4.9018,4.9018,4.9018,4.9018,4.9018,4.9357,4.9932,0.0,0.0,0.0,0.0,0.0,5.4228,5.4397,5.5953,0.0,0.0,6.1095,0.0,6.2516,6.2144,6.1129,5.7543,5.4702,0.0,0.0,0.0,0.0,0.0,4.8545,0.0,0.0,4.8578,4.9443,0.0,0.0,0.0,4.7263,4.5829,4.5125,0.0,0.0,0.0,0.0,0.0,0.0,0.0,0.0,0.0,0.0,0.0,0.0,0.0,0.0,0.0,6.8685,6.7345,6.649,6.6897,6.688,6.6812,6.6812,6.6745,6.6745,6.6812,6.6643,6.6237,6.5561,6.5493,6.4749,6.3396,6.3396,6.3024,6.2381,6.2381,6.2381,6.2381,6.2381,6.2381,6.2381,6.2381,6.3599,6.5459,6.5527,6.6034,6.6711,6.6779,6.6812,6.6812,5.0879,0.0,0.0,0.0,0.0,0.0,0.0,0.0,0.0,5.6258,5.6461,5.7137,5.9099,5.8084,5.6765,5.5615,5.3721,5.1522,4.8951,4.8105,4.7767,4.7902,4.7767,4.8105,4.8984,4.8849,4.8849,4.9018,4.9018,4.9018,4.9018,4.9018,4.9086,4.9221,0.0,0.0,0.0,0.0,0.0,5.1995,5.3213,0.0,5.9708,5.9979,6.1434,6.3294,6.3294,6.3565,6.3565,0.0,5.7915,5.4837,0.0,0.0,0.0,0.0,0.0,0.0,0.0,0.0,0.0,0.0,0.0,0.0,4.5877,4.519,4.5695,0.0,0.0,0.0,0.0,0.0,0.0,0.0,0.0,0.0,0.0,0.0,0.0,0.0,0.0,0.0,6.822,6.8416,6.8243,6.776,6.7151,6.6812,6.6812,6.6237,6.6203,6.6779,6.5662,6.4952,6.4816,6.4241,6.3497,6.2618,6.2618,6.2516,6.2381,6.2381,6.2381,6.2381,6.2381,6.2381,6.2381,6.2381,6.299,6.4005,6.458,6.5256,6.5967,6.6576,6.6812,6.6812,5.1691,0.0,0.0,0.0,0.0,0.0,0.0,5.7273,5.7611,5.9844,6.0791,6.1095,6.0757,6.0047,5.8693,5.6461,5.4566,5.2536,5.027,4.9424,4.8849,4.8477,4.8477,4.8815,4.9526,4.9187,4.9187,4.956,4.9187,4.9018,4.9018,4.9018,4.8612,4.7936,0.0,0.0,0.0,0.0,5.0879,5.1488,5.4499,0.0,6.0317,6.2178,6.4072,6.5696,6.5696,6.5459,6.4647,6.1298,5.9438,0.0,0.0,5.3213,5.2739,0.0,5.098,5.0033,0.0,0.0,0.0,4.9421,0.0,0.0,0.0,4.5457,4.521,0.0,0.0,0.0,0.0,0.0,0.0,0.0,0.0,0.0,0.0,0.0,0.0,0.0,0.0,0.0,6.7787,6.6817,6.6434,6.7302,6.7015,6.6643,6.6271,6.6237,6.6237,6.6237,6.5527,6.4952,6.4613,6.3869,6.3125,6.2381,6.2381,6.2381,6.2381,6.2381,6.2381,6.2381,6.2381,6.2381,6.2381,6.2381,6.2618,6.3024,6.3768,6.4715,6.573,6.6102,6.6474,6.6812,5.2063,0.0,0.0,0.0,0.0,0.0,5.9877,6.0114,6.0689,6.2381,6.4005,6.414,6.1839,0.0,0.0,5.8084,5.5175,5.3281,0.0,0.0,0.0,4.8815,4.8917,4.9154,4.9458,4.9154,4.9289,4.9864,4.9289,4.9018,4.9018,4.9018,0.0,0.0,0.0,0.0,0.0,0.0,0.0,5.2029,0.0,5.8524,5.9877,6.3632,6.5899,6.7117,6.7557,6.6914,6.529,6.14,0.0,6.0622,5.5446,5.4769,0.0,0.0,0.0,0.0,0.0,0.0,0.0,0.0,0.0,4.8892,0.0,0.0,0.0,0.0,0.0,0.0,0.0,0.0,0.0,0.0,0.0,0.0,0.0,0.0,0.0,0.0,0.0,0.0,0.0,6.4548,6.3883,6.6373,6.6203,6.5865,6.5696,6.6,6.6034,6.5696,6.529,6.485,6.441,6.3666,6.299,6.2381,6.2381,6.2381,6.2381,6.2381,6.2381,6.2381,6.2381,6.2381,6.2381,6.2381,6.2381,6.2448,6.3226,6.4309,6.5493,6.5628,6.617,6.6812,5.1217,5.257,0.0,0.0,5.6055,5.8389,5.9877,6.0114,6.0892,6.3091,6.5256,0.0,0.0,0.0,0.0,0.0,0.0,0.0,5.7915,0.0,0.0,4.8071,4.8646,4.8443,4.7192,4.8376,4.9052,4.912,4.9052,4.9018,4.9018,4.9018,0.0,0.0,4.7564,0.0,0.0,0.0,5.071,0.0,5.663,5.7611,0.0,6.1332,6.3294,6.4275,6.6237,6.6812,6.6406,0.0,6.3193,6.1907,0.0,5.8051,0.0,0.0,0.0,0.0,0.0,0.0,0.0,0.0,5.3194,0.0,0.0,0.0,0.0,0.0,0.0,0.0,0.0,0.0,0.0,0.0,0.0,0.0,0.0,0.0,0.0,0.0,0.0,0.0,0.0,6.3183,6.3424,6.5662,6.4005,6.37,6.5595,6.4546,6.4444,6.5662,6.3802,6.3057,6.3632,6.2888,6.2482,6.2381,6.2381,6.2381,6.2381,6.2381,6.2381,6.2381,6.2381,6.2381,6.2381,6.2381,6.2381,6.2448,6.3226,6.4005,6.4783,6.5459,6.617,6.6812,5.098,5.2063,0.0,0.0,5.5243,5.7408,5.9742,6.2685,6.4986,6.5933,6.7286,0.0,0.0,0.0,0.0,0.0,0.0,0.0,0.0,0.0,5.2466,0.0,0.0,0.0,4.9999,4.9763,4.9627,4.9627,4.9221,4.9018,4.9018,4.9018,4.8781,0.0,4.8173,0.0,4.9526,0.0,0.0,0.0,0.0,0.0,0.0,6.2381,6.5019,6.617,6.7117,6.7184,6.644,0.0,6.3463,0.0,0.0,0.0,0.0,0.0,0.0,0.0,0.0,0.0,0.0,0.0,0.0,0.0,0.0,0.0,4.9887,0.0,0.0,0.0,0.0,0.0,0.0,0.0,5.0717,0.0,0.0,0.0,0.0,0.0,0.0,0.0,0.0,0.0,0.0,0.0,6.2279,6.2178,6.3091,6.3396,6.3802,6.441,6.3531,6.3193,6.3531,6.2753,6.2381,6.2381,6.2381,6.2381,6.2381,6.2381,6.2381,6.2381,6.2381,6.2381,6.2381,6.2381,6.2381,6.2415,6.2753,6.3565,6.4647,6.4952,6.5797,6.6812,5.0067,0.0,0.0,0.0,0.0,0.0,5.9607,6.3497,0.0,0.0,0.0,0.0,7.0906,6.905,0.0,0.0,0.0,6.3228,0.0,0.0,5.5238,0.0,0.0,0.0,0.0,0.0,5.0304,5.0101,4.9357,4.912,4.9289,4.9086,4.8815,0.0,0.0,4.983,5.0371,0.0,0.0,5.4363,5.6731,5.822,5.9404,6.3531,6.6136,6.759,6.759,6.7252,6.644,6.4072,6.4005,0.0,6.2076,0.0,0.0,0.0,0.0,0.0,5.5886,0.0,0.0,0.0,0.0,0.0,0.0,0.0,0.0,0.0,0.0,0.0,0.0,0.0,0.0,0.0,0.0,5.0918,0.0,0.0,0.0,0.0,0.0,0.0,0.0,0.0,0.0,6.0622,5.9911,5.9911,6.0926,6.1806,6.255,6.3193,6.3193,6.3193,6.3193,6.2651,6.2381,6.2381,6.2381,6.2381,6.2381,6.2381,6.2381,6.2381,6.2381,6.2381,6.2381,6.2381,6.2516,6.2685,6.2685,6.3599,6.4884,6.4681,6.5527,6.6812,4.7868,4.9763,0.0,0.0,0.0,0.0,0.0,0.0,0.0,0.0,0.0,0.0,0.0,0.0,0.0,0.0,0.0,6.8224,7.0262,0.0,5.5412,0.0,0.0,0.0,0.0,0.0,0.0,5.0101,4.9357,4.9357,0.0,4.9323,4.9357,0.0,0.0,5.1961,5.345,5.4972,5.6833,5.8863,5.9674,6.1738,6.4309,0.0,6.4952,6.6846,6.6846,0.0,0.0,6.5865,6.5628,0.0,0.0,0.0,0.0,0.0,0.0,0.0,0.0,0.0,0.0,5.6596,0.0,0.0,0.0,0.0,5.3856,0.0,0.0,0.0,0.0,0.0,0.0,5.131,0.0,0.0,0.0,0.0,0.0,0.0,0.0,0.0,0.0,0.0,0.0,5.893,5.6427,5.6359,5.9945,5.9505,6.0182,6.2347,6.2415,6.2415,6.2415,6.2415,6.2381,6.2381,6.2381,6.2381,6.2381,6.2381,6.2381,6.2381,6.2381,6.2381,6.2381,6.2381,6.2821,6.3463,6.3463,6.4377,6.5561,6.485,6.5527,6.6812,0.0,0.0,0.0,0.0,0.0,0.0,0.0,6.1298,0.0,0.0,0.0,0.0,0.0,0.0,8.0159,0.0,0.0,7.559,7.3195,6.8024,0.0,0.0,0.0,5.822,0.0,0.0,0.0,0.0,0.0,0.0,0.0,0.0,0.0,0.0,0.0,5.2063,0.0,0.0,0.0,0.0,0.0,6.3835,6.6034,0.0,0.0,6.6136,6.6643,6.6508,0.0,6.6339,6.6102,6.5662,6.5392,6.4647,6.3599,6.2381,6.2178,0.0,0.0,0.0,6.1975,5.8727,0.0,0.0,0.0,0.0,0.0,0.0,0.0,0.0,0.0,0.0,5.4903,5.3581,5.3617,5.318,0.0,0.0,0.0,0.0,0.0,0.0,0.0,0.0,0.0,5.5277,5.3484,5.3551,5.6292,5.7611,5.9066,6.0825,6.1873,6.2381,6.2381,6.2381,6.2381,6.2381,6.2381,6.2381,6.2381,6.2381,6.2381,6.2381,6.2381,6.2381,6.2381,6.2381,6.255,6.2821,6.3328,6.4106,6.4986,6.5222,6.5967,6.6812,4.9756,0.0,0.0,0.0,0.0,0.0,0.0,0.0,0.0,0.0,7.4841,0.0,8.5088,0.0,8.5336,0.0,8.4967,8.1424,7.6362,7.3369,0.0,6.5914,6.4816,0.0,0.0,0.0,0.0,0.0,0.0,5.1894,0.0,0.0,0.0,0.0,0.0,0.0,0.0,0.0,5.9302,0.0,0.0,6.5155,0.0,0.0,6.6677,6.6508,0.0,6.6508,6.617,6.6643,6.6474,6.6102,6.6102,6.5392,6.4377,6.3159,6.3125,6.3193,6.1704,6.2381,0.0,6.0452,5.9844,0.0,5.6393,0.0,0.0,0.0,0.0,0.0,0.0,0.0,0.0,5.5446,5.4532,5.3281,0.0,5.1454,0.0,0.0,0.0,0.0,0.0,0.0,5.2198,5.1928,5.1217,5.1555,0.0,0.0,5.7509,5.9268,6.1061,6.211,6.2381,6.2381,6.2381,6.2381,6.2381,6.2381,6.2381,6.2381,6.2381,6.2381,6.2381,6.2381,6.2381,6.2381,6.255,6.2854,6.3599,6.4343,6.5053,6.5493,6.617,6.6812,0.0,0.0,0.0,0.0,5.3754,0.0,0.0,0.0,7.0802,0.0,7.8917,8.3389,8.7315,8.8696,8.9951,9.1433,8.9445,0.0,8.0092,7.7811,0.0,0.0,6.7743,6.6271,6.1951,0.0,0.0,0.0,0.0,0.0,0.0,0.0,0.0,0.0,5.5378,0.0,5.5953,6.1095,6.2956,6.2584,6.4783,6.5696,6.5831,6.6542,6.7252,6.7793,6.7015,6.6779,6.6779,6.6779,6.6779,6.6812,6.6812,6.5831,6.4546,6.3835,6.3632,6.3362,6.1941,6.2618,6.3328,6.1873,0.0,0.0,0.0,0.0,6.0622,0.0,0.0,0.0,0.0,0.0,0.0,5.6697,5.5446,5.3721,5.1589,0.0,0.0,0.0,0.0,0.0,0.0,5.1826,5.1285,4.9221,4.9627,5.0304,0.0,0.0,5.5615,5.778,6.008,6.1637,6.2381,6.2381,6.2381,6.2381,6.2381,6.2381,6.2381,6.2381,6.2381,6.2381,6.2381,6.2381,6.2381,6.2381,6.2821,6.3531,6.4275,6.5019,6.5696,6.573,6.6203,6.6812,5.2263,5.2743,5.3687,0.0,5.4296,5.5995,0.0,0.0,0.0,0.0,8.1802,8.5694,9.2671,9.2971,9.3191,9.4312,9.2171,0.0,0.0,0.0,0.0,7.7879,7.573,7.3118,7.0142,6.6971,0.0,5.9573,0.0,0.0,5.4803,0.0,0.0,0.0,0.0,0.0,5.4329,5.8423,6.1028,6.2584,6.4783,6.6034,0.0,0.0,6.7252,6.7726,6.644,6.5967,6.5967,6.5967,6.6339,6.6812,6.6812,6.6542,6.6102,6.5358,6.5527,6.5899,6.5493,6.5662,6.573,6.4783,6.3768,6.2516,0.0,0.0,0.0,0.0,0.0,0.0,0.0,0.0,0.0,5.5344,5.389,5.2706,0.0,0.0,0.0,5.2063,0.0,0.0,5.2841,5.1048,4.983,4.983,4.8984,4.8815,4.9526,0.0,0.0,5.7036,5.9844,6.1637,6.2381,6.2381,6.2381,6.2381,6.2381,6.2381,6.2381,6.2381,6.2381,6.2381,6.2381,6.2381,6.2381,6.2381,6.2516,6.2753,6.3497,6.458,6.5764,6.6305,6.6643,6.6812,5.4408,0.0,0.0,5.8017,0.0,0.0,6.5252,0.0,0.0,8.0874,8.4358,0.0,9.2789,9.4441,9.5216,9.5167,9.412,0.0,0.0,0.0,0.0,8.2453,8.0248,7.7732,7.4608,7.0766,0.0,6.2279,0.0,0.0,5.5683,0.0,0.0,0.0,0.0,5.504,0.0,5.893,6.1772,6.3937,6.5189,0.0,0.0,6.6677,6.7083,6.7286,6.6102,6.5899,6.617,6.617,6.6474,6.6812,6.6812,6.6812,6.6745,6.6305,6.6474,6.6812,6.6812,6.7049,6.7117,6.6373,6.5797,6.4952,6.3159,6.37,6.3937,0.0,0.0,0.0,0.0,0.0,0.0,0.0,0.0,0.0,0.0,0.0,0.0,0.0,5.2232,0.0,5.3416,5.0473,4.8815,4.956,4.8849,4.8578,0.0,0.0,0.0,5.5818,5.9404,6.1501,6.1907,6.2888,6.3024,6.2381,6.2381,6.2381,6.2381,6.2381,6.2381,6.2381,6.2381,6.2381,6.2381,6.2381,6.2381,6.2448,6.3226,6.441,6.573,6.617,6.6542,6.6812,0.0,0.0,0.0,0.0,0.0,0.0,0.0,7.3275,0.0,8.2432,0.0,9.0305,9.1473,9.4662,9.6319,9.5278,0.0,9.3478,8.854,9.0107,8.9008,8.4195,8.2979,8.0907,7.7503,7.3774,0.0,0.0,0.0,0.0,5.5788,5.4262,0.0,0.0,0.0,0.0,0.0,6.025,6.2888,6.485,6.5256,6.5392,6.5493,6.644,6.6745,6.6576,6.6034,6.6271,6.6812,6.6711,6.6745,6.6812,6.6812,6.6812,6.6812,6.6812,6.6812,6.6846,6.6914,6.7354,6.7624,6.7083,6.7354,6.7252,6.5324,6.4884,6.4512,6.3226,6.2313,6.1467,0.0,0.0,0.0,0.0,0.0,0.0,0.0,0.0,0.0,0.0,0.0,0.0,5.3484,5.0371,4.8612,4.9255,4.9289,4.9221,4.9018,0.0,0.0,5.4566,5.866,6.1095,6.1603,0.0,6.3768,6.2685,6.2482,6.2381,6.2381,6.2381,6.2381,6.2381,6.2381,6.2381,6.2381,6.2381,6.2381,6.2448,6.3125,6.4275,6.5527,6.5425,6.6,6.6812,0.0,0.0,0.0,0.0,0.0,7.3928,7.8099,8.0268,8.318,8.8399,9.1487,0.0,9.6343,9.6878,9.7137,9.7362,9.6504,0.0,0.0,0.0,0.0,9.0648,8.7193,8.4464,8.2948,7.6914,7.2096,0.0,0.0,0.0,5.6598,5.4464,0.0,0.0,0.0,0.0,5.5987,5.7239,0.0,6.0385,6.2888,6.3903,6.4106,6.6068,6.644,6.5967,6.644,6.6711,6.6711,6.6102,6.6305,6.6812,6.6812,6.6812,6.6812,6.6812,6.6812,6.6948,6.7557,6.7354,6.7117,6.759,6.7354,6.6914,6.6508,6.6406,6.6339,6.6102,6.4952,6.3599,6.2245,0.0,0.0,0.0,0.0,0.0,0.0,0.0,0.0,0.0,0.0,5.142,0.0,5.1758,5.071,5.0811,5.0811,5.0304,4.9052,0.0,0.0,0.0,5.7103,0.0,0.0,0.0,6.326,6.4208,6.2956,6.2381,6.2381,6.2381,6.2381,6.2381,6.2381,6.2381,6.2381,6.2381,6.2381,6.2415,6.2516,6.3497,6.4715,6.4106,6.5121,6.6812,0.0,0.0,0.0,0.0,0.0,0.0,0.0,8.7358,0.0,8.9898,9.0863,9.216,9.3929,9.5778,9.6732,9.6368,9.6332,9.5685,9.4228,9.3193,9.261,9.2764,8.9374,0.0,8.55,7.9425,7.4472,7.0804,0.0,0.0,5.6824,5.4088,0.0,5.2367,0.0,5.5074,0.0,0.0,0.0,6.0419,6.3024,6.3869,6.3768,6.5967,6.6339,6.5797,6.6542,6.6812,6.6779,6.6406,6.6508,6.6812,6.6812,6.6812,6.6812,6.6812,6.6812,6.688,6.7252,6.7354,6.7354,6.7354,6.7354,6.7286,6.6914,6.6812,6.6711,6.6305,6.5662,6.4478,6.2245,5.8795,0.0,0.0,0.0,0.0,0.0,0.0,0.0,0.0,0.0,0.0,0.0,0.0,0.0,0.0,0.0,5.0744,4.9627,0.0,0.0,0.0,0.0,0.0,0.0,0.0,0.0,6.3429,6.2719,6.2381,6.2415,6.2787,6.2956,6.2956,6.2956,6.2956,6.2956,6.255,6.2381,6.2381,6.2381,6.3057,6.4005,6.3632,6.4681,6.6237,0.0,7.1154,0.0,0.0,8.0512,0.0,0.0,9.253,9.441,9.1363,9.1027,9.1348,9.206,9.518,9.6777,9.5555,9.6399,9.6228,9.4395,9.428,9.4006,9.3382,9.0689,8.845,8.671,8.1454,7.637,0.0,0.0,0.0,0.0,5.3935,5.253,0.0,0.0,0.0,0.0,0.0,5.8863,6.1028,6.3429,6.3937,6.3531,6.5899,6.6237,6.5561,6.6474,6.6812,6.6812,6.6812,6.6812,6.6812,6.6812,6.6812,6.6812,6.6812,6.6812,6.6812,6.6812,6.7218,6.7523,6.6948,6.7252,6.7523,6.6948,6.6812,6.6643,6.6034,6.5797,6.485,6.2042,5.9471,0.0,0.0,0.0,0.0,0.0,0.0,0.0,0.0,0.0,0.0,5.271,0.0,0.0,0.0,0.0,5.1116,5.0371,5.1454,5.2131,0.0,0.0,5.8017,5.9235,0.0,6.2922,6.2618,6.2448,6.2482,6.2651,6.326,6.3599,6.3734,6.3734,6.3666,6.3463,6.2854,6.2516,6.2381,6.2381,6.2956,6.37,6.3396,6.441,6.5865,0.0,0.0,0.0,0.0,0.0,0.0,0.0,9.3271,9.5621,9.5988,9.6608,9.7122,9.7199,9.8227,9.8479,9.7667,9.7672,9.7419,9.6458,9.5068,9.4263,9.4189,9.1804,8.9348,8.7002,8.2861,7.7265,0.0,0.0,0.0,0.0,0.0,0.0,0.0,0.0,0.0,0.0,5.575,5.7814,5.9471,6.2448,6.3159,6.2821,6.5696,6.5933,6.4884,6.6305,6.6812,6.6812,6.6812,6.6812,6.6812,6.6812,6.6812,6.6812,6.6812,6.6812,6.6812,6.6812,6.688,6.6914,6.6846,6.688,6.688,6.6846,6.6812,6.6779,6.6711,6.617,6.4986,6.2719,6.1501,5.9776,0.0,0.0,0.0,0.0,0.0,0.0,0.0,0.0,0.0,0.0,5.2753,0.0,0.0,5.1488,5.1894,5.115,5.1251,5.1623,5.2266,0.0,5.7239,5.9979,6.0994,6.2144,6.3396,6.2719,6.2753,6.3429,6.3497,6.3869,6.4512,6.4512,6.414,6.3497,6.3429,6.299,6.2381,6.2381,6.326,6.4343,6.299,6.4275,6.6508,0.0,0.0,0.0,0.0,0.0,0.0,0.0,9.5401,9.6355,9.6649,9.6979,9.7163,9.7163,9.7456,9.753,9.7199,9.7163,9.7052,9.6722,9.518,9.4299,9.4299,9.2391,9.0408,8.85,8.4499,7.9837,0.0,0.0,0.0,0.0,0.0,0.0,0.0,0.0,5.2976,5.4465,5.6089,5.7915,5.9911,6.2482,6.3057,6.2651,6.5189,6.5493,6.4783,6.6271,6.6812,6.6812,6.6812,6.6812,6.6812,6.6812,6.6812,6.6812,6.6812,6.6812,6.6812,6.6812,6.6812,6.6812,6.6812,6.6812,6.6812,6.6812,6.6812,6.6812,6.6812,6.6576,6.5967,6.4613,6.3024,6.1332,0.0,0.0,0.0,0.0,0.0,0.0,0.0,0.0,0.0,0.0,0.0,0.0,0.0,0.0,5.2503,5.1285,5.1217,5.1555,5.2266,0.0,5.5581,5.8084,5.9742,6.1129,6.2178,6.2313,6.255,6.2854,6.3768,6.4546,6.5256,6.5256,6.485,6.4174,6.4174,6.4005,6.37,6.37,6.4072,6.4546,6.3937,6.4749,6.6068,8.6261,0.0,8.7031,0.0,9.2024,9.2721,9.6171,9.6685,9.6685,9.6685,9.6685,9.6685,9.6685,9.6906,9.6942,9.6722,9.6685,9.6612,9.6355,9.507,9.4189,9.3969,9.2574,0.0,8.9087,8.582,8.1746,7.6974,7.1112,0.0,0.0,0.0,0.0,0.0,5.3338,5.4228,5.6122,5.7273,5.8829,6.0622,6.2685,6.3193,6.2922,6.4918,6.5358,6.5087,6.6373,6.6812,6.6812,6.6812,6.6812,6.6812,6.6812,6.6812,6.6812,6.6812,6.6812,6.6812,6.6812,6.6981,6.7117,6.7117,6.7117,6.7117,6.7117,6.7117,6.7117,6.7117,6.6948,6.6576,6.5831,6.4241,6.2584,6.1163,0.0,0.0,0.0,0.0,0.0,0.0,5.3571,5.2351,5.0701,5.1281,0.0,0.0,0.0,0.0,5.16,5.1312,0.0,0.0,0.0,0.0,0.0,5.8896,6.0385,6.096,6.2144,6.2719,6.2753,6.4241,6.5324,6.6,6.6,6.5595,6.4918,6.4918,6.4783,6.4613,6.4613,6.4715,6.4884,6.4681,6.5189,6.6,8.7692,8.9454,9.1326,9.3822,9.5584,9.6649,9.6685,9.6685,9.6685,9.6685,9.6685,9.6685,9.6685,9.7419,9.7566,9.6759,9.6685,9.6355,9.5584,9.474,9.3932,0.0,0.0,9.0665,8.828,8.6591,8.259,7.613,0.0,0.0,6.2815,0.0,5.7617,5.6987,5.76,5.7408,5.6934,5.9133,6.052,6.1434,6.2922,6.3497,6.3666,6.5121,6.5662,6.5764,6.6542,6.6812,6.6812,6.6812,6.6812,6.6812,6.6812,6.6812,6.6812,6.6812,6.6812,6.6812,6.6812,6.7354,6.7895,6.7895,6.7895,6.7895,6.7895,6.7895,6.7895,6.7895,6.732,6.6576,6.5831,6.5087,6.3599,6.0588,0.0,0.0,0.0,0.0,0.0,0.0,5.6492,5.5811,5.051,5.2095,0.0,0.0,0.0,0.0,0.0,0.0,0.0,5.1217,5.3416,0.0,5.5716,5.8626,6.0114,6.0148,6.2415,6.3497,6.3565,6.5019,6.6102,6.6812,6.6812,6.6373,6.5662,6.5662,6.5256,6.4613,6.4613,6.5053,6.5595,6.4884,6.5527,6.6677,9.2684,9.3161,9.3529,9.4887,9.5988,9.6539,9.5988,9.6355,9.6685,9.6685,9.6685,9.6685,9.6685,9.6942,9.6979,0.0,9.6208,9.5768,0.0,9.4226,9.3382,9.3125,9.2281,9.0922,8.9087,8.7435,8.4535,8.0241,0.0,0.0,0.0,6.3221,6.1483,6.0129,6.0323,6.0241,5.9945,6.1163,6.211,6.2854,6.3328,6.3802,6.4377,6.5324,6.5696,6.5865,6.7083,6.7252,6.688,6.7387,6.7218,6.6914,6.7387,6.7218,6.6914,6.7421,6.7557,6.7658,6.8233,6.8538,6.8707,6.8707,6.8707,6.8571,6.803,6.7523,6.7286,6.7793,6.732,6.6576,6.5831,6.5087,6.3599,6.0588,5.9511,0.0,0.0,0.0,0.0,0.0,5.3775,5.3023,0.0,5.1307,0.0,0.0,0.0,0.0,0.0,0.0,0.0,0.0,5.3653,0.0,5.5716,5.8626,6.0114,6.0114,6.1907,6.3294,6.4275,6.5256,6.6102,6.6812,6.6812,6.6677,6.644,6.644,6.6305,6.6102,6.6102,6.6237,6.644,6.6203,6.6406,6.6779,9.4703,9.4887,9.4813,9.5034,9.5951,9.6428,9.5621,9.6171,9.6685,9.6685,9.6685,9.6685,9.6685,9.6685,0.0,9.6685,9.5951,9.5364,9.507,9.3822,9.2941,9.2648,9.2097,9.1069,8.9454,0.0,0.0,8.3104,7.8405,7.3891,6.9633,6.6993,6.5224,6.4119,6.3444,6.2897,6.2584,6.3024,6.3497,6.3937,6.3937,6.4343,6.5087,6.5831,6.6271,6.6677,6.7895,6.8064,6.7726,6.8199,6.8064,6.776,6.8199,6.803,6.776,6.8233,6.8335,6.847,6.8977,6.9316,6.9519,6.9519,6.9519,6.9383,6.8876,6.7963,6.7455,6.8199,6.7523,6.6576,6.5831,6.4884,6.3294,6.0554,5.9042,5.7335,5.5036,0.0,0.0,0.0,0.0,0.0,0.0,5.1585,5.1528,0.0,0.0,0.0,0.0,0.0,0.0,5.23,5.3788,0.0,5.6528,5.8896,6.025,6.0554,6.1806,6.3328,6.5019,6.5189,6.5831,6.6812,6.6812,6.6812,6.6812,6.6812,6.6812,6.6812,6.6812,6.6812,6.6812,6.6812,6.6812,6.6812,9.4299,9.5034,0.0,0.0,9.5621,0.0,9.5547,9.6171,9.6685,9.6685,9.6685,9.6685,9.6685,9.6685,9.6685,9.6685,0.0,0.0,0.0,9.3492,9.2648,9.184,9.1803,9.1069,8.9528,8.872,8.7068,8.4535,7.9103,7.5983,7.4969,7.0949,6.9031,6.8822,6.7005,6.5623,6.483,6.4749,6.4715,6.4681,6.4681,6.5155,6.5933,6.6643,6.7354,6.8098,6.8876,6.9147,6.9113,6.9147,6.9147,6.9113,6.9147,6.918,6.918,6.918,6.918,6.918,6.9248,6.9755,7.0263,7.0263,7.0229,7.0195,7.0263,6.9079,6.8199,6.8944,6.7929,6.6643,6.5764,6.4478,6.2719,6.0317,5.8117,5.5904,5.3535,0.0,0.0,0.0,0.0,0.0,0.0,5.2758,5.1475,0.0,0.0,0.0,0.0,0.0,5.2435,5.2367,5.3856,5.5683,5.7881,5.937,6.052,6.14,6.211,6.3565,6.5595,6.4952,6.5459,6.6812,6.6812,6.6812,6.6812,6.6812,6.6812,6.6812,6.6812,6.6812,6.6812,6.6812,6.6812,6.6812,0.0,0.0,9.5254,9.4446,9.5621,9.6208,9.4813,9.5804,9.6685,9.6685,9.6685,9.6685,9.6685,9.6685,9.6685,9.6685,9.5401,9.4483,9.4299,9.2905,9.2024,9.1803,9.1803,9.1326,9.0335,8.9528,8.7362,8.3691,8.1122,7.8772,7.6717,7.5066,7.3615,7.231,7.1014,6.938,6.7394,6.665,6.5967,6.5425,6.5425,6.6203,6.7387,6.7557,6.8132,6.891,6.9654,6.9586,6.918,6.9755,6.9553,6.9214,6.9755,6.9925,6.9925,6.9925,6.9925,7.006,7.0635,7.0906,7.1041,7.1041,7.0601,7.0331,7.0906,6.9891,6.8876,6.9079,6.8335,6.7083,6.5189,6.4106,6.2415,5.8964,5.7423,5.5883,5.3576,5.3255,0.0,0.0,5.4289,5.4576,5.4993,5.3383,5.2555,0.0,0.0,0.0,0.0,5.3112,5.3788,5.3247,5.4668,5.6224,5.7881,5.937,6.0791,6.2144,6.2888,6.3802,6.4884,6.5256,6.5933,6.6812,6.6812,6.6812,6.6812,6.6812,6.6812,6.6812,6.6812,6.6812,6.6812,6.6812,6.6812,6.6812,9.6392,9.6355,9.5804,9.4997,9.5878,9.6282,9.5034,9.5914,9.6685,9.6685,9.6685,9.6685,9.6685,9.6685,9.6539,9.6171,9.5034,9.4299,9.4299,9.2721,9.1803,9.1803,9.1803,9.1436,9.0629,8.9821,8.7619,8.3948,8.27,8.0865,7.8405,7.7148,7.5604,7.3982,7.254,7.0923,6.9263,6.83,6.7421,6.6795,6.7598,6.7925,6.8048,6.9202,6.9578,6.9688,7.0432,7.0466,7.0161,7.0567,7.0432,7.0195,7.0567,7.0703,7.0703,7.0703,7.0703,7.0804,7.121,7.1312,7.1312,7.1312,7.1007,7.0804,7.121,7.0432,6.9519,6.918,6.847,6.7218,6.5019,6.3734,6.1772,5.8017,5.672,5.5235,5.2607,5.2785,0.0,5.3812,5.4179,5.4876,5.6014,5.4773,5.4046,5.4485,5.3454,0.0,5.2841,5.3957,5.4397,5.4025,5.575,5.7408,5.8896,6.0385,6.1569,6.2415,6.3159,6.3903,6.4613,6.5358,6.6102,6.6812,6.6812,6.6812,6.6812,6.6812,6.6812,6.6812,6.6812,6.6812,6.6812,6.6812,6.6812,6.6812,9.6392,9.6685,9.6465,9.5658,9.6171,9.6428,9.5621,9.6171,9.6685,9.6685,9.6685,9.6649,9.6539,9.6649,9.6318,9.5401,9.4703,9.4226,9.4116,9.2648,9.1803,9.1803,9.1803,9.1473,9.0812,8.9895,8.7839,8.4609,8.3801,8.215,7.9764,7.8062,7.6492,7.4983,7.2977,7.1653,7.0923,6.9782,6.8808,6.8217,6.9899,6.9783,6.8676,7.0877,7.1248,7.0663,7.1164,7.1312,7.1312,7.1312,7.1312,7.1312,7.1312,7.1312,7.1312,7.1312,7.1312,7.1312,7.1312,7.1312,7.1312,7.1312,7.1312,7.1312,7.1312,7.0804,7.0161,6.9417,6.8639,6.7387,6.5189,6.3362,6.1061,5.7543,5.5958,5.4282,5.1688,0.0,5.3335,5.3702,5.4436,5.5574,5.7189,5.6588,5.5826,5.5198,5.4919,5.4471,5.389,5.4634,5.5074,5.5074,5.69,5.866,6.0283,6.167,6.2448,6.255,6.3193,6.3937,6.4783,6.5392,6.6102,6.6812,6.6812,6.6812,6.6812,6.6812,6.6812,6.6812,6.6812,6.6812,6.6812,6.6812,6.6812,6.6812,9.6539,9.6685,9.6465,9.5658,9.6171,9.6428,9.5621,9.6171,9.6685,9.6685,9.6685,9.6428,9.5768,9.6282,9.6098,9.463,9.4373,9.4006,9.3345,9.2354,9.1803,9.1803,9.1803,9.173,9.162,9.0188,8.7839,8.4609,8.3801,8.215,7.9764,7.8793,7.7851,7.6836,7.4797,7.3482,7.2665,7.0839,6.9586,6.8996,7.014,7.0776,7.1132,7.1538,7.2022,7.2276,7.1566,7.1312,7.1312,7.1312,7.1312,7.1312,7.1312,7.1312,7.1312,7.1312,7.1312,7.1312,7.1312,7.1312,7.1312,7.1312,7.1312,7.1312,7.1312,7.121,7.0939,7.0161,6.9417,6.8233,6.5933,6.3294,6.0655,5.8118,5.5403,5.3399,5.2995,0.0,5.3959,5.6014,5.6969,5.807,5.9685,5.8601,5.7747,5.7552,5.6353,5.5568,5.5414,5.6664,5.7374,5.7374,5.7712,5.893,6.1095,6.1975,6.2719,6.3328,6.3463,6.4208,6.5527,6.5628,6.6102,6.6812,6.6812,6.6812,6.6812,6.6812,6.6812,6.6812,6.6812,6.6812,6.6812,6.6812,6.6812,6.6812,9.6465,9.6685,9.6575,9.6208,9.6465,9.6575,9.6208,9.6465,9.6539,9.6098,9.6061,9.5768,9.4923,9.518,9.4923,9.3749,9.3639,9.3308,9.2464,9.2024,9.1803,9.1803,9.1803,9.1583,9.1179,9.0005,8.828,8.5894,8.4646,8.303,8.1048,7.9837,7.8809,7.7903,7.5934,7.4652,7.3704,7.2195,7.1182,7.0614,7.2066,7.2528,7.2606,7.3562,7.3491,7.2714,7.2279,7.1776,7.1312,7.1312,7.1688,7.1969,7.1457,7.1688,7.1969,7.1457,7.1312,7.1312,7.1312,7.1312,7.1312,7.1312,7.1312,7.1312,7.1312,7.1312,7.1109,7.0331,6.962,6.8402,6.6102,6.3294,6.0689,5.8795,5.5572,0.0,0.0,5.4187,5.4811,5.718,5.8547,5.9905,6.1557,6.109,6.0663,6.0705,5.9168,5.8288,5.8187,5.8375,5.8863,5.9708,5.9742,6.0419,6.1873,6.2212,6.2753,6.3531,6.3903,6.4647,6.5696,6.6102,6.6474,6.6812,6.6812,6.6812,6.6812,6.6812,6.6812,6.6812,6.6812,6.6812,6.6812,6.6812,6.6812,6.6812,9.6171,9.6575,9.6685,9.6685,9.6685,9.6685,9.6685,9.6685,9.6502,9.5878,9.5621,9.518,9.4373,9.4299,9.3896,9.2905,9.2978,9.2721,9.184,9.1803,9.1803,9.1803,9.1803,9.1326,9.0335,8.9748,8.8536,8.6738,8.5306,8.3765,8.215,8.0718,7.9543,7.849,7.6808,7.5513,7.461,7.3571,7.2858,7.245,7.4022,7.4328,7.3938,7.5258,7.483,7.3412,7.2962,7.2279,7.1688,7.1688,7.1969,7.2364,7.183,7.1969,7.2279,7.1546,7.1312,7.1312,7.1312,7.1312,7.1312,7.1312,7.1312,7.1312,7.1312,7.1312,7.1142,7.0567,6.9857,6.8707,6.6576,6.3802,6.1264,5.9539,0.0,0.0,0.0,5.5866,5.6563,5.882,6.0382,6.1814,6.3246,6.3392,6.3356,6.3161,6.195,6.1149,6.0971,6.0284,6.0408,6.1772,6.1637,6.1907,6.2651,6.2651,6.3125,6.4038,6.458,6.5222,6.5967,6.6542,6.6812,6.6812,6.6812,6.6812,6.6812,6.6812,6.6812,6.6812,6.6812,6.6812,6.6812,6.6812,6.6812,6.6812,9.5584,9.6208,9.6685,9.6685,9.6685,9.6685,9.6685,9.6685,9.6685,9.6612,9.5951,9.518,9.4373,9.4299,9.3639,9.2024,9.2648,9.2721,9.184,9.1803,9.1803,9.1803,9.1803,9.1069,8.9528,8.9454,8.8243,8.5894,8.5013,8.3765,8.2186,8.1305,8.0094,7.8526,7.7389,7.6473,7.5649,7.461,7.4123,7.4163,7.5263,7.5682,7.5646,7.5787,7.5718,7.5334,7.3492,7.2714,7.2714,7.2714,7.2142,7.1546,7.2448,7.2142,7.1401,7.1312,7.1312,7.1312,7.1312,7.1312,7.1312,7.1312,7.1312,7.1312,7.1312,7.1312,7.1312,7.1244,7.0635,6.962,6.803,6.5324,6.2618,6.0385,0.0,0.0,5.78,5.8443,5.9776,6.2155,6.3246,6.4163,6.5044,6.5118,6.4819,6.3992,6.3805,6.3418,6.2655,6.2472,6.2655,6.3294,6.2685,6.2685,6.3429,6.3429,6.414,6.5527,6.5561,6.6,6.6745,6.6779,6.6812,6.6812,6.6812,6.6812,6.6812,6.6812,6.6812,6.6812,6.6812,6.6812,6.6812,6.6812,6.6812,6.6812,9.5401,9.5768,9.6098,9.6612,9.6685,9.6539,9.6025,9.6392,9.6355,9.5327,9.496,9.4446,9.3639,9.3051,9.2501,9.184,9.2097,9.2134,9.1803,9.1803,9.1803,9.1803,9.1803,9.151,9.0922,8.9931,8.8977,8.8023,8.6224,8.4792,8.3654,8.2333,8.1158,8.0057,7.8638,7.745,7.6509,7.562,7.5192,7.5263,7.5649,7.6161,7.6728,7.6728,7.633,7.5718,7.4903,7.4234,7.3729,7.3729,7.385,7.3928,7.309,7.2962,7.288,7.1688,7.1312,7.1312,7.1312,7.1312,7.1312,7.1312,7.1312,7.1312,7.1312,7.1312,7.1312,7.1312,7.0703,6.9857,6.8842,6.6203,6.4038,6.3632,0.0,5.9791,6.1976,6.1866,6.2277,6.4097,6.5081,6.5705,6.5999,6.6953,6.7176,6.6354,6.67,6.6391,6.5141,6.4355,6.383,6.3497,6.3666,6.3903,6.4174,6.3734,6.4241,6.5696,6.5696,6.6102,6.6846,6.7286,6.7489,6.7489,6.7489,6.776,6.8166,6.7218,6.7083,6.7455,6.6981,6.6812,6.6812,6.6812,6.6812,6.6812,9.5437,9.5694,9.6061,9.6612,9.6685,9.6428,9.5621,9.5988,9.5841,9.4483,9.4079,9.3712,9.3161,9.2317,9.1803,9.1803,9.1803,9.1803,9.1803,9.1803,9.1803,9.1803,9.1803,9.1693,9.1436,9.0335,8.9528,8.905,8.7105,8.5783,8.4939,8.3324,8.215,8.1305,7.9947,7.8638,7.7492,7.6881,7.6518,7.6264,7.6264,7.6692,7.7304,7.7304,7.6856,7.6264,7.5891,7.5369,7.4757,7.4757,7.4976,7.512,7.4082,7.3772,7.3527,7.2049,7.1481,7.1312,7.1312,7.1312,7.1312,7.1312,7.1312,7.1312,7.1312,7.1312,7.1312,7.1312,7.0906,7.0331,6.9586,6.7557,6.6034,6.6034,6.4092,6.3276,6.5396,6.5223,6.5327,6.668,6.7283,6.7614,6.7614,6.8641,6.9045,6.8495,6.8924,6.8621,6.7198,6.6138,6.5278,6.4664,6.4606,6.4816,6.529,6.458,6.4816,6.6034,6.6034,6.6305,6.6846,6.732,6.7692,6.7895,6.7895,6.8368,6.9011,6.7963,6.7827,6.8199,6.7455,6.7151,6.7117,6.6914,6.6812,6.6812,9.5658,9.6135,9.6685,9.6685,9.6685,9.6428,9.5621,9.5511,9.5217,9.441,9.3602,9.3088,9.3088,9.2317,9.1803,9.1803,9.1803,9.1803,9.1803,9.1803,9.1803,9.1803,9.1803,9.1436,9.0629,9.0592,8.9821,8.8206,8.7399,8.6591,8.5747,8.4168,8.2994,8.215,8.1379,8.0131,7.8626,7.8589,7.8112,7.7341,7.7304,7.7304,7.7304,7.7304,7.7304,7.7181,7.6197,7.5787,7.5787,7.5787,7.512,7.446,7.551,7.446,7.272,7.2484,7.1887,7.1312,7.1312,7.1312,7.1312,7.1312,7.1312,7.1312,7.1312,7.1312,7.1312,7.1312,7.1312,7.1075,7.0331,6.962,6.8605,6.7083,6.7044,6.7252,6.7304,6.8271,6.9249,7.0054,7.011,7.011,7.011,7.011,7.011,7.011,7.011,6.9697,6.8848,6.7909,6.7271,6.7121,6.5483,6.5324,6.6779,6.6068,6.6068,6.6812,6.6812,6.6812,6.6812,6.6812,6.7218,6.7895,6.7895,6.8368,6.9113,6.9113,6.9113,6.9011,6.8233,6.7895,6.7793,6.7083,6.6812,6.6812,9.5547,9.5694,9.5878,9.5878,9.5878,9.5401,9.4042,9.4299,9.4373,9.3565,9.3235,9.3088,9.3088,9.2317,9.1803,9.1803,9.1803,9.1803,9.1803,9.1803,9.1803,9.1803,9.1803,9.1693,9.1436,9.0886,9.0115,8.905,8.8243,8.7142,8.5783,8.5306,8.4352,8.303,8.2186,8.1269,8.0204,7.9066,7.8442,7.8148,7.7561,7.7304,7.7304,7.7304,7.7304,7.7243,7.6956,7.6856,7.6856,7.6856,7.6628,7.633,7.5959,7.5296,7.4694,7.4622,7.3934,7.3206,7.3206,7.2327,7.1312,7.1312,7.1312,7.1312,7.1312,7.1312,7.1312,7.1312,7.1312,7.1244,7.1007,7.0364,6.9722,6.9248,6.9945,7.0585,7.0556,7.1095,7.1531,7.1798,7.077,7.011,7.011,7.0624,7.0697,7.0146,7.011,7.0172,7.0401,6.9577,6.8463,6.7156,6.7083,6.6782,6.6034,6.5797,6.6068,6.6812,6.6812,6.6812,6.6846,6.7354,6.7996,6.8741,6.8741,6.9485,7.0567,6.9519,6.9113,6.9079,6.8842,6.8402,6.7861,6.7658,6.7557,6.7489,9.5107,9.5034,9.5034,9.5034,9.5034,9.4593,9.3308,9.3529,9.3529,9.2684,9.2574,9.2574,9.2574,9.2134,9.1803,9.1803,9.1803,9.1803,9.1803,9.1803,9.1803,9.1803,9.1803,9.1803,9.1803,9.1033,9.0225,8.9417,8.861,8.7545,8.6261,8.593,8.5123,8.3838,8.303,8.2039,8.0938,7.9617,7.9066,7.8993,7.8148,7.8002,7.8295,7.8295,7.8295,7.8295,7.8295,7.8295,7.8259,7.7928,7.7818,7.7668,7.6963,7.6697,7.6435,7.6057,7.5301,7.4461,7.3691,7.2914,7.2205,7.1469,7.1312,7.1312,7.1312,7.1312,7.1312,7.1312,7.1312,7.1312,7.1312,7.0939,7.0778,7.1147,7.2171,7.2971,7.3012,7.3543,7.3707,7.3046,7.2129,7.1394,7.1064,7.1505,7.1578,7.1101,7.1064,7.1202,7.1598,7.0852,6.9884,6.8752,6.8775,6.8287,6.729,6.729,6.717,6.6812,6.7117,6.7083,6.6846,6.7557,6.8335,6.9113,6.9113,6.9958,7.121,7.0026,6.9722,6.9925,6.9316,6.8977,6.8774,6.847,6.8368,6.8267,9.4446,9.4299,9.4263,9.4189,9.4189,9.3932,9.3125,9.2978,9.2721,9.1913,9.1803,9.1803,9.1803,9.1803,9.1803,9.1803,9.1803,9.1803,9.1803,9.1803,9.1803,9.1803,9.1803,9.1803,9.1803,9.1069,9.0298,8.9417,8.8683,8.7876,8.6995,8.6261,8.549,8.4682,8.3875,8.2663,8.1158,8.0277,7.991,7.9837,7.9029,7.914,7.98,7.98,7.98,7.98,7.98,7.98,7.969,7.8956,7.8699,7.8683,7.8408,7.8418,7.8277,7.7255,7.6453,7.5514,7.3751,7.3739,7.3753,7.1961,7.1626,7.1537,7.1345,7.1379,7.1379,7.1312,7.1312,7.1312,7.1312,7.1312,7.16,7.2666,7.365,7.4361,7.4676,7.5498,7.5542,7.4074,7.3854,7.3523,7.2789,7.2716,7.2679,7.2606,7.2606,7.2569,7.2496,7.1732,7.1223,7.1095,7.0264,6.9778,6.9708,6.9708,6.8758,6.6946,6.7692,6.7608,6.6846,6.7658,6.8402,6.9113,6.918,6.9992,7.1278,7.0567,7.0669,7.1075,6.9789,6.9654,7.0094,6.9451,6.9214,6.9079,9.4336,9.4299,9.4079,9.3455,9.3345,9.3088,9.2207,9.206,9.2024,9.1803,9.1803,9.1803,9.1803,9.1803,9.1803,9.1803,9.1803,9.1803,9.1803,9.1803,9.1803,9.1803,9.1803,9.1803,9.1803,9.162,9.0849,8.9417,8.9234,8.8426,8.6995,8.6811,8.6297,8.549,8.4682,8.3801,8.281,8.1342,8.0755,8.0681,7.9837,7.9617,7.98,7.98,7.98,7.98,7.98,7.98,7.9764,7.958,7.9543,7.9543,7.9499,7.991,8.032,8.0084,7.9423,7.8387,7.7342,7.6529,7.5635,7.3787,7.3809,7.3722,7.1728,7.1751,7.1988,7.1447,7.1312,7.1312,7.1312,7.1312,7.16,7.2666,7.365,7.4574,7.5433,7.5826,7.5983,7.5616,7.5028,7.4588,7.4404,7.4404,7.4111,7.3487,7.345,7.3156,7.2532,7.2285,7.1854,7.1159,7.0865,7.0468,6.9708,6.9708,6.9095,6.7945,6.8659,6.8289,6.688,6.8233,6.8944,6.9147,6.9688,7.0466,7.1312,7.1142,7.0804,7.0466,7.0737,7.0567,7.0161,6.9992,6.9958,6.9755,9.3198,9.3088,9.2978,9.2537,9.2464,9.2317,9.1877,9.1803,9.1803,9.1803,9.1803,9.1803,9.1803,9.1803,9.1803,9.1803,9.1803,9.1803,9.1803,9.1803,9.1803,9.1803,9.1803,9.1803,9.1803,9.1803,9.1033,8.9417,8.905,8.8206,8.6995,8.6995,8.6591,8.5783,8.5343,8.4499,8.3324,8.2076,8.1562,8.1489,8.0681,8.0608,8.0874,8.0369,8.0167,8.0167,8.0167,8.0283,8.0351,8.0351,8.0351,8.0351,8.0351,8.0901,8.1489,8.1122,8.0612,7.9953,7.8562,7.8062,7.754,7.575,7.568,7.5413,7.2496,7.2394,7.2631,7.1548,7.1582,7.1718,7.1379,7.1688,7.2364,7.3332,7.4385,7.5369,7.633,7.6591,7.6533,7.6166,7.5726,7.5322,7.4955,7.4918,7.4588,7.3744,7.3707,7.334,7.2532,7.2496,7.2285,7.1794,7.1794,7.1692,7.1572,7.1572,7.1319,7.0734,7.0182,6.9428,6.8665,6.9304,6.962,6.9654,7.0026,7.0635,7.1278,7.0534,7.0229,7.0161,6.9823,6.9688,6.9688,6.9688,6.9417,6.8977,9.195,9.1803,9.1803,9.1803,9.1803,9.1803,9.1803,9.1803,9.1803,9.1803,9.1803,9.1803,9.1803,9.1803,9.1803,9.1803,9.1803,9.1803,9.1803,9.1803,9.1803,9.1803,9.1803,9.1803,9.1803,9.1803,9.1033,8.9417,8.872,8.7912,8.6995,8.6995,8.6628,8.6004,8.5857,8.4976,8.3581,8.2737,8.2333,8.215,8.1489,8.1709,8.2304,8.1266,8.084,8.0803,8.0876,8.1004,8.1232,8.1232,8.1232,8.1232,8.1232,8.1672,8.2076,8.1415,8.1232,8.0882,7.9162,7.9281,7.9396,7.7651,7.7404,7.6816,7.3775,7.339,7.3308,7.1954,7.2056,7.2282,7.1851,7.2296,7.3171,7.4385,7.5299,7.6161,7.7181,7.7304,7.7084,7.6387,7.6313,7.6056,7.5395,7.5322,7.4992,7.4147,7.3964,7.356,7.2753,7.2569,7.2496,7.2496,7.2496,7.2899,7.367,7.3707,7.3739,7.374,7.1826,7.0828,7.058,7.0413,7.0297,7.0195,7.0331,7.0669,7.1041,6.9789,6.9553,6.9857,6.8605,6.8605,6.9282,6.9282,6.8707,6.7895,9.1803,9.1803,9.1803,9.1803,9.1803,9.1803,9.1803,9.1803,9.1803,9.1803,9.1803,9.1803,9.1803,9.1803,9.1803,9.1803,9.1803,9.1803,9.1803,9.1803,9.1803,9.1803,9.1803,9.1803,9.1803,9.1803,9.1033,8.9417,8.9307,8.85,8.6995,8.6995,8.6958,8.6811,8.6114,8.527,8.4389,8.3581,8.2847,8.2186,8.2076,8.2517,8.3177,8.2311,8.1842,8.1672,8.1866,8.2047,8.2039,8.2039,8.2039,8.2039,8.2039,8.2113,8.2186,8.2076,8.2039,8.1856,8.0882,8.1183,8.1349,7.9503,7.8895,7.8213,7.6175,7.5026,7.4221,7.3375,7.2766,7.2688,7.3413,7.3164,7.3412,7.5263,7.5718,7.6161,7.7181,7.7304,7.7268,7.7157,7.7157,7.7121,7.7011,7.7011,7.6644,7.5836,7.5139,7.4404,7.356,7.2899,7.2496,7.2496,7.2496,7.2899,7.367,7.3707,7.4015,7.4702,7.3573,7.2119,7.058,7.0958,7.0804,7.0229,7.0872,7.0838,7.0331,7.0128,6.9722,6.9214,6.9011,6.9383,7.0026,7.0026,6.9147,6.7895,9.1803,9.1803,9.1803,9.1803,9.1803,9.1803,9.1803,9.1803,9.1803,9.1803,9.1803,9.1803,9.1803,9.1803,9.1803,9.1803,9.1803,9.1803,9.1803,9.1803,9.1803,9.1803,9.1803,9.1803,9.1803,9.1803,9.1216,9.0078,8.9638,8.883,8.7655,8.7215,8.6995,8.6995,8.6628,8.6004,8.5233,8.4425,8.3618,8.2884,8.2884,8.281,8.2671,8.2199,8.1273,8.0304,8.0904,8.1813,8.2884,8.2884,8.2553,8.2186,8.2186,8.1893,8.1525,8.1525,8.1525,8.1452,8.1122,8.1599,8.2011,8.1172,8.0406,7.9543,7.8119,7.7418,7.6365,7.3956,7.324,7.3198,7.3756,7.3317,7.3492,7.551,7.5787,7.6161,7.7181,7.7304,7.7304,7.7304,7.7304,7.7304,7.7304,7.7304,7.6974,7.6166,7.5763,7.5028,7.378,7.334,7.2973,7.2496,7.2496,7.2899,7.367,7.3707,7.4331,7.5579,7.4087,7.2724,7.1371,7.1477,7.1045,7.0229,7.0973,7.0872,7.0161,6.9755,6.9113,6.8436,6.8436,6.8639,6.891,6.891,6.8233,6.7354]},{"header":{"parameterUnit":"m.s-1","parameterCategory":1,"la1":30.6,"la2":28.766,"lo1":-90.7593,"lo2":-88.6598,"dy":0.0162,"dx":0.0183,"nx":116,"ny":114,"refTime":"2023-11-21T06:00:00:Z","depth":0,"parameterNumber":3,"parameterNumberName":"V-component_of_WINDS"},"data":[0.0,0.0,0.0,0.0,0.0,0.0,0.0,0.0,0.0,0.0,0.0,0.0,0.0,0.0,0.0,0.0,0.0,0.0,0.0,0.0,0.0,0.0,0.0,0.0,0.0,0.0,0.0,0.0,0.0,0.0,0.0,0.0,0.0,0.0,0.0,0.0,0.0,0.0,0.0,0.0,0.0,0.0,0.0,0.0,0.0,0.0,0.0,0.0,0.0,0.0,0.0,0.0,0.0,0.0,0.0,0.0,0.0,0.0,0.0,0.0,0.0,0.0,0.0,0.0,0.0,0.0,0.0,0.0,0.0,0.0,0.0,0.0,0.0,0.0,0.0,0.0,0.0,0.0,0.0,0.0,0.0,0.0,0.0,0.0,0.0,0.0,0.0,0.0,0.0,0.0,0.0,0.0,0.0,0.0,0.0,0.0,0.0,0.0,0.0,0.0,0.0,0.0,0.0,0.0,0.0,0.0,0.0,0.0,0.0,0.0,0.0,0.0,0.0,0.0,0.0,0.0,0.0,0.0,0.0,0.0,0.0,0.0,0.0,0.0,0.0,0.0,0.0,0.0,0.0,0.0,0.0,0.0,0.0,0.0,0.0,0.0,0.0,0.0,0.0,0.0,0.0,0.0,0.0,0.0,0.0,0.0,0.0,0.0,0.0,0.0,0.0,0.0,0.0,0.0,0.0,0.0,0.0,0.0,0.0,0.0,0.0,0.0,0.0,0.0,0.0,0.0,0.0,0.0,0.0,0.0,0.0,0.0,0.0,0.0,0.0,0.0,0.0,0.0,0.0,0.0,0.0,0.0,0.0,0.0,0.0,0.0,0.0,0.0,0.0,0.0,0.0,0.0,0.0,0.0,0.0,0.0,0.0,0.0,0.0,0.0,0.0,0.0,0.0,0.0,0.0,0.0,0.0,0.0,0.0,0.0,0.0,0.0,0.0,0.0,0.0,0.0,0.0,0.0,0.0,0.0,0.0,0.0,0.0,0.0,0.0,0.0,0.0,0.0,0.0,0.0,0.0,0.0,0.0,0.0,0.0,0.0,0.0,0.0,0.0,0.0,0.0,0.0,0.0,0.0,0.0,0.0,0.0,0.0,0.0,0.0,0.0,0.0,0.0,0.0,0.0,0.0,0.0,0.0,0.0,0.0,0.0,0.0,0.0,0.0,0.0,0.0,0.0,0.0,0.0,0.0,0.0,0.0,0.0,0.0,0.0,0.0,0.0,0.0,0.0,0.0,0.0,0.0,0.0,0.0,0.0,0.0,0.0,0.0,0.0,0.0,0.0,0.0,0.0,0.0,0.0,0.0,0.0,0.0,0.0,0.0,0.0,0.0,0.0,0.0,0.0,0.0,0.0,0.0,0.0,0.0,0.0,0.0,0.0,0.0,0.0,0.0,0.0,0.0,0.0,0.0,0.0,0.0,0.0,0.0,0.0,0.0,0.0,0.0,0.0,0.0,0.0,0.0,0.0,0.0,0.0,0.0,0.0,0.0,0.0,0.0,0.0,0.0,0.0,0.0,0.0,0.0,0.0,0.0,0.0,0.0,0.0,0.0,0.0,0.0,0.0,0.0,0.0,0.0,0.0,0.0,0.0,0.0,0.0,0.0,0.0,0.0,0.0,0.0,0.0,0.0,0.0,0.0,0.0,0.0,0.0,0.0,0.0,0.0,0.0,0.0,0.0,0.0,0.0,0.0,0.0,0.0,0.0,0.0,0.0,0.0,0.0,0.0,0.0,0.0,0.0,0.0,0.0,0.0,0.0,0.0,0.0,0.0,0.0,0.0,0.0,0.0,0.0,0.0,0.0,0.0,0.0,0.0,0.0,0.0,0.0,0.0,0.0,0.0,0.0,0.0,0.0,0.0,0.0,0.0,0.0,0.0,0.0,0.0,0.0,0.0,0.0,0.0,0.0,0.0,0.0,0.0,0.0,0.0,0.0,0.0,0.0,0.0,0.0,0.0,0.0,0.0,0.0,0.0,0.0,0.0,0.0,0.0,0.0,0.0,0.0,0.0,0.0,0.0,0.0,0.0,0.0,0.0,0.0,0.0,0.0,0.0,0.0,0.0,0.0,0.0,0.0,0.0,0.0,0.0,0.0,0.0,0.0,0.0,0.0,0.0,0.0,0.0,0.0,0.0,0.0,0.0,0.0,0.0,0.0,0.0,0.0,0.0,0.0,0.0,0.0,0.0,0.0,0.0,0.0,0.0,0.0,0.0,0.0,0.0,0.0,0.0,0.0,0.0,0.0,0.0,0.0,0.0,0.0,0.0,0.0,0.0,0.0,0.0,0.0,0.0,0.0,0.0,0.0,0.0,0.0,0.0,0.0,0.0,0.0,0.0,0.0,0.0,0.0,0.0,0.0,0.0,0.0,0.0,0.0,0.0,0.0,0.0,0.0,0.0,0.0,0.0,0.0,0.0,0.0,0.0,0.0,0.0,0.0,0.0,0.0,0.0,0.0,0.0,0.0,0.0,0.0,0.0,0.0,0.0,0.0,0.0,0.0,0.0,0.0,0.0,0.0,0.0,0.0,0.0,0.0,0.0,0.0,0.0,0.0,0.0,0.0,0.0,0.0,0.0,0.0,0.0,0.0,0.0,0.0,0.0,0.0,0.0,0.0,0.0,0.0,0.0,0.0,0.0,0.0,0.0,0.0,0.0,0.0,0.0,0.0,0.0,0.0,0.0,0.0,0.0,0.0,0.0,0.0,0.0,0.0,0.0,0.0,0.0,0.0,0.0,0.0,0.0,0.0,0.0,0.0,0.0,0.0,0.0,0.0,0.0,0.0,0.0,0.0,0.0,0.0,0.0,0.0,0.0,0.0,0.0,0.0,0.0,0.0,0.0,0.0,0.0,0.0,0.0,0.0,0.0,0.0,0.0,0.0,0.0,0.0,0.0,0.0,0.0,0.0,0.0,0.0,0.0,0.0,0.0,0.0,0.0,0.0,0.0,0.0,0.0,0.0,0.0,0.0,0.0,0.0,0.0,0.0,0.0,0.0,0.0,0.0,0.0,0.0,0.0,0.0,0.0,0.0,0.0,0.0,0.0,0.0,0.0,0.0,0.0,0.0,0.0,0.0,0.0,0.0,0.0,0.0,0.0,0.0,0.0,0.0,0.0,0.0,0.0,0.0,0.0,0.0,0.0,0.0,0.0,0.0,0.0,0.0,0.0,0.0,0.0,0.0,0.0,0.0,0.0,0.0,0.0,0.0,0.0,0.0,0.0,0.0,0.0,0.0,0.0,0.0,0.0,0.0,0.0,0.0,0.0,0.0,0.0,0.0,0.0,0.0,0.0,0.0,0.0,0.0,0.0,0.0,0.0,0.0,0.0,0.0,0.0,0.0,0.0,0.0,0.0,0.0,0.0,0.0,0.0,0.0,0.0,0.0,0.0,0.0,0.0,0.0,0.0,0.0,0.0,0.0,0.0,0.0,0.0,0.0,0.0,0.0,0.0,0.0,0.0,0.0,0.0,0.0,0.0,0.0,0.0,0.0,0.0,0.0,0.0,0.0,0.0,0.0,0.0,0.0,0.0,0.0,0.0,0.0,0.0,0.0,0.0,0.0,0.0,0.0,0.0,0.0,0.0,0.0,0.0,0.0,0.0,0.0,0.0,0.0,0.0,0.0,0.0,0.0,0.0,0.0,0.0,0.0,0.0,0.0,0.0,0.0,0.0,0.0,0.0,0.0,0.0,0.0,0.0,0.0,0.0,0.0,0.0,0.0,0.0,0.0,0.0,0.0,0.0,0.0,0.0,0.0,0.0,0.0,0.0,0.0,0.0,0.0,0.0,0.0,0.0,0.0,0.0,0.0,0.0,0.0,0.0,0.0,0.0,0.0,0.0,0.0,0.0,0.0,0.0,0.0,0.0,0.0,0.0,0.0,0.0,0.0,0.0,0.0,0.0,0.0,0.0,0.0,0.0,0.0,0.0,0.0,0.0,0.0,0.0,0.0,0.0,0.0,0.0,0.0,0.0,0.0,0.0,0.0,0.0,0.0,0.0,0.0,0.0,0.0,0.0,0.0,0.0,0.0,0.0,0.0,0.0,0.0,0.0,0.0,0.0,0.0,0.0,0.0,0.0,0.0,0.0,0.0,0.0,0.0,0.0,0.0,0.0,0.0,0.0,0.0,0.0,0.0,0.0,0.0,0.0,0.0,0.0,0.0,0.0,0.0,0.0,0.0,0.0,0.0,0.0,0.0,0.0,0.0,0.0,0.0,0.0,0.0,0.0,0.0,0.0,0.0,0.0,0.0,0.0,0.0,0.0,0.0,0.0,0.0,0.0,0.0,0.0,0.0,0.0,0.0,0.0,0.0,0.0,0.0,0.0,0.0,0.0,0.0,0.0,0.0,0.0,0.0,0.0,0.0,0.0,0.0,0.0,0.0,0.0,0.0,0.0,0.0,0.0,0.0,0.0,0.0,0.0,0.0,0.0,0.0,0.0,0.0,0.0,0.0,0.0,0.0,0.0,0.0,0.0,0.0,0.0,0.0,0.0,0.0,0.0,0.0,0.0,0.0,0.0,0.0,0.0,0.0,0.0,0.0,0.0,0.0,0.0,0.0,0.0,0.0,0.0,0.0,0.0,0.0,0.0,0.0,0.0,0.0,0.0,0.0,0.0,0.0,0.0,0.0,0.0,0.0,0.0,0.0,0.0,0.0,0.0,0.0,0.0,0.0,0.0,0.0,0.0,0.0,0.0,0.0,0.0,0.0,0.0,0.0,0.0,0.0,0.0,0.0,0.0,0.0,0.0,0.0,0.0,0.0,0.0,0.0,0.0,0.0,0.0,0.0,0.0,0.0,0.0,0.0,0.0,0.0,0.0,0.0,0.0,0.0,0.0,0.0,0.0,0.0,0.0,0.0,0.0,0.0,0.0,0.0,0.0,0.0,0.0,0.0,0.0,0.0,0.0,0.0,0.0,0.0,0.0,0.0,0.0,0.0,0.0,0.0,0.0,0.0,0.0,0.0,0.0,0.0,0.0,0.0,0.0,0.0,0.0,0.0,0.0,0.0,0.0,0.0,0.0,0.0,0.0,0.0,0.0,0.0,0.0,0.0,0.0,0.0,0.0,0.0,0.0,0.0,0.0,0.0,0.0,0.0,0.0,0.0,0.0,0.0,0.0,0.0,0.0,0.0,0.0,0.0,0.0,0.0,0.0,0.0,0.0,0.0,0.0,0.0,0.0,0.0,0.0,0.0,0.0,0.0,0.0,0.0,0.0,0.0,0.0,0.0,0.0,0.0,0.0,0.0,0.0,0.0,0.0,0.0,0.0,0.0,0.0,0.0,0.0,0.0,0.0,0.0,0.0,0.0,0.0,0.0,0.0,0.0,0.0,0.0,0.0,0.0,0.0,0.0,0.0,0.0,0.0,0.0,0.0,0.0,0.0,0.0,0.0,0.0,0.0,0.0,0.0,0.0,0.0,0.0,0.0,0.0,0.0,0.0,0.0,0.0,0.0,0.0,0.0,0.0,0.0,0.0,0.0,0.0,0.0,0.0,0.0,0.0,0.0,0.0,0.0,0.0,0.0,0.0,0.0,0.0,0.0,0.0,0.0,0.0,0.0,0.0,0.0,0.0,0.0,0.0,0.0,0.0,0.0,0.0,0.0,0.0,0.0,0.0,0.0,0.0,0.0,0.0,0.0,0.0,0.0,0.0,0.0,0.0,0.0,0.0,0.0,0.0,0.0,0.0,0.0,0.0,0.0,0.0,0.0,0.0,0.0,0.0,0.0,0.0,0.0,0.0,0.0,0.0,0.0,0.0,0.0,0.0,0.0,0.0,0.0,0.0,0.0,0.0,0.0,0.0,0.0,0.0,0.0,0.0,0.0,0.0,0.0,0.0,0.0,0.0,0.0,0.0,0.0,0.0,0.0,0.0,0.0,0.0,0.0,0.0,0.0,0.0,0.0,0.0,0.0,0.0,0.0,0.0,0.0,0.0,0.0,0.0,0.0,0.0,0.0,0.0,0.0,0.0,0.0,0.0,0.0,0.0,0.0,0.0,0.0,0.0,0.0,0.0,0.0,0.0,0.0,0.0,0.0,0.0,0.0,0.0,0.0,0.0,0.0,0.0,0.0,0.0,0.0,0.0,0.0,-2.3848,0.0,0.0,0.0,0.0,0.0,0.0,0.0,0.0,0.0,0.0,0.0,0.0,0.0,0.0,0.0,0.0,0.0,0.0,0.0,0.0,0.0,0.0,0.0,0.0,0.0,0.0,0.0,0.0,0.0,0.0,0.0,0.0,0.0,0.0,0.0,0.0,0.0,0.0,0.0,-2.9213,-2.8789,-2.8574,-2.9453,-2.9082,-2.7695,0.0,0.0,0.0,0.0,0.0,0.0,0.0,0.0,0.0,0.0,0.0,0.0,0.0,0.0,0.0,0.0,0.0,0.0,0.0,0.0,0.0,0.0,0.0,0.0,0.0,0.0,0.0,0.0,0.0,0.0,0.0,0.0,0.0,0.0,0.0,0.0,0.0,0.0,0.0,0.0,0.0,0.0,0.0,0.0,0.0,0.0,0.0,0.0,0.0,0.0,0.0,0.0,0.0,0.0,0.0,0.0,0.0,0.0,0.0,0.0,0.0,0.0,0.0,0.0,0.0,0.0,0.0,0.0,0.0,0.0,0.0,-2.4453,0.0,0.0,0.0,0.0,0.0,0.0,0.0,0.0,0.0,0.0,0.0,0.0,0.0,0.0,0.0,0.0,0.0,0.0,0.0,0.0,0.0,0.0,0.0,-2.8716,-2.8364,-2.8476,-2.9525,-2.9717,0.0,0.0,0.0,0.0,0.0,0.0,-3.0433,-2.9467,-2.965,-3.1257,-2.9888,-2.9746,-3.0664,-3.1191,-3.0293,-2.8262,-2.8711,0.0,0.0,0.0,0.0,0.0,0.0,0.0,0.0,0.0,0.0,0.0,0.0,0.0,0.0,0.0,0.0,0.0,0.0,0.0,0.0,0.0,0.0,0.0,0.0,0.0,0.0,0.0,0.0,0.0,0.0,0.0,0.0,0.0,0.0,0.0,0.0,0.0,0.0,0.0,0.0,0.0,0.0,0.0,0.0,0.0,0.0,0.0,0.0,0.0,0.0,0.0,0.0,0.0,0.0,0.0,0.0,0.0,0.0,0.0,0.0,0.0,0.0,0.0,-2.9928,-2.9473,-2.9824,-2.9824,-2.9629,-2.9238,-2.8105,-2.6816,-2.5508,0.0,0.0,0.0,0.0,0.0,0.0,0.0,0.0,0.0,0.0,0.0,0.0,0.0,0.0,0.0,0.0,0.0,0.0,0.0,0.0,0.0,0.0,-3.1059,-3.0294,-2.9466,-2.9616,-2.9459,-2.8867,0.0,0.0,-3.0037,-2.9112,-2.9293,-3.0916,-2.9627,-2.9231,-2.9885,-3.0388,-3.125,-3.248,-3.3281,-3.3476,-3.3027,-3.0176,-2.9707,-3.0879,0.0,0.0,0.0,0.0,0.0,0.0,0.0,0.0,0.0,0.0,0.0,0.0,0.0,0.0,0.0,0.0,0.0,0.0,0.0,0.0,0.0,0.0,0.0,0.0,0.0,0.0,0.0,0.0,0.0,0.0,0.0,0.0,0.0,0.0,0.0,0.0,0.0,0.0,0.0,0.0,0.0,-2.7525,-2.7537,0.0,0.0,0.0,0.0,0.0,0.0,0.0,0.0,0.0,0.0,0.0,0.0,0.0,-3.3492,-3.4471,-3.4314,-3.4137,-3.4149,-3.3596,-3.334,-3.3398,-3.3398,-3.3359,-3.3281,-3.2734,0.0,-2.7246,-2.6113,0.0,0.0,0.0,0.0,0.0,0.0,0.0,0.0,0.0,0.0,0.0,0.0,0.0,0.0,0.0,0.0,0.0,0.0,0.0,0.0,0.0,-3.1485,-3.1297,-3.0447,-3.2295,-3.2554,-3.0137,-3.1251,-3.1309,-3.0005,-2.9332,-2.9719,-3.1291,-3.0269,-3.0215,-3.1387,-3.3223,-3.4297,-3.4629,-3.5234,-3.5527,-3.5449,-3.3437,-3.2441,-3.2148,-3.0976,0.0,0.0,0.0,0.0,0.0,0.0,0.0,0.0,0.0,0.0,0.0,0.0,0.0,0.0,0.0,0.0,0.0,0.0,0.0,0.0,0.0,0.0,0.0,0.0,0.0,0.0,0.0,0.0,0.0,0.0,0.0,0.0,0.0,0.0,0.0,0.0,0.0,0.0,0.0,-2.915,-2.8338,-2.7861,-2.7259,-2.623,0.0,0.0,0.0,0.0,0.0,0.0,0.0,0.0,0.0,-3.5962,-3.6652,-3.7315,-3.8313,-3.8132,-3.7768,-3.7043,-3.577,-3.5293,-3.5527,-3.5527,-3.5273,-3.4805,-3.4609,-3.3144,-3.0762,-2.9004,-2.7559,-2.6348,0.0,0.0,0.0,0.0,-2.6686,-2.7064,0.0,0.0,0.0,0.0,0.0,0.0,0.0,0.0,0.0,0.0,0.0,0.0,-3.1569,-3.2281,-3.2631,-3.2207,-3.4825,-3.5073,-3.1956,-3.2793,-3.2387,-3.0074,-2.9687,-3.0147,-3.1223,-3.1122,-3.1875,-3.3613,-3.5996,-3.7109,-3.7031,-3.7559,-3.7832,-3.7793,-3.7031,-3.5742,-3.4023,-3.2715,-3.1367,-2.998,0.0,0.0,0.0,0.0,0.0,0.0,0.0,0.0,0.0,0.0,0.0,0.0,0.0,0.0,0.0,0.0,0.0,0.0,0.0,0.0,0.0,0.0,0.0,0.0,0.0,0.0,0.0,0.0,0.0,0.0,0.0,0.0,0.0,0.0,0.0,0.0,0.0,-3.0541,-2.9779,-2.8688,-2.9096,-2.8534,0.0,0.0,0.0,0.0,0.0,0.0,-3.504,-3.3623,-3.5184,-4.0669,-4.0837,-4.1489,-4.2789,-4.1897,-4.1088,-4.0202,-3.7625,-3.6738,-3.7148,-3.7148,-3.6699,-3.5879,-3.5879,-3.5323,-3.4187,-3.1446,-2.9394,-2.7734,-2.6875,-2.6979,-2.76,-2.8134,-2.8685,-2.9104,0.0,0.0,0.0,0.0,0.0,0.0,0.0,0.0,0.0,0.0,0.0,-3.4337,-3.4568,-3.4669,-3.5024,-3.572,-3.5508,-3.5073,-3.3984,-3.2544,-3.1446,-3.084,-3.0019,-2.9766,-3.027,-3.2187,-3.4121,-3.5859,-3.7617,-3.8906,-3.9726,-4.0547,-4.0957,-4.0918,-4.0469,-3.9297,-3.7422,-3.373,-3.2559,-3.2949,-3.0059,0.0,0.0,0.0,0.0,0.0,0.0,0.0,0.0,0.0,0.0,0.0,0.0,0.0,0.0,0.0,0.0,0.0,0.0,0.0,0.0,0.0,0.0,0.0,0.0,0.0,0.0,0.0,0.0,0.0,0.0,0.0,0.0,0.0,0.0,0.0,0.0,0.0,0.0,-3.039,-3.1667,0.0,0.0,0.0,0.0,-3.2332,-3.3642,-3.5725,-3.8799,-3.7866,-4.044,-4.7184,-4.6183,-4.6631,-4.9107,-4.5809,-4.4074,-4.3867,-3.9677,-3.8066,-3.8476,-3.8476,-3.8008,-3.7207,-3.7207,-3.7144,-3.6559,-3.2595,-3.0527,-2.9824,-2.7793,-2.7883,-2.9283,-2.9759,-2.988,-2.9907,0.0,0.0,0.0,0.0,0.0,0.0,0.0,0.0,-3.3504,-3.3476,-3.4638,-3.5445,-3.5286,-3.6983,-3.7986,-3.7637,-3.8789,-3.8672,-3.668,-3.4961,-3.3809,-3.3359,-3.1992,-3.1816,-3.3066,-3.4141,-3.5801,-3.8066,-3.9531,-4.0684,-4.1523,-4.1836,-4.1973,-4.1953,-4.1543,-4.1152,-4.0605,-3.7285,-3.4922,-3.3262,-3.1348,-2.9902,0.0,0.0,0.0,0.0,0.0,0.0,0.0,0.0,0.0,0.0,0.0,0.0,0.0,0.0,0.0,0.0,0.0,0.0,0.0,0.0,0.0,0.0,0.0,0.0,0.0,0.0,0.0,0.0,0.0,0.0,0.0,0.0,0.0,0.0,0.0,0.0,0.0,-3.5764,-3.6621,0.0,-3.4646,-3.4976,-3.58,-3.7229,-3.654,-3.766,-4.1306,-3.9945,-4.2052,-4.8426,-4.7306,-4.7656,-4.9858,-4.675,-4.4613,-4.3214,-3.9939,-3.8418,-3.8574,-3.8574,-3.8105,-3.7305,-3.7305,-3.67,-3.5351,-3.367,-3.2774,-3.2342,-2.9996,-2.9547,-3.0308,-3.087,-3.12,-3.1273,0.0,0.0,0.0,0.0,0.0,0.0,0.0,0.0,-3.2908,-3.2713,-3.4758,-3.6178,-3.6248,-3.8581,-4.0098,-4.0098,-4.1133,-4.0879,-3.873,-3.6426,-3.4961,-3.4512,-3.3262,-3.332,-3.4902,-3.6074,-3.7734,-3.9863,-4.1172,-4.2168,-4.2851,-4.2851,-4.2851,-4.2851,-4.2558,-4.2598,-4.2734,-4.0723,-3.7969,-3.4785,-3.3066,-3.1855,-3.0781,0.0,0.0,0.0,0.0,0.0,0.0,0.0,0.0,0.0,0.0,0.0,0.0,0.0,0.0,0.0,0.0,0.0,0.0,0.0,0.0,0.0,0.0,0.0,0.0,0.0,0.0,0.0,0.0,0.0,0.0,0.0,0.0,0.0,0.0,0.0,-3.7031,-3.7674,-3.8904,-3.9333,-3.8546,-3.8402,-3.9174,-4.1136,-3.9615,-3.9959,-4.2905,-4.1346,-4.2766,-4.826,-4.7454,-4.7927,-4.9961,-4.7183,-4.5101,-4.3687,-4.0242,-3.8574,-3.8574,-3.8574,-3.8184,-3.75,-3.7363,-3.7132,-3.6725,-3.5497,-3.5108,-3.5134,-3.1928,-3.0744,-3.088,-3.1532,-3.1955,-3.2032,0.0,0.0,0.0,0.0,0.0,0.0,0.0,-3.1162,-3.2655,-3.2159,-3.4561,-3.6737,-3.7822,-3.957,-4.1308,-4.2988,-4.2324,-4.1289,-4.0019,-3.6641,-3.4512,-3.4121,-3.3691,-3.4141,-3.5527,-3.7969,-3.9883,-4.125,-4.2519,-4.334,-4.375,-4.3769,-4.3769,-4.3769,-4.3769,-4.3769,-4.3789,-4.375,-4.1562,-3.791,-3.5273,-3.418,-3.3867,0.0,0.0,0.0,0.0,0.0,0.0,0.0,0.0,0.0,0.0,0.0,0.0,0.0,0.0,0.0,0.0,0.0,0.0,0.0,0.0,0.0,0.0,0.0,0.0,0.0,0.0,0.0,0.0,0.0,0.0,0.0,0.0,0.0,-3.2654,-3.5356,-3.6872,-3.5795,-3.8308,-4.0347,-4.1347,-4.1323,-4.1997,-4.3769,-4.297,-4.2689,-4.3425,-4.2128,-4.3096,-4.6735,-4.6882,-4.7904,-4.9819,-4.7065,-4.5692,-4.5505,-4.0801,-3.8594,-3.8574,-3.8574,-3.834,-3.791,-3.748,-3.8664,-4.0662,-3.7762,-3.7256,-3.7807,-3.3272,-3.1269,-3.0956,-3.181,-3.2163,-3.2017,0.0,0.0,0.0,0.0,0.0,0.0,0.0,-2.9808,-3.1351,-3.0782,-3.5269,-3.8657,-3.8806,-4.1543,-4.3652,-4.4414,-4.3125,-4.1855,-4.0879,-3.6973,-3.4648,-3.4531,-3.4726,-3.6191,-3.9062,-3.9492,-4.0781,-4.3008,-4.4004,-4.4551,-4.4668,-4.5293,-4.543,-4.5137,-4.5137,-4.5293,-4.5527,-4.4609,-4.3769,-4.2734,-3.8887,-3.6777,-3.5664,0.0,0.0,0.0,0.0,0.0,0.0,0.0,0.0,0.0,0.0,0.0,0.0,0.0,0.0,0.0,0.0,0.0,0.0,0.0,0.0,0.0,0.0,0.0,0.0,0.0,0.0,0.0,0.0,0.0,0.0,0.0,0.0,-3.4944,-3.6589,-3.7908,-3.9219,-4.074,-4.2405,-4.3455,-4.3699,-4.3806,-4.3826,-4.408,-4.387,-4.305,-4.1862,-4.2708,-4.3794,-4.4827,-4.4827,-4.5849,-4.7781,-4.5406,-4.3906,-4.3564,-4.0565,-3.8867,-3.8574,-3.8574,-3.834,-3.791,-3.748,-3.7332,-3.738,-3.7452,-3.6476,-3.4718,-3.3608,-3.2448,-3.1289,-3.1305,-3.1043,-3.0605,0.0,0.0,0.0,0.0,0.0,0.0,0.0,-2.9239,-3.0904,-3.0754,-3.5995,-3.9629,-3.9495,-4.2246,-4.4141,-4.4199,-4.2949,-4.1504,-3.9922,-3.6777,-3.5078,-3.5254,-3.6562,-3.8457,-4.0996,-4.1699,-4.2949,-4.4805,-4.5488,-4.5918,-4.6113,-4.6601,-4.6699,-4.6465,-4.6465,-4.6601,-4.6797,-4.6055,-4.5879,-4.584,-4.2969,-4.082,-3.9023,-3.6074,-3.4746,-3.4258,-3.2676,-3.2031,-3.1777,-3.0664,0.0,0.0,0.0,0.0,0.0,0.0,0.0,0.0,0.0,0.0,0.0,0.0,0.0,0.0,0.0,0.0,0.0,0.0,0.0,0.0,0.0,0.0,0.0,0.0,-3.6924,-3.7756,-3.9736,-3.9571,-4.0141,-4.2535,-4.3237,-4.3874,-4.5158,-4.444,-4.4255,-4.4573,-4.4102,-4.2994,-4.1602,-4.2456,-4.3126,-4.2943,-4.3663,-4.4677,-4.5701,-4.4231,-4.3426,-4.3005,-4.0492,-3.9082,-3.8828,-3.8652,-3.8437,0.0,-3.7754,-3.7569,-3.7678,-3.7757,-3.6676,0.0,0.0,0.0,0.0,0.0,-3.0742,-3.0098,0.0,0.0,0.0,0.0,0.0,0.0,0.0,-2.9197,-3.1099,-3.1386,-3.6499,-3.9926,-3.9672,-4.1992,-4.3418,-4.3027,-4.2226,-4.0644,-3.8086,-3.6562,-3.5957,-3.6445,-3.8848,-4.0801,-4.2129,-4.4141,-4.5566,-4.6367,-4.6836,-4.7246,-4.7578,-4.7676,-4.7695,-4.7656,-4.7695,-4.7734,-4.7715,-4.7676,-4.7656,-4.7578,-4.6777,-4.5176,-4.2949,-3.9726,-3.8633,-3.8476,-3.6016,-3.4687,-3.3926,-3.293,0.0,0.0,0.0,0.0,0.0,0.0,0.0,0.0,0.0,0.0,0.0,0.0,0.0,0.0,0.0,0.0,0.0,0.0,0.0,0.0,0.0,0.0,0.0,0.0,-4.0158,-4.0979,-4.238,-4.1,-4.0499,-4.2129,-4.2148,-4.2903,-4.5478,-4.4261,-4.3818,-4.5535,-4.4321,-4.3096,-4.2289,0.0,0.0,0.0,0.0,-4.3794,-4.3794,-4.3398,-4.3189,-4.3127,-4.0524,-3.9258,-3.918,-3.8769,-3.8574,-3.8555,-3.8105,-3.8487,-3.9467,-3.8465,-3.7758,-3.7297,-3.6142,-3.4289,-3.2109,-3.168,-3.1016,-3.0273,0.0,0.0,0.0,0.0,0.0,0.0,0.0,-2.9104,-3.0969,-3.0991,-3.6016,-3.9184,-3.8373,-4.0918,-4.2637,-4.2558,-4.1777,-4.0332,-3.8066,-3.7949,-3.832,-3.9101,-4.0937,-4.2715,-4.4355,-4.5488,-4.6308,-4.6816,-4.7578,-4.7832,-4.7598,-4.8281,-4.8418,-4.8105,-4.8457,-4.8613,-4.8594,-4.8242,-4.8086,-4.8047,-4.7539,-4.625,-4.4473,-4.2734,-4.1269,-3.9941,-3.8379,-3.793,-3.7793,-3.5918,-3.5391,-3.5176,-3.2988,-3.1426,0.0,0.0,0.0,0.0,0.0,0.0,0.0,0.0,0.0,0.0,0.0,0.0,0.0,0.0,0.0,0.0,0.0,0.0,0.0,-4.3631,-4.4415,-4.4769,-4.5301,-4.4358,-4.3208,-4.2013,-4.2754,-4.3425,-4.3716,-4.3876,-4.4898,-4.6615,-4.6218,-4.5871,-4.547,-4.496,0.0,-4.1699,-4.1796,-4.1753,-4.1753,-4.1674,-4.1455,-4.1099,0.0,0.0,-3.918,-3.8769,-3.8574,-3.8555,-3.8105,-3.7818,-3.7928,-3.8615,-3.8513,-3.7461,-3.4608,-3.2966,-3.2109,-3.168,-3.1406,-3.1152,0.0,0.0,0.0,0.0,0.0,0.0,0.0,-2.8473,-3.0151,-3.0443,-3.4345,-3.6874,-3.6405,-3.8047,-3.9141,-3.8926,-3.8301,-3.7851,-3.7617,-3.8828,-4.0215,-4.1738,-4.3457,-4.498,-4.6269,-4.6933,-4.7461,-4.7891,-4.8555,-4.8652,-4.8242,-4.8887,-4.8965,-4.8535,-4.8769,-4.8867,-4.8848,-4.8633,-4.8535,-4.8516,-4.8301,-4.7578,-4.6445,-4.4941,-4.3711,-4.2598,-4.1289,-4.0684,-4.0195,-3.8262,-3.748,-3.6914,-3.4746,-3.334,-3.2348,0.0,0.0,0.0,0.0,0.0,0.0,0.0,0.0,0.0,0.0,0.0,0.0,0.0,0.0,-3.5874,0.0,0.0,-4.3251,-4.6906,-4.7296,-4.6931,-4.6613,-4.5729,-4.4391,-4.2268,-4.3047,-4.3711,-4.373,-4.5477,-4.6548,-4.6304,-4.7258,-4.7706,-4.7385,-4.5612,-4.4319,-4.3807,-4.2308,-4.1387,-4.1172,-4.1172,-4.1074,-4.084,-4.041,-4.0098,-3.9844,-3.918,-3.8887,-3.8867,-3.8437,-3.8008,-3.7539,-3.7605,-3.7104,-3.6042,-3.4231,-3.3164,-3.2773,-3.2559,-3.207,-3.1426,0.0,0.0,0.0,0.0,0.0,0.0,0.0,-2.7778,-2.9209,-2.9912,-3.2585,-3.4472,-3.4093,-3.5019,-3.5508,-3.5176,-3.5176,-3.5937,-3.7695,-3.9902,-4.2051,-4.4121,-4.5879,-4.7129,-4.7812,-4.832,-4.8769,-4.9121,-4.9473,-4.9473,-4.9121,-4.9492,-4.9453,-4.9121,-4.9121,-4.9121,-4.9121,-4.9121,-4.9121,-4.9101,-4.9023,-4.8769,-4.8301,-4.6758,-4.584,-4.5215,-4.3926,-4.2734,-4.1582,-4.0176,-3.8965,-3.7754,-3.6094,-3.5176,-3.4595,-3.4183,-3.2872,0.0,0.0,0.0,0.0,0.0,0.0,0.0,0.0,0.0,-3.3431,-3.3571,-3.658,-3.9826,-4.1904,-4.3649,-4.5895,-4.9386,-4.9474,-4.8728,-4.779,-4.6701,-4.5149,-4.3062,-4.3425,-4.4101,-4.4492,-4.6912,-4.7929,-4.6623,-4.7841,-4.8482,-4.842,-4.598,-4.4967,-4.5911,-4.3609,-4.2229,-4.1892,-4.1522,-4.1172,-4.1172,-4.0723,-4.0527,-4.0488,-3.9707,-3.9297,-3.918,-3.8672,-3.8203,-3.7715,-3.6601,-3.5684,-3.4922,-3.459,-3.418,-3.3769,-3.3418,-3.2656,-3.1699,0.0,0.0,0.0,0.0,0.0,0.0,0.0,0.0,-2.8982,-2.9085,-3.1787,-3.3182,-3.1976,-3.332,-3.4277,-3.4219,-3.5918,-3.7754,-3.9492,-4.1953,-4.4141,-4.5937,-4.7656,-4.8613,-4.8711,-4.9531,-4.998,-5.0019,-5.0078,-5.0078,-5.0039,-5.0078,-5.0078,-5.0019,-5.0019,-5.0019,-5.0019,-5.0019,-5.0019,-5.0,-4.9609,-4.9433,-4.9277,-4.8301,-4.7422,-4.6543,-4.5273,-4.3516,-4.1777,-4.1582,-4.0176,-3.8535,-3.8652,-3.7891,-3.6779,-3.6284,-3.4186,-3.2475,-3.3945,-3.2661,-3.1037,-3.1636,-3.0842,-3.0488,0.0,0.0,-3.6932,-3.8553,-4.1661,-4.4546,-4.6116,-4.7758,-4.9436,-5.087,-5.1464,-5.1196,-4.989,-4.8623,-4.7138,-4.474,-4.4742,-4.4902,-4.4961,-4.5895,-4.7388,-4.9043,-4.7923,-4.7608,-4.8924,-4.8046,-4.7337,-4.6741,-4.5305,-4.4461,-4.4552,-4.2242,-4.1172,-4.1172,-4.0723,-4.0527,-4.0508,-4.0039,-3.959,-3.916,-3.834,-3.7754,-3.7324,-3.6816,-3.6309,-3.5859,-3.582,-3.5547,-3.498,-3.3437,-3.2773,-3.2539,0.0,0.0,0.0,0.0,0.0,0.0,0.0,0.0,0.0,-2.8153,-2.955,-3.0378,-2.998,-3.0644,-3.0976,-3.0742,-3.3828,-3.6621,-3.8613,-4.2344,-4.5469,-4.7695,-4.873,-4.9375,-4.9629,-4.998,-5.0176,-5.0176,-5.043,-5.041,-5.0195,-5.043,-5.041,-5.0176,-5.0176,-5.0176,-5.0176,-5.0176,-5.0176,-5.0156,-4.998,-4.9746,-4.9453,-4.8828,-4.7598,-4.6035,-4.4726,-4.3047,0.0,-4.0273,-3.9316,-3.8555,-3.8476,-3.7754,-3.7114,-3.7591,-3.608,-3.4183,-3.4017,-3.3155,0.0,0.0,-3.1979,-3.2519,-3.418,-3.6282,-3.8573,-4.0968,-4.3938,-4.6737,-4.9157,-5.0368,-5.1322,0.0,-5.2678,-5.2263,-5.0269,-5.0115,-4.9091,-4.6221,-4.6706,-4.7083,-4.666,-4.7617,-4.8839,-5.0199,-5.0928,-5.1552,-5.1993,-5.1398,-5.1065,-5.1061,-4.8785,-4.668,-4.4942,-4.3586,-4.235,-4.1172,-4.0996,-4.0898,-4.0879,-4.1605,-4.1596,-4.0881,-4.0228,-3.9009,-3.7637,-3.7207,-3.6797,-3.6348,-3.5859,-3.5703,-3.5605,-3.4355,-3.3594,-3.3066,0.0,0.0,0.0,0.0,0.0,0.0,0.0,0.0,0.0,0.0,-2.7851,-2.8388,-2.9212,-2.9252,-2.9132,-2.894,-3.2017,-3.5019,-3.7422,-4.1797,-4.5566,-4.8379,-4.9394,-5.0078,-5.0508,-5.0762,-5.0879,-5.0879,-5.1172,-5.1113,-5.0703,-5.1016,-5.0937,-5.0527,-5.0527,-5.0586,-5.0703,-5.0703,-5.0703,-5.0683,-5.0566,-5.0117,-4.9453,-4.8769,-4.6953,-4.4648,-4.3574,-4.1855,-3.9883,-3.8379,-3.7637,-3.7344,-3.7383,-3.6992,-3.6779,-3.8387,-3.813,-3.6898,-3.4733,0.0,0.0,-3.3155,-3.3591,-3.4629,-3.582,-3.7915,-4.035,-4.3173,-4.5847,-4.8531,-5.1305,-5.2076,-5.2503,-5.3055,-5.3457,-5.3113,-5.1265,-5.1249,-5.0472,-4.7813,-4.8164,-4.8498,-4.858,-4.8911,-4.9723,-5.121,-5.1831,-5.2774,-5.3828,-5.3302,-5.3428,-5.4276,-5.1546,-4.9147,-4.6767,-4.4975,-4.3359,-4.2062,-4.1463,-4.1463,-4.2042,-4.3635,-4.3842,-4.3049,-4.201,-4.043,-3.8405,-3.7704,-3.6973,-3.6426,-3.5801,-3.5742,-3.5937,-3.5176,-3.4336,-3.3535,0.0,0.0,0.0,0.0,0.0,0.0,0.0,0.0,0.0,0.0,0.0,0.0,0.0,-3.0245,-3.0224,-3.0224,-3.1492,-3.3516,-3.6523,-4.0351,-4.4043,-4.7461,-4.9648,-5.0957,-5.1387,-5.2207,-5.2637,-5.2637,-5.2637,-5.2441,-5.2031,-5.2031,-5.1816,-5.1387,-5.1387,-5.1621,-5.2031,-5.2031,-5.2031,-5.1992,-5.1562,-5.0644,-4.9394,-4.8105,-4.5508,-4.2461,-4.2012,-3.9941,-3.7285,-3.6387,-3.5254,-3.4434,-3.5684,-3.6055,-3.6515,-3.876,-4.0246,-4.0463,-3.7179,0.0,-3.7044,-3.6624,-3.6616,-3.6797,-3.7656,-4.037,-4.3294,-4.5822,-4.821,-5.0479,-5.2441,-5.2879,-5.308,-5.3582,-5.3683,-5.3683,-5.3543,-5.2354,-5.0767,-4.9226,-4.8209,-4.843,0.0,-4.9135,-4.9124,-5.1901,-4.8991,-4.878,-5.2658,-5.2756,-5.3265,-5.4514,-5.3148,-5.2078,-5.136,-4.648,-4.4096,-4.3945,-4.2042,-4.2196,-4.4075,-4.5662,-4.6043,-4.5386,-4.3071,-4.1404,-3.9887,-3.8107,-3.6797,-3.6035,-3.6016,-3.6016,-3.5976,-3.5527,-3.4805,-3.3984,0.0,0.0,0.0,0.0,0.0,0.0,0.0,0.0,0.0,0.0,0.0,0.0,0.0,0.0,0.0,0.0,-3.062,-3.2656,-3.4805,-3.8848,-4.2461,-4.5351,-4.7793,-4.9551,-5.0586,-5.1152,-5.1582,-5.1855,-5.1855,-5.1797,-5.166,-5.166,-5.1719,-5.1875,-5.2148,-5.2363,-5.2519,-5.2812,-5.2598,-5.2051,-5.1601,-5.0664,-4.9355,-4.7754,-4.548,-4.2665,0.0,-3.7246,-3.5019,-3.416,-3.3594,-3.3262,-3.3418,-3.3652,-3.4306,-3.661,-3.8638,-3.9752,-3.7887,0.0,-3.8136,-3.7642,-3.7862,-3.873,-4.0176,-4.1262,-4.3116,-4.6514,-4.7332,-4.8332,-5.1309,-5.1825,-5.2026,-5.2553,-5.3858,-5.4687,-5.4336,-5.4762,-5.4104,-5.1393,-5.1742,0.0,0.0,0.0,0.0,-5.3376,-5.3261,-5.3573,-5.4905,-5.6685,-5.7412,-5.6816,-5.5534,-5.379,-5.1677,-4.916,-4.6735,-4.4096,-4.3511,-4.4827,-4.8049,-4.8117,-4.7302,-4.5647,-4.414,-4.1869,-3.9049,-3.7507,-3.6875,-3.6816,-3.625,-3.6016,-3.5996,-3.5859,-3.5449,-3.4883,0.0,0.0,0.0,0.0,0.0,0.0,0.0,0.0,0.0,0.0,0.0,0.0,0.0,0.0,0.0,0.0,0.0,-3.1898,-3.3047,-3.6719,-4.0008,-4.2207,-4.4336,-4.6074,-4.7383,-4.7676,-4.8242,-4.9141,-4.9453,-4.9824,-5.0293,-5.0762,-5.1055,-5.1191,-5.1621,-5.1894,-5.2051,-5.2324,-5.1855,-5.0859,-5.0117,-4.8691,-4.6777,-4.4883,-4.2861,0.0,-3.7799,-3.5759,-3.4268,-3.265,-3.2012,-3.1855,-3.1738,-3.2455,-3.3557,-3.5272,-3.7449,-3.9352,-3.8864,-3.9375,-3.998,-3.9662,-3.9941,-4.0684,-4.1973,-4.2012,-4.2757,-4.6282,-4.6023,-4.6146,-4.9512,-4.9766,-4.9941,-5.1272,-5.2703,-5.3984,-5.5013,-5.5742,-5.544,-5.3507,-5.4034,-5.3984,0.0,0.0,0.0,-5.4503,-5.4485,-5.4667,-5.5486,-5.7461,-5.8024,-5.6791,-5.6327,-5.4744,-5.1677,-5.0096,-4.7502,-4.4096,-4.4096,-4.6146,-4.9961,-4.9604,-4.8474,-4.6632,-4.5296,-4.27,-3.9029,-3.7507,-3.6875,-3.6777,-3.623,-3.6016,-3.6016,-3.6016,-3.5859,-3.5527,0.0,0.0,0.0,0.0,0.0,0.0,0.0,0.0,0.0,0.0,0.0,0.0,0.0,0.0,0.0,0.0,0.0,0.0,-3.1466,-3.4289,-3.6799,-3.8328,-3.9648,-4.0976,-4.2226,-4.2305,-4.3144,-4.4824,-4.5644,-4.668,-4.791,-4.916,-4.9551,-4.9219,-4.9648,-5.0078,-5.0469,-5.0469,-4.9726,-4.8457,-4.7187,-4.4902,-4.207,-4.0092,-3.8366,-3.6959,-3.6039,-3.5574,-3.4958,-3.1998,-3.0721,-3.0351,-3.082,-3.2266,-3.4064,-3.493,-3.7176,-3.9449,-4.0055,-4.1152,-4.2188,-4.2388,-4.248,-4.2558,-4.3131,-4.2543,-4.2712,-4.5552,-4.4872,-4.4592,0.0,0.0,-4.7255,-4.9941,-5.0594,-5.2076,-5.5817,-5.5516,-5.5064,0.0,0.0,0.0,0.0,0.0,0.0,-5.5315,0.0,-5.2467,-5.4598,-5.5278,-5.5326,-5.4801,-5.5657,-5.4719,-5.1847,-4.9204,-4.6629,-4.4377,-4.4247,-4.6146,-4.9961,-4.9819,-4.925,-4.8116,-4.6352,-4.3477,-3.9929,-3.7987,-3.6816,-3.6074,-3.6055,-3.6035,-3.6016,-3.6016,-3.6016,-3.5898,0.0,0.0,0.0,0.0,0.0,0.0,0.0,0.0,0.0,0.0,0.0,0.0,0.0,0.0,0.0,0.0,0.0,0.0,-3.1973,-3.3696,-3.519,-3.6187,-3.7748,-3.9043,-4.0,-4.0664,-4.1387,-4.2148,-4.2363,-4.2812,-4.3437,-4.3769,-4.4219,-4.4746,-4.5176,-4.5605,-4.5996,-4.5996,-4.5449,-4.4473,-4.3496,-4.207,-4.0523,-4.0101,-3.9281,-3.8451,-3.7593,-3.7154,-3.6487,-3.3529,-3.1908,-3.1269,-3.1699,-3.2568,-3.4057,-3.6614,-3.8241,-3.9698,-4.1501,-4.2584,-4.3297,-4.3425,-4.3144,-4.3415,-4.4902,-4.414,-4.3907,-4.6469,-4.5355,-4.4135,0.0,0.0,0.0,-4.9565,-5.2929,0.0,-5.7826,-5.8905,0.0,-5.7449,0.0,-5.7474,-5.5566,-5.5491,0.0,0.0,-5.4696,-5.4794,-5.5683,-5.6773,-5.7021,-5.6476,-5.5876,-5.4952,-5.3824,-4.9445,-4.7603,-4.8506,-4.5552,-4.6146,-4.9961,-4.8506,-4.6491,-4.4264,-4.3486,-4.148,-3.8883,-3.7842,-3.7168,-3.6934,-3.6621,-3.6309,-3.6016,-3.6016,-3.6016,-3.5937,0.0,0.0,0.0,0.0,0.0,0.0,0.0,0.0,0.0,0.0,0.0,0.0,0.0,0.0,0.0,0.0,0.0,0.0,0.0,-3.3166,-3.4163,-3.4654,-3.4841,-3.524,-3.6122,-3.5992,-3.6406,-3.7226,-3.7793,-3.8476,-3.9277,-3.9844,-4.0351,-4.084,-4.1269,-4.1582,-4.1816,-4.1816,-4.1211,0.0,0.0,-3.8517,-3.7722,-3.7439,-3.7789,-3.8387,-3.7794,-3.7711,-3.7534,0.0,0.0,-3.25,-3.332,-3.4297,-3.5622,-3.8347,0.0,-4.1033,-4.3198,-4.4271,-4.4883,-4.5078,-4.4512,-4.4041,-4.4361,-4.3741,-4.3088,-4.3621,-4.2832,0.0,-4.2002,0.0,0.0,0.0,0.0,0.0,-5.8353,-5.9508,-5.991,0.0,-5.9633,0.0,-5.7474,-5.7323,-5.6972,0.0,-5.5892,-5.543,-5.4794,-5.5628,-5.5947,-5.5603,-5.4794,-5.3668,-5.1993,-4.8722,-4.7175,-4.7321,-4.5127,-4.5701,-4.865,-4.6588,-4.4718,-4.3152,0.0,-4.0986,-3.8516,-3.7851,-3.7363,-3.6992,-3.6758,-3.6406,-3.6016,-3.6016,-3.6016,-3.5957,0.0,0.0,0.0,0.0,0.0,0.0,0.0,0.0,0.0,0.0,0.0,0.0,0.0,0.0,0.0,0.0,0.0,0.0,0.0,0.0,-3.3394,-3.3555,-3.2036,-3.1529,-3.2264,-3.1055,-3.1011,-3.2176,-3.3054,-3.4082,-3.5273,-3.6387,-3.6934,-3.7012,-3.7383,-3.7578,-3.7637,-3.7578,-3.7053,-3.6091,-3.5343,-3.5078,-3.4833,0.0,-3.5624,-3.7583,-3.769,-3.7977,-3.8138,0.0,-3.6194,-3.4339,-3.5603,-3.6855,-3.8398,-4.0508,-4.1933,-4.3203,-4.4844,-4.5859,-4.6562,-4.6933,-4.6016,-4.4551,-4.3057,-4.2353,-4.1608,-3.9796,0.0,-3.9244,-3.9337,-4.0902,-4.3112,-4.605,0.0,-5.3808,-5.8378,-5.9006,-5.9608,-6.1215,-6.0964,-6.0261,-5.9257,-5.9081,-5.8579,-5.7449,-5.6796,-5.5584,-5.3401,-5.3832,-5.4047,-5.3975,-5.3545,-5.2009,-4.8997,-4.7714,-4.6211,-4.4527,-4.3945,-4.4677,-4.6588,-4.4527,-4.3565,-4.3106,-4.271,0.0,-3.8633,-3.8242,-3.7598,-3.6836,-3.6836,-3.6543,-3.6113,-3.6113,-3.6074,-3.5976,0.0,0.0,0.0,0.0,0.0,0.0,0.0,0.0,0.0,0.0,-2.6172,0.0,0.0,0.0,0.0,0.0,0.0,0.0,0.0,0.0,0.0,-3.3546,-3.2509,-3.2222,-3.2796,-3.1824,-3.1505,-3.1733,-3.0784,-3.0644,-3.1211,-3.1426,-3.1738,-3.2109,-3.2187,-3.2422,-3.2715,-3.2383,-3.2775,-3.3561,-3.3534,-3.3933,-3.4626,-3.6294,0.0,0.0,-3.8921,-3.8631,-3.8095,-4.081,-4.0107,-3.8057,-3.8418,-3.9922,-4.1894,-4.3711,-4.4648,-4.5332,-4.6328,-4.6973,-4.7383,-4.7441,-4.623,-4.4956,-4.4345,-4.3,0.0,0.0,-3.9795,-3.9158,-3.7914,-4.0099,-4.3363,-4.7029,0.0,0.0,0.0,0.0,-6.119,0.0,0.0,0.0,0.0,0.0,0.0,0.0,0.0,-5.7049,-5.5632,-5.5682,-5.5532,-5.506,-5.5106,-5.3472,-5.0453,-4.8634,-4.7306,-4.6441,-4.3228,-4.279,-4.4527,-4.2637,-4.1515,-4.0946,-4.0867,0.0,-3.9082,-3.9004,-3.8476,-3.7715,-3.7715,-3.7246,-3.6562,-3.6562,-3.6328,-3.6016,0.0,0.0,0.0,0.0,0.0,0.0,0.0,0.0,0.0,-2.8437,-2.9132,-2.8715,0.0,0.0,0.0,0.0,0.0,0.0,0.0,0.0,0.0,0.0,-3.3526,-3.3093,-3.3723,-3.2767,-3.1848,-3.0872,0.0,-2.9968,-2.9199,-2.9199,-2.9316,-2.9531,-2.9531,-2.9648,-2.9824,-2.9629,-3.0269,-3.1563,-3.2154,-3.3508,-3.5399,0.0,0.0,0.0,0.0,0.0,-3.9233,-4.0521,-4.1558,-4.2364,-4.2704,-4.332,-4.4562,-4.741,-4.7834,-4.7819,-4.9651,-4.9469,-4.8887,-4.8652,-4.6973,-4.5035,-4.371,0.0,0.0,0.0,-3.8172,-3.8065,-3.696,0.0,0.0,0.0,0.0,0.0,0.0,0.0,0.0,0.0,0.0,0.0,0.0,0.0,0.0,0.0,0.0,-5.7524,-5.6671,-5.6369,-5.5629,-5.4279,-5.4638,-5.3323,-4.9808,-4.9275,-4.7275,-4.3966,-4.3075,-4.2637,-4.2483,-4.1618,-4.1055,-4.084,-4.0625,0.0,-3.9551,-3.9297,-3.8691,-3.793,-3.793,-3.7539,-3.6992,-3.6992,-3.6875,-3.666,0.0,0.0,0.0,0.0,0.0,0.0,0.0,-2.6758,-2.7617,-3.0273,-3.1828,-3.1478,-2.8416,-2.9537,-3.033,0.0,0.0,0.0,0.0,0.0,0.0,0.0,0.0,0.0,0.0,0.0,0.0,0.0,-3.0999,0.0,0.0,0.0,0.0,0.0,-2.8301,-2.8301,-2.8301,-2.8601,-2.9513,0.0,0.0,-3.423,0.0,0.0,0.0,0.0,0.0,0.0,-4.029,0.0,-4.1969,-4.4821,-4.5527,-4.6343,-4.75,-5.0397,-5.0381,-5.0194,-5.2387,-5.1964,-5.0793,-5.0337,-4.8533,-4.6142,-4.3506,-4.1272,0.0,-3.6414,-3.6455,-3.6885,-3.6433,0.0,-4.0852,0.0,-4.507,0.0,0.0,0.0,0.0,0.0,0.0,0.0,0.0,0.0,0.0,0.0,0.0,0.0,-5.7072,-5.652,-5.5337,-5.3267,-5.3888,-5.2501,-4.8636,-4.902,-4.6817,-4.1892,-4.3065,-4.2778,-4.1308,-4.1211,-4.1172,-4.1152,-4.082,0.0,0.0,-3.9492,-3.8848,-3.8066,-3.8066,-3.7812,-3.7441,-3.7441,-3.7383,-3.7246,0.0,0.0,0.0,0.0,0.0,0.0,0.0,-2.707,-2.8613,-3.1601,-3.2093,-3.2155,-3.1725,-3.3016,-3.3173,0.0,0.0,0.0,0.0,0.0,0.0,0.0,0.0,0.0,0.0,0.0,0.0,0.0,0.0,0.0,0.0,0.0,0.0,0.0,0.0,0.0,-2.8388,-2.9618,0.0,0.0,0.0,0.0,0.0,0.0,0.0,0.0,0.0,0.0,0.0,0.0,0.0,-4.211,-4.4573,-4.8168,-5.1388,-5.1498,0.0,0.0,-5.2751,-5.3211,-5.3278,-5.2819,-5.1831,-4.9848,-4.6201,0.0,-3.9872,-3.6483,-3.6137,-3.6408,-3.6358,-3.701,0.0,0.0,0.0,-4.7205,0.0,0.0,0.0,0.0,0.0,0.0,0.0,0.0,0.0,0.0,0.0,0.0,-5.7072,-5.652,-5.551,-5.3942,-5.3418,-5.1733,-4.853,-4.7177,-4.5835,-4.4398,-4.2777,-4.1896,-4.1738,-4.1348,-4.1172,-4.1172,-4.1133,0.0,0.0,-3.9844,-3.9316,-3.8516,-3.8516,-3.8242,-3.7871,-3.7871,-3.7617,-3.7285,0.0,0.0,0.0,0.0,0.0,0.0,0.0,-2.7012,-2.8437,-3.2754,-3.4041,-3.471,-3.5423,-3.6082,-3.5017,0.0,0.0,0.0,0.0,0.0,0.0,0.0,0.0,0.0,0.0,0.0,0.0,0.0,0.0,0.0,0.0,0.0,0.0,0.0,0.0,0.0,0.0,-3.012,0.0,0.0,0.0,0.0,0.0,0.0,0.0,0.0,0.0,0.0,-3.9697,0.0,0.0,0.0,-4.2818,-4.5942,0.0,0.0,-5.2361,-5.308,-5.63,-5.7022,-5.6574,-5.581,-5.3152,-5.0209,-4.7551,0.0,-3.9481,-3.7502,-3.6723,-3.6358,-3.6358,-3.681,-3.7789,-3.9672,-4.035,-4.2635,-4.8309,0.0,0.0,0.0,0.0,0.0,0.0,0.0,0.0,0.0,0.0,0.0,-5.5637,-5.481,-5.3972,-5.3409,-5.1652,-4.9966,-4.8658,-4.6738,-4.4836,-4.2994,-4.2348,-4.2051,-4.1797,-4.1621,-4.1406,-4.1172,-4.1172,0.0,0.0,-4.0273,-3.9746,-3.8945,-3.8945,-3.8691,-3.832,-3.832,-3.8203,-3.8027,0.0,0.0,0.0,0.0,0.0,-2.4082,-2.6855,-2.709,-2.8574,-3.3105,-3.4629,-3.5992,-3.7923,-3.7156,-3.5596,-3.3377,0.0,0.0,0.0,0.0,0.0,0.0,0.0,0.0,0.0,0.0,0.0,-3.5211,-3.482,0.0,0.0,0.0,0.0,0.0,0.0,0.0,0.0,0.0,0.0,0.0,0.0,0.0,0.0,0.0,0.0,0.0,0.0,0.0,0.0,0.0,0.0,0.0,0.0,-4.3087,-4.6412,0.0,-5.1944,-5.3356,-5.7595,-5.8924,-5.9064,-5.8356,-5.5105,-5.1641,0.0,0.0,-3.9757,-3.8266,-3.7136,-3.6358,-3.6358,-3.6684,-3.7186,-3.7889,-3.8291,-4.0074,-4.4593,-4.5799,0.0,0.0,0.0,0.0,0.0,0.0,0.0,0.0,0.0,0.0,0.0,-5.2727,-5.1931,-5.1454,-4.9562,-4.799,-4.7047,-4.5535,-4.3796,-4.1992,-4.2148,-4.209,-4.1797,-4.168,-4.1445,-4.1172,-4.1172,0.0,0.0,-4.0527,-4.0078,-3.9414,-3.9414,-3.9141,-3.8769,-3.8769,-3.8691,-3.8535,0.0,0.0,0.0,0.0,0.0,0.0,0.0,-2.7461,-2.9375,-3.2402,-3.3164,-3.4794,-3.8287,-3.5445,-3.4566,-3.7643,0.0,0.0,0.0,0.0,0.0,0.0,0.0,0.0,0.0,0.0,-3.6634,-3.7186,-3.5866,-3.5146,-3.5099,0.0,0.0,0.0,0.0,0.0,0.0,0.0,0.0,0.0,0.0,0.0,-3.9697,0.0,0.0,0.0,0.0,0.0,0.0,0.0,0.0,0.0,0.0,-4.0124,-4.1681,-4.723,-5.0604,-5.2941,-5.5169,-5.7787,-5.9944,-5.9944,-5.8057,-5.5365,0.0,-4.6552,-4.1354,-3.8592,-3.7136,-3.6358,-3.6358,-3.6358,-3.6734,-3.7839,-3.8944,-4.0827,-4.4166,-4.6502,0.0,0.0,0.0,0.0,0.0,0.0,0.0,0.0,0.0,0.0,0.0,-5.0524,-4.9267,-4.7821,-4.7077,-4.5694,-4.3229,-4.3066,-4.2851,-4.2422,-4.2012,-4.1797,-4.1797,-4.1367,-4.1172,0.0,0.0,0.0,0.0,-4.0527,-4.0273,-3.9883,-3.9883,-3.9609,-3.9199,-3.9199,-3.8926,-3.8574,0.0,0.0,0.0,0.0,0.0,0.0,0.0,-2.5566,-2.6934,-3.0547,-3.0879,-3.2641,-3.7281,-3.5446,-3.5014,-3.7717,0.0,0.0,0.0,0.0,0.0,0.0,0.0,0.0,0.0,0.0,-3.681,-3.7739,-3.7345,-3.732,-3.769,-3.6895,-3.6208,0.0,0.0,0.0,0.0,0.0,0.0,0.0,0.0,-3.7663,-3.8015,0.0,0.0,0.0,0.0,0.0,0.0,0.0,0.0,0.0,0.0,0.0,0.0,-4.2961,-4.6687,-5.037,-5.2189,-5.4523,-5.6052,-5.4942,-5.2824,-5.0368,-4.7405,-4.3765,-4.035,-3.7939,-3.686,-3.6358,-3.6358,-3.6056,-3.6659,-3.9295,-3.9396,-4.0149,-4.3087,0.0,0.0,0.0,0.0,0.0,0.0,0.0,0.0,0.0,0.0,0.0,0.0,-5.0838,-4.9619,-4.7701,-4.5678,-4.4765,-4.479,-4.3698,-4.2715,-4.1992,-4.2148,-4.207,-4.1797,-4.166,-4.1445,0.0,0.0,0.0,0.0,-4.0976,-4.0723,-4.0293,-4.0019,-3.9609,-3.9199,-3.9199,-3.8945,-3.8613,0.0,0.0,0.0,0.0,0.0,0.0,0.0,-2.4629,-2.5644,-2.8398,-2.8672,-3.0587,-3.587,-3.433,-3.4337,-3.8067,0.0,0.0,0.0,0.0,0.0,0.0,0.0,0.0,0.0,-3.6081,-3.7211,-3.8944,-3.917,-3.9546,-4.0099,-3.9948,-3.9019,-3.7487,-3.6333,0.0,0.0,0.0,0.0,0.0,-3.7262,-3.7563,-3.8115,0.0,0.0,0.0,0.0,0.0,0.0,0.0,0.0,0.0,0.0,0.0,0.0,0.0,-4.3212,-4.6527,-4.9038,-5.1322,-5.2804,-5.2,-4.9967,0.0,0.0,-4.2333,-3.9622,-3.7588,-3.6734,-3.6358,-3.6358,-3.5906,-3.6358,-3.8843,-3.8693,-3.9195,-4.1982,0.0,0.0,0.0,0.0,0.0,0.0,0.0,0.0,0.0,0.0,0.0,0.0,-5.1084,-4.9541,-4.67,-4.4667,-4.4072,-4.4918,-4.3636,-4.2734,-4.2031,-4.2148,-4.1973,-4.1562,-4.1562,-4.1426,0.0,0.0,0.0,0.0,-4.1172,-4.1016,-4.0742,-4.0488,-4.0,-3.9492,-3.9648,-3.9316,-3.8994,0.0,0.0,0.0,0.0,0.0,0.0,0.0,0.0,0.0,-2.6191,-2.6699,-2.8921,-3.3966,-3.2219,-3.292,-3.8191,0.0,0.0,0.0,0.0,0.0,0.0,0.0,0.0,0.0,-3.6107,-3.7713,-4.045,-4.1078,-4.1706,-4.2283,-4.2785,-4.1304,-3.8191,-3.809,-3.7437,0.0,0.0,0.0,0.0,-3.7387,-3.809,0.0,0.0,0.0,0.0,0.0,0.0,0.0,0.0,0.0,0.0,0.0,0.0,0.0,0.0,0.0,0.0,0.0,-4.8134,-4.9816,-5.0293,-4.846,-4.6125,-4.4468,0.0,0.0,-3.7462,-3.6709,-3.6358,-3.6408,-3.5837,-3.5862,-3.7211,-3.729,-3.8216,-4.1128,0.0,0.0,0.0,0.0,0.0,0.0,0.0,0.0,0.0,0.0,0.0,0.0,-5.1148,-4.8909,-4.5131,-4.416,-4.3672,-4.3613,-4.3223,-4.2793,-4.2344,-4.1953,-4.1543,-4.1172,-4.1172,-4.1172,0.0,0.0,0.0,0.0,-4.1172,-4.1172,-4.1172,-4.1133,-4.0644,-3.998,-4.0371,-3.998,-3.9534,0.0,0.0,0.0,0.0,0.0,0.0,0.0,0.0,0.0,0.0,-2.6055,-2.7781,-3.0904,-3.0209,-3.1255,0.0,0.0,0.0,0.0,0.0,0.0,0.0,0.0,0.0,0.0,-3.6307,-3.7513,-3.9898,-4.1279,-4.2459,-4.3413,-4.3539,-4.2283,-3.9898,-3.9044,-3.7814,0.0,0.0,0.0,0.0,-3.7061,-3.7161,0.0,0.0,0.0,0.0,-3.5861,-3.5813,0.0,0.0,0.0,0.0,0.0,0.0,0.0,0.0,-3.9873,-4.0275,-4.1204,0.0,-4.266,-4.1957,-4.1304,-4.0475,0.0,0.0,0.0,0.0,0.0,0.0,0.0,0.0,-3.5235,-3.9066,-3.8497,-3.8949,-4.2724,0.0,0.0,0.0,0.0,0.0,0.0,0.0,0.0,0.0,0.0,0.0,0.0,-5.0164,-4.7506,-4.4551,-4.4004,-4.3398,-4.2734,-4.2637,-4.2207,-4.1465,-4.1367,-4.1269,-4.1172,-4.1172,-4.1172,0.0,0.0,0.0,-4.1172,-4.1172,-4.1172,-4.1133,-4.0801,-4.0547,-4.0391,-4.0488,-4.0195,-3.9785,0.0,0.0,0.0,0.0,0.0,0.0,0.0,0.0,0.0,0.0,0.0,0.0,0.0,0.0,0.0,0.0,0.0,0.0,0.0,0.0,0.0,0.0,0.0,-3.47,-3.5604,-3.6358,-3.809,-4.0827,-4.1957,-4.3489,-4.5321,-4.4819,-4.3388,-4.1178,-3.8793,-3.7086,0.0,0.0,0.0,-3.6383,-3.6684,0.0,0.0,0.0,0.0,0.0,-3.5158,-3.5282,0.0,-3.7517,-3.8015,-3.8191,0.0,0.0,0.0,0.0,-3.9697,-3.9697,-3.9697,-3.9898,-3.9998,-3.9396,-3.9069,-3.8642,-3.7764,0.0,0.0,0.0,0.0,0.0,0.0,0.0,0.0,-3.8542,-3.8728,-4.0474,0.0,0.0,0.0,0.0,0.0,0.0,0.0,0.0,0.0,0.0,0.0,0.0,0.0,-4.9351,-4.6866,-4.4394,-4.3769,-4.3203,-4.2734,-4.2519,-4.2109,-4.1465,-4.1465,-4.1367,-4.1172,-4.1172,-4.1172,0.0,0.0,0.0,-4.1172,-4.1172,-4.1172,-4.1152,-4.0918,-4.0703,-4.0547,-4.0742,-4.043,-4.0073,0.0,0.0,0.0,0.0,0.0,0.0,0.0,0.0,0.0,0.0,0.0,0.0,0.0,0.0,0.0,0.0,0.0,0.0,0.0,0.0,0.0,0.0,0.0,-3.4801,-3.5203,-3.6358,-3.8567,-4.1907,-4.2785,-4.4518,-4.7004,-4.6476,-4.4819,-4.2108,-3.8442,-3.6383,0.0,0.0,-3.5855,-3.6358,-3.6358,0.0,0.0,0.0,0.0,0.0,0.0,0.0,0.0,-3.7121,-3.7667,-3.809,-3.922,0.0,0.0,0.0,0.0,0.0,-3.9898,-3.9948,-3.9848,-3.929,-3.8689,-3.8141,-3.7568,0.0,0.0,0.0,0.0,0.0,0.0,0.0,0.0,0.0,0.0,0.0,0.0,0.0,0.0,0.0,0.0,0.0,0.0,0.0,0.0,0.0,0.0,0.0,0.0,-4.8425,-4.6147,-4.4199,-4.3398,-4.2949,-4.2891,-4.2519,-4.2129,-4.1699,-4.1699,-4.1523,-4.1172,-4.1172,-4.1172,-4.1172,0.0,0.0,-4.1172,-4.1172,-4.1172,-4.1172,-4.1172,-4.0957,-4.0664,-4.1035,-4.0723,-4.0381,0.0,0.0,0.0,0.0,0.0,0.0,0.0,0.0,0.0,0.0,0.0,0.0,0.0,0.0,0.0,0.0,0.0,0.0,0.0,0.0,0.0,-3.5303,-3.4474,-3.5127,-3.7462,-3.6383,-3.7437,-4.0777,-4.3187,-4.507,-4.6476,-4.8661,-4.723,-4.271,-3.9798,-3.7663,-3.6207,-3.5755,-3.5855,-3.6358,-3.6358,0.0,0.0,0.0,0.0,0.0,0.0,0.0,0.0,-3.5027,-3.6382,-3.7513,-3.8642,0.0,0.0,0.0,0.0,0.0,-4.0827,-4.1078,-4.0308,-3.7345,-3.617,-3.5641,-3.5038,0.0,0.0,0.0,0.0,0.0,0.0,0.0,0.0,0.0,0.0,0.0,0.0,0.0,0.0,0.0,0.0,0.0,0.0,0.0,0.0,0.0,0.0,0.0,0.0,-4.6696,-4.3962,-4.3281,-4.2793,-4.2363,-4.1992,-4.1933,-4.168,-4.1269,-4.1269,-4.123,-4.1172,-4.1172,-4.1172,-4.1172,0.0,-4.1172,-4.1172,-4.1172,-4.1172,-4.1172,-4.1172,-4.1133,-4.1074,-4.1152,-4.1094,-4.1266,0.0,0.0,0.0,0.0,0.0,0.0,0.0,0.0,0.0,0.0,0.0,0.0,0.0,0.0,0.0,0.0,0.0,0.0,0.0,0.0,0.0,-3.7287,-3.5981,-3.5956,-3.7538,-3.799,-3.9722,-4.2735,-4.4618,-4.6552,-4.851,-4.8008,-4.5899,-4.2409,-3.932,-3.7186,-3.5906,-3.5655,-3.568,-3.5956,0.0,0.0,0.0,0.0,0.0,0.0,0.0,0.0,0.0,0.0,-3.6039,-3.7387,-3.8517,0.0,0.0,0.0,0.0,0.0,-3.9496,-3.9546,-3.9113,-3.738,-3.6892,-3.6701,-3.5812,0.0,0.0,0.0,0.0,0.0,0.0,0.0,0.0,0.0,0.0,0.0,0.0,0.0,0.0,0.0,0.0,0.0,0.0,0.0,0.0,0.0,0.0,0.0,0.0,0.0,-4.293,-4.2734,-4.2305,-4.1992,-4.1797,-4.1562,-4.1367,-4.1172,-4.1172,-4.1172,-4.1172,-4.1172,-4.1172,-4.1172,0.0,-4.1172,-4.1172,-4.1172,-4.1172,-4.1172,-4.1172,-4.1172,-4.1152,-4.0918,-4.082,-4.1262,0.0,0.0,0.0,0.0,0.0,0.0,0.0,0.0,0.0,0.0,0.0,0.0,0.0,0.0,0.0,0.0,0.0,0.0,0.0,0.0,-3.6433,-3.8391,-3.7362,-3.7362,-3.8718,-3.9898,-4.2057,-4.5221,-4.6602,-4.8686,-5.1322,-4.7857,-4.4995,-4.2585,-3.9245,-3.701,-3.573,-3.5604,-3.5629,-3.578,0.0,0.0,0.0,0.0,0.0,0.0,0.0,0.0,0.0,0.0,0.0,0.0,0.0,0.0,0.0,-3.8617,-3.8668,-3.8617,-3.8442,-3.8391,-3.8391,-3.8153,0.0,-3.7798,-3.7726,0.0,0.0,0.0,0.0,0.0,0.0,0.0,0.0,0.0,0.0,0.0,0.0,0.0,0.0,0.0,0.0,0.0,0.0,0.0,0.0,0.0,0.0,0.0,0.0,0.0,-4.2226,-4.2129,-4.1816,-4.166,-4.166,-4.1328,-4.1172,-4.1172,-4.1172,-4.1172,-4.1172,-4.1172,-4.1172,-4.1172,-4.1172,-4.1172,-4.1172,-4.1172,-4.1172,-4.1172,-4.1172,-4.1172,-4.1133,-4.0801,-4.0684,-4.1104,0.0,0.0,0.0,0.0,0.0,0.0,0.0,0.0,0.0,0.0,0.0,0.0,0.0,0.0,0.0,0.0,0.0,0.0,0.0,0.0,-3.6081,-3.7262,-3.7688,-3.9597,-4.3237,-4.148,-4.2635,-4.6954,-4.9088,-5.1548,-5.4185,-5.0343,-4.7079,-4.4292,-4.0978,-3.8316,-3.6282,-3.5755,-3.583,-3.6307,-3.6332,0.0,0.0,0.0,0.0,0.0,0.0,0.0,0.0,0.0,0.0,0.0,0.0,0.0,-3.7412,-3.7914,-3.8065,-3.8291,-3.9295,-3.9572,-3.9597,-3.9569,-3.7849,0.0,-4.0002,-3.8366,0.0,0.0,0.0,0.0,0.0,0.0,0.0,0.0,0.0,0.0,0.0,0.0,0.0,0.0,0.0,0.0,0.0,0.0,0.0,0.0,0.0,0.0,0.0,0.0,0.0,-4.1269,-4.123,-4.1211,-4.1211,-4.1191,-4.1172,-4.1172,-4.1172,-4.1172,-4.1172,-4.1172,-4.1172,-4.1172,-4.1172,-4.1172,-4.1172,-4.1172,-4.1172,-4.1172,-4.1172,-4.1172,-4.1172,-4.1133,-4.1133,-4.1424,0.0,0.0,0.0,0.0,0.0,0.0,0.0,0.0,0.0,0.0,0.0,0.0,0.0,0.0,0.0,0.0,0.0,0.0,0.0,-3.4525,-3.583,-3.7613,-3.7889,-3.9496,-4.271,-4.3664,-4.6125,-5.0218,-5.2076,-5.3005,-5.2955,-4.9063,-4.5748,-4.2961,-3.9973,-3.799,-3.6835,-3.6282,-3.6358,-3.6835,-3.6508,-3.6358,0.0,0.0,0.0,0.0,0.0,0.0,0.0,0.0,-3.4142,-3.6458,-3.701,-3.7186,-3.7236,-3.7437,-3.7487,-3.7513,-3.7588,-3.8391,-3.927,-3.9622,0.0,0.0,0.0,0.0,0.0,0.0,0.0,0.0,0.0,0.0,0.0,0.0,0.0,0.0,0.0,0.0,0.0,0.0,0.0,0.0,0.0,0.0,0.0,0.0,0.0,0.0,0.0,0.0,0.0,-4.1172,-4.1172,-4.1172,-4.1172,-4.1172,-4.1172,-4.1172,-4.1172,-4.1172,-4.1172,-4.1172,-4.1172,-4.1172,-4.1172,-4.1172,-4.1172,-4.1172,-4.1172,-4.1172,-4.1172,-4.1172,-4.1172,-4.1172,-4.1172,-4.1618,0.0,0.0,0.0,0.0,0.0,0.0,0.0,0.0,0.0,0.0,0.0,0.0,0.0,0.0,0.0,0.0,0.0,0.0,-3.3319,-3.4048,-3.5378,-3.7387,-3.7663,-3.912,-4.2082,-4.5045,-4.8134,-5.1322,-5.3507,-5.3632,-5.1774,-4.8234,-4.5271,-4.2811,-3.9407,-3.7991,-3.8165,-3.6577,-3.6425,-3.7136,-3.6584,-3.6358,0.0,0.0,0.0,0.0,0.0,0.0,0.0,0.0,-3.4459,-3.6433,-3.681,-3.6935,-3.6935,-3.6935,-3.6621,-3.6329,-3.6363,-3.6895,-3.7616,0.0,0.0,0.0,0.0,0.0,0.0,0.0,0.0,0.0,0.0,0.0,0.0,0.0,0.0,0.0,0.0,0.0,0.0,0.0,0.0,0.0,0.0,0.0,0.0,0.0,0.0,0.0,0.0,0.0,0.0,0.0,-4.1172,-4.1172,-4.1172,-4.1172,-4.1172,-4.1172,-4.1172,-4.1172,-4.1172,-4.1172,-4.1172,-4.1172,-4.1172,-4.1172,-4.1172,-4.1172,-4.1172,-4.1172,-4.1172,-4.1172,-4.1172,-4.1172,-4.1172,-4.1773,0.0,0.0,0.0,0.0,0.0,0.0,0.0,0.0,0.0,0.0,0.0,0.0,0.0,0.0,0.0,0.0,0.0,0.0,-3.3709,-3.3897,-3.4625,-3.6257,-3.6885,-3.8718,-4.2032,-4.5372,-4.7933,-4.964,-5.2929,-5.3406,-5.1172,-4.841,-4.62,-4.4327,-3.9673,-3.8664,-4.0245,-3.656,-3.5866,-3.7136,-3.6584,-3.6358,-3.6358,0.0,0.0,0.0,0.0,0.0,0.0,0.0,-3.5283,-3.6358,-3.6358,-3.6358,-3.6358,-3.6358,-3.5475,-3.4678,-3.6073,-3.5379,0.0,0.0,0.0,0.0,0.0,0.0,0.0,0.0,0.0,0.0,0.0,0.0,0.0,0.0,0.0,0.0,0.0,0.0,0.0,0.0,0.0,0.0,0.0,0.0,0.0,0.0,0.0,0.0,0.0,0.0,0.0,0.0,-4.1172,-4.1172,-4.1172,-4.1172,-4.1172,-4.1172,-4.1172,-4.1172,-4.1172,-4.1172,-4.1172,-4.1172,-4.1172,-4.1172,-4.1172,-4.1172,-4.1172,-4.1172,-4.1172,-4.1172,-4.1172,-4.1172,-4.1172,-4.1773,0.0,0.0,0.0,0.0,0.0,0.0,0.0,0.0,0.0,0.0,0.0,0.0,0.0,0.0,0.0,0.0,0.0,0.0,-3.2081,-3.3244,-3.4123,-3.46,-3.5906,-3.7262,-3.8617,-4.2308,-4.6928,-5.2477,-5.2327,-5.0921,-4.8335,-4.6728,-4.4468,-4.1622,-3.9902,-3.9382,-3.9744,-3.6699,-3.6299,-3.7713,-3.7161,-3.6709,-3.6408,0.0,0.0,0.0,0.0,0.0,0.0,0.0,0.0,0.0,-3.6358,-3.5914,-3.5551,-3.6173,-3.5624,-3.4837,-3.4969,-3.5569,0.0,0.0,0.0,0.0,0.0,0.0,0.0,0.0,0.0,0.0,0.0,0.0,0.0,0.0,0.0,0.0,0.0,0.0,0.0,0.0,0.0,0.0,0.0,0.0,0.0,0.0,0.0,0.0,0.0,0.0,0.0,0.0,-4.1172,-4.1172,-4.1172,-4.1172,-4.1172,-4.1172,-4.1172,-4.1172,-4.1172,-4.1172,-4.1172,-4.1172,-4.1172,-4.1172,-4.1172,-4.1172,-4.1172,-4.1172,-4.1172,-4.1172,-4.1172,-4.1172,-4.2042,-4.3663,0.0,0.0,0.0,0.0,0.0,0.0,0.0,0.0,0.0,0.0,-2.6992,0.0,0.0,0.0,0.0,0.0,0.0,0.0,0.0,-3.2735,-3.3771,-3.4198,-3.5403,-3.701,-3.912,-4.1681,-4.5196,-4.9766,-4.9464,-4.8008,-4.5497,-4.5723,-4.4245,-4.1345,-4.1701,-4.1293,-4.0282,-3.8,-3.7418,-3.7965,-3.7412,-3.6985,-3.6709,0.0,0.0,0.0,0.0,0.0,0.0,0.0,0.0,0.0,-3.6358,-3.5985,-3.5722,-3.6518,-3.5599,-3.4599,-3.5623,0.0,0.0,0.0,0.0,0.0,0.0,0.0,0.0,0.0,0.0,0.0,0.0,0.0,0.0,0.0,0.0,0.0,0.0,0.0,0.0,0.0,0.0,0.0,0.0,0.0,0.0,0.0,0.0,0.0,0.0,0.0,0.0,0.0,-4.1172,-4.1172,-4.1172,-4.1172,-4.1172,-4.1172,-4.1172,-4.1172,-4.1172,-4.1172,-4.1172,-4.1172,-4.1172,-4.1172,-4.1172,-4.1172,-4.1172,-4.1172,-4.1172,-4.1172,-4.1172,-4.1172,-4.1907,-4.3359,0.0,0.0,0.0,0.0,0.0,0.0,0.0,0.0,0.0,0.0,-2.6367,-2.623,0.0,0.0,0.0,0.0,0.0,0.0,0.0,0.0,-3.3446,-3.4495,-3.5386,-3.7839,-4.1907,-4.2434,-4.2911,-4.3438,-4.507,-4.4794,-4.2811,-4.4953,-4.4572,-4.2437,-4.3796,-4.3269,-4.1398,-3.9486,-3.8437,-3.7889,-3.7437,-3.7089,-3.6821,-3.5668,0.0,0.0,0.0,0.0,0.0,0.0,0.0,0.0,-3.6358,-3.6288,-3.6413,-3.6985,-3.5428,-3.4246,0.0,0.0,0.0,0.0,0.0,0.0,0.0,0.0,0.0,0.0,0.0,0.0,0.0,0.0,0.0,0.0,0.0,0.0,0.0,0.0,0.0,0.0,0.0,0.0,0.0,0.0,0.0,0.0,0.0,0.0,0.0,0.0,0.0,-4.1172,-4.1172,-4.1172,-4.1172,-4.1172,-4.1152,-4.1113,-4.1113,-4.1094,-4.1055,-4.1094,-4.1113,-4.1113,-4.1152,-4.1172,-4.1172,-4.1172,-4.1172,-4.1172,-4.1172,-4.1172,-4.1172,-4.1172,-4.1327,-4.1907,0.0,0.0,0.0,0.0,0.0,0.0,0.0,0.0,0.0,0.0,0.0,0.0,0.0,0.0,0.0,0.0,0.0,0.0,0.0,0.0,-3.2629,-3.3256,-3.6824,-3.9446,-4.0827,-4.0551,-4.045,-4.0576,-4.1806,-4.1932,-4.1103,-4.2171,-4.2233,-4.1184,-4.0434,-4.0285,-4.02,-3.6809,-3.6143,-3.7387,-3.7688,-3.6702,-3.504,-3.5633,-3.3912,0.0,0.0,0.0,0.0,0.0,0.0,0.0,-3.6358,-3.5842,-3.5427,-3.6322,-3.5673,-3.5051,0.0,0.0,0.0,0.0,0.0,0.0,0.0,0.0,0.0,0.0,0.0,0.0,0.0,0.0,0.0,0.0,0.0,0.0,0.0,0.0,0.0,0.0,0.0,0.0,0.0,0.0,0.0,0.0,0.0,0.0,0.0,0.0,0.0,-4.1172,-4.1172,-4.1172,-4.1172,-4.1172,-4.0996,0.0,-4.0664,-4.0488,-4.0176,-4.0508,-4.0664,-4.0684,-4.1035,-4.1172,-4.1172,-4.1172,-4.1172,-4.1172,-4.1172,-4.1172,-4.1172,-4.1172,-4.2196,-4.3663,0.0,0.0,0.0,0.0,0.0,0.0,0.0,0.0,0.0,0.0,0.0,0.0,0.0,0.0,0.0,0.0,0.0,0.0,0.0,0.0,-3.1644,-3.2868,-3.6386,-3.8417,-3.8712,-3.8442,-3.8382,-3.8492,-3.8793,-3.8888,-3.868,-4.0302,-4.0306,-3.9019,-4.032,-3.9748,-3.7754,-3.6228,-3.5611,-3.5604,-3.5628,-3.5058,-3.4116,-3.3753,-3.2257,-3.0307,-3.0307,0.0,0.0,0.0,0.0,0.0,0.0,0.0,-3.577,-3.6568,-3.6081,-3.5698,0.0,0.0,0.0,0.0,0.0,0.0,0.0,0.0,0.0,0.0,0.0,0.0,0.0,0.0,0.0,0.0,0.0,0.0,0.0,0.0,0.0,0.0,0.0,0.0,0.0,0.0,0.0,0.0,0.0,0.0,0.0,-4.1172,-4.1172,-4.1172,-4.1172,-4.1172,-4.1172,-4.0976,-4.0742,-4.0527,-4.0312,-4.0098,-3.9902,-4.0332,-4.0644,-4.084,-4.1074,-4.1055,-4.0879,-4.1094,-4.1055,-4.0879,-4.1094,-4.1172,-4.1152,-4.0937,-4.1436,-4.2424,0.0,0.0,0.0,0.0,0.0,0.0,0.0,0.0,0.0,0.0,0.0,0.0,0.0,0.0,0.0,0.0,0.0,0.0,0.0,0.0,0.0,-3.3617,-3.5606,-3.6844,-3.7252,-3.6749,-3.686,-3.7337,-3.6684,-3.6481,-3.6555,-3.877,-3.8769,-3.6999,-4.0192,-3.9215,-3.5394,-3.5873,-3.5109,-3.3518,-3.333,-3.3168,-3.2994,-3.1635,-3.0621,-2.9807,-2.8708,-2.9217,-3.0307,-3.0307,0.0,0.0,0.0,0.0,-3.6148,-3.691,-3.6408,-3.6257,0.0,0.0,0.0,0.0,0.0,0.0,0.0,0.0,0.0,0.0,0.0,0.0,0.0,0.0,0.0,0.0,0.0,0.0,0.0,0.0,0.0,0.0,0.0,0.0,0.0,0.0,0.0,0.0,0.0,0.0,-4.1308,-4.1094,-4.1094,-4.1172,-4.1172,-4.1172,-4.1172,-4.0742,-4.0488,-4.041,-3.9902,-3.9746,-3.9902,-4.0254,-4.0605,-4.0957,-4.1113,-4.0879,-4.0449,-4.0879,-4.0801,-4.0449,-4.0801,-4.0957,-4.0918,-4.0547,-4.041,-4.0504,0.0,0.0,0.0,0.0,0.0,0.0,0.0,0.0,0.0,0.0,-2.5273,0.0,0.0,0.0,0.0,0.0,0.0,0.0,-2.5917,0.0,0.0,-3.6504,-3.6759,-3.7557,-3.9237,-3.7224,-3.6666,-3.7889,-3.686,0.0,0.0,0.0,-3.7132,-3.6808,-3.5402,-3.4754,-3.471,-3.2643,-3.2036,-3.2555,-3.3061,-3.2251,-3.0747,-3.0979,-3.0007,-2.8495,-2.8388,-2.9217,-3.0307,-3.0307,-3.1338,0.0,0.0,0.0,-3.4896,-3.6148,-3.6358,-3.6659,0.0,0.0,0.0,0.0,0.0,0.0,0.0,0.0,0.0,0.0,0.0,0.0,0.0,0.0,0.0,0.0,0.0,0.0,0.0,0.0,0.0,0.0,0.0,0.0,0.0,0.0,0.0,0.0,0.0,0.0,-4.1308,-4.082,-4.0781,-4.1172,-4.1172,-4.1172,-4.1172,-4.0742,-4.0332,-3.9961,-3.9141,-3.916,-3.9902,-3.9961,-4.0019,-4.0098,-4.0859,-4.0723,-4.0019,-4.043,-4.0351,-3.998,-4.0039,-4.0059,-4.0059,-4.0,-3.998,-3.998,0.0,0.0,0.0,0.0,0.0,0.0,0.0,0.0,0.0,0.0,0.0,-2.6191,0.0,0.0,0.0,-2.6094,-2.5879,-2.584,-2.6094,-2.8544,-3.0548,-3.1816,-3.2463,-3.3344,-3.4463,-3.3853,-3.4322,-3.5966,0.0,0.0,0.0,-3.6567,-3.6635,0.0,0.0,-3.3776,-3.3578,-3.1164,-3.0289,-3.039,-3.0453,-3.0196,-2.9904,-2.9621,-2.9112,-2.8613,-2.8379,-2.8708,-2.9197,-2.9197,-3.012,-3.1418,-3.2755,0.0,0.0,0.0,0.0,0.0,0.0,0.0,0.0,0.0,0.0,0.0,0.0,0.0,0.0,0.0,0.0,0.0,0.0,0.0,0.0,0.0,0.0,0.0,0.0,0.0,0.0,0.0,0.0,0.0,0.0,0.0,0.0,0.0,0.0,-4.2631,-4.0955,-4.041,-4.0254,-4.0449,-4.0449,-4.0449,-4.0449,-4.0019,-3.957,-3.916,-3.9004,-3.9121,-3.9512,-3.9766,-4.0019,-4.0273,-4.0644,-4.0312,-3.9551,-3.998,-3.9902,-3.9531,-3.9785,-3.9902,-3.9863,-3.9609,-3.9512,-3.9473,0.0,0.0,0.0,0.0,0.0,0.0,0.0,0.0,0.0,0.0,0.0,0.0,0.0,0.0,0.0,0.0,-2.5918,-2.5977,-2.6685,-2.7744,-2.839,-2.8289,-2.9123,-2.988,-3.0632,-3.0787,-3.1757,-3.3684,0.0,0.0,-3.5982,-3.6816,-3.7108,0.0,-3.5195,-3.3867,0.0,0.0,0.0,-2.9512,-2.8633,-2.8672,-2.918,-2.8535,-2.8496,-2.8711,-2.8398,-2.8301,-2.8301,-2.8301,-2.9006,-3.0016,-3.1316,-3.2755,0.0,0.0,0.0,0.0,0.0,0.0,0.0,0.0,0.0,0.0,0.0,0.0,0.0,0.0,0.0,0.0,0.0,0.0,0.0,0.0,0.0,0.0,0.0,0.0,0.0,0.0,0.0,0.0,0.0,0.0,0.0,0.0,0.0,-4.1814,-4.0351,-3.9961,-3.9766,-3.9883,-3.9902,-3.9902,-3.9902,-3.9434,-3.8984,-3.8574,-3.8887,-3.9101,-3.9219,-3.9551,-3.9902,-4.0195,-4.0312,-3.9863,-3.9082,-3.9531,-3.9453,-3.9082,-3.9414,-3.957,-3.9512,-3.918,-3.9043,-3.9004,0.0,0.0,0.0,0.0,0.0,0.0,0.0,0.0,0.0,0.0,0.0,0.0,-2.6426,-2.6406,-2.623,-2.5801,-2.5742,-2.6207,-2.7431,-2.8136,-2.885,-3.0036,-2.9418,0.0,-3.1538,-2.999,-2.999,0.0,0.0,0.0,-3.5539,-3.7191,-3.8618,-3.957,-3.6641,-3.4609,-3.3281,0.0,0.0,0.0,-2.9121,-2.832,-2.8359,-2.832,-2.8301,-2.832,-2.8301,0.0,-2.8301,-2.8301,-2.8408,-2.8601,0.0,0.0,0.0,0.0,0.0,0.0,0.0,0.0,0.0,0.0,0.0,0.0,0.0,0.0,0.0,0.0,0.0,0.0,0.0,0.0,0.0,0.0,0.0,0.0,0.0,0.0,0.0,0.0,0.0,0.0,0.0,0.0,0.0,0.0,0.0,-3.9602,-3.9902,-3.9492,-3.9434,-3.9883,-3.9902,-3.9902,-3.9902,-3.9434,-3.8984,-3.8574,-3.8594,-3.8809,-3.9199,-3.9219,-3.9258,-3.9297,-3.9746,-3.9434,-3.8633,-3.9062,-3.8984,-3.8613,-3.8633,-3.8652,-3.8633,-3.8613,-3.8613,-3.8613,0.0,0.0,0.0,0.0,0.0,0.0,0.0,0.0,0.0,0.0,0.0,0.0,0.0,-2.6543,-2.6328,-2.6172,-2.5898,-2.5917,-2.638,-2.654,-2.6891,-2.7256,-2.7053,-2.7337,-2.828,-2.8119,-2.8879,0.0,0.0,-3.2369,-3.4289,-3.5227,-3.5889,-3.6523,-3.5742,-3.5137,-3.4492,-3.1367,0.0,0.0,0.0,0.0,-2.8672,-2.8398,0.0,0.0,0.0,0.0,0.0,0.0,0.0,0.0,0.0,0.0,0.0,0.0,0.0,0.0,0.0,0.0,0.0,0.0,0.0,0.0,0.0,0.0,0.0,0.0,0.0,0.0,0.0,0.0,0.0,0.0,0.0,0.0,0.0,0.0,0.0,0.0,0.0,0.0,0.0,0.0,0.0,0.0,0.0,-3.9277,-3.9434,-3.9043,-3.8887,-3.9043,-3.9043,-3.9043,-3.9043,-3.8887,-3.873,-3.8574,-3.8281,-3.8379,-3.8789,-3.8223,-3.8125,-3.8379,-3.8555,-3.8613,-3.8594,-3.875,-3.8711,-3.8574,-3.8574,-3.8574,-3.8574,-3.8574,-3.8574,-3.8574,0.0,0.0,0.0,0.0,0.0,0.0,0.0,0.0,0.0,0.0,0.0,0.0,0.0,0.0,-2.6484,-2.6191,-2.5898,-2.5742,-2.5742,-2.5742,-2.5801,-2.5957,-2.582,-2.6074,-2.6797,-2.7097,-2.7754,0.0,0.0,0.0,0.0,-3.3575,-3.4309,-3.4922,-3.4492,-3.4883,0.0,0.0,0.0,-3.0937,0.0,0.0,-2.9316,0.0,0.0,0.0,0.0,0.0,0.0,0.0,0.0,0.0,0.0,0.0,0.0,0.0,0.0,0.0,-3.4583,0.0,0.0,0.0,0.0,0.0,0.0,0.0,0.0,0.0,0.0,0.0,0.0,0.0,0.0,0.0,0.0,0.0,0.0,0.0,0.0,0.0,0.0,0.0,0.0,0.0,0.0,0.0,0.0,0.0,-3.8984,-3.873,-3.8574,-3.8574,-3.8574,-3.8574,-3.8574,-3.8574,-3.8496,-3.8359,-3.8066,-3.8008,-3.8125,-3.7559,-3.7461,-3.7715,-3.7715,-3.7949,-3.8359,-3.8516,-3.8574,-3.8574,-3.8574,-3.8574,-3.8574,-3.8574,-3.8574,-3.8574,0.0,0.0,0.0,0.0,0.0,0.0,0.0,0.0,0.0,0.0,0.0,0.0,0.0,0.0,0.0,-2.5879,-2.582,-2.5801,-2.5762,-2.5762,-2.5937,-2.6367,-2.5977,-2.6348,-2.7617,-2.6836,-2.6816,-2.7676,0.0,0.0,0.0,0.0,-3.4106,-3.5195,-3.3105,-3.3809,-3.6504,0.0,-3.4746,-3.3711,0.0,-2.9453,-3.0234,0.0,0.0,0.0,-3.0918,-3.0371,0.0,0.0,0.0,0.0,0.0,0.0,0.0,0.0,0.0,0.0,0.0,0.0,0.0,0.0,0.0,0.0,0.0,0.0,0.0,0.0,0.0,0.0,0.0,0.0,0.0,0.0,0.0,0.0,0.0,0.0,0.0,0.0,0.0,0.0,0.0,0.0,0.0,0.0,-3.8828,-3.8574,-3.8574,-3.8574,-3.8574,-3.8574,-3.8574,-3.8574,-3.8555,-3.8555,-3.834,-3.791,-3.7891,-3.7676,-3.7305,-3.7266,-3.7266,-3.7285,-3.7285,-3.75,-3.791,-3.8359,-3.8555,-3.8555,-3.8555,-3.8555,-3.8574,-3.8574,-3.8574,-3.8574,0.0,0.0,0.0,0.0,0.0,0.0,0.0,0.0,0.0,0.0,0.0,0.0,0.0,-2.7832,-2.7851,-2.7598,-2.7578,-2.7187,-2.6269,-2.6211,-2.6269,-2.6387,-2.6269,-2.6523,-2.7187,-2.6953,-2.7109,-2.7676,-2.7736,-2.8371,-2.9473,-2.9905,-3.1011,0.0,-3.2617,-3.3086,-3.373,-3.1601,0.0,0.0,-2.9941,-2.9824,0.0,0.0,0.0,0.0,0.0,-3.1387,0.0,0.0,-2.9922,-2.9668,0.0,0.0,0.0,0.0,0.0,0.0,-3.0466,0.0,0.0,0.0,0.0,0.0,-4.1056,0.0,0.0,0.0,0.0,0.0,0.0,0.0,0.0,0.0,0.0,0.0,0.0,0.0,0.0,0.0,0.0,0.0,0.0,0.0,0.0,0.0,-3.9004,-3.8574,-3.8574,-3.8574,-3.8574,-3.8574,-3.8574,-3.8418,-3.8105,-3.8105,-3.7891,-3.7461,-3.7168,-3.7109,-3.7266,-3.666,-3.6543,-3.6836,-3.6836,-3.6914,-3.7051,-3.748,-3.7832,-3.8105,-3.8105,-3.8301,-3.8574,-3.8574,-3.8574,-3.8574,0.0,0.0,0.0,0.0,0.0,0.0,0.0,0.0,0.0,0.0,0.0,0.0,-2.8437,-2.916,-2.9336,-2.8613,-2.8398,-2.791,-2.6973,-2.6758,-2.6738,-2.6914,-2.6738,-2.6934,-2.7539,-2.7383,-2.75,-2.793,-2.7676,-2.793,-2.8652,-2.8652,-2.9297,-3.0449,0.0,0.0,0.0,0.0,0.0,0.0,-3.0508,0.0,0.0,-3.2129,-3.2617,0.0,0.0,0.0,-3.3301,-3.1894,-3.1055,0.0,0.0,0.0,0.0,0.0,0.0,0.0,-2.9207,-2.9683,0.0,0.0,0.0,0.0,-3.7892,-3.9531,0.0,0.0,0.0,0.0,0.0,0.0,0.0,0.0,0.0,0.0,0.0,0.0,0.0,0.0,0.0,0.0,0.0,-4.1441,-4.0384,-3.9504,-3.8867,-3.8574,-3.8574,-3.8574,-3.8574,-3.8574,-3.8574,-3.8359,-3.793,-3.793,-3.7617,-3.7031,-3.6797,-3.6699,-3.6738,-3.625,-3.6152,-3.6406,-3.6406,-3.6406,-3.6426,-3.666,-3.7226,-3.793,-3.793,-3.8184,-3.8574,-3.8574,-3.8574,-3.8574,0.0,0.0,0.0,0.0,0.0,0.0,0.0,0.0,0.0,0.0,-2.9668,-2.9629,-3.0156,-3.1113,-3.1094,-2.9492,-2.8887,-2.834,-2.7773,-2.7324,-2.7266,-2.7656,-2.7285,-2.7461,-2.8281,-2.793,-2.791,-2.8301,-2.8301,-2.8301,-2.8301,-2.8301,-2.8496,-2.8828,0.0,0.0,0.0,0.0,0.0,-3.1309,-3.1406,-3.2305,0.0,0.0,-3.5273,0.0,-3.6094,-3.5879,-3.5293,-3.3223,-3.1582,0.0,0.0,0.0,0.0,0.0,-2.8027,0.0,0.0,-2.8047,-2.9124,0.0,0.0,0.0,-3.5939,-3.6946,-3.7864,0.0,0.0,0.0,0.0,0.0,0.0,0.0,0.0,0.0,0.0,0.0,0.0,0.0,0.0,0.0,-4.0863,-4.1269,-4.0945,-3.8818,-3.8613,-3.8574,-3.8574,-3.8535,-3.8535,-3.8574,-3.8476,-3.8242,-3.7851,-3.7812,-3.7383,-3.6601,-3.6601,-3.6387,-3.6016,-3.6016,-3.6016,-3.6016,-3.6016,-3.6016,-3.6016,-3.6016,-3.6719,-3.7793,-3.7832,-3.8125,-3.8516,-3.8555,-3.8574,-3.8574,-2.9375,0.0,0.0,0.0,0.0,0.0,0.0,0.0,0.0,-3.248,-3.2598,-3.2988,-3.4121,-3.3535,-3.2773,-3.2109,-3.1016,-2.9746,-2.8262,-2.7773,-2.7578,-2.7656,-2.7578,-2.7773,-2.8281,-2.8203,-2.8203,-2.8301,-2.8301,-2.8301,-2.8301,-2.8301,-2.834,-2.8418,0.0,0.0,0.0,0.0,0.0,-3.0019,-3.0723,0.0,-3.4473,-3.4629,-3.5469,-3.6543,-3.6543,-3.6699,-3.6699,0.0,-3.3437,-3.166,0.0,0.0,0.0,0.0,0.0,0.0,0.0,0.0,0.0,0.0,0.0,0.0,-3.4728,-3.6431,-3.7668,0.0,0.0,0.0,0.0,0.0,0.0,0.0,0.0,0.0,0.0,0.0,0.0,0.0,0.0,0.0,-4.3043,-4.1312,-3.9998,-3.9121,-3.8769,-3.8574,-3.8574,-3.8242,-3.8223,-3.8555,-3.791,-3.75,-3.7422,-3.709,-3.666,-3.6152,-3.6152,-3.6094,-3.6016,-3.6016,-3.6016,-3.6016,-3.6016,-3.6016,-3.6016,-3.6016,-3.6367,-3.6953,-3.7285,-3.7676,-3.8086,-3.8437,-3.8574,-3.8574,-2.9844,0.0,0.0,0.0,0.0,0.0,0.0,-3.3066,-3.3262,-3.4551,-3.5098,-3.5273,-3.5078,-3.4668,-3.3887,-3.2598,-3.1504,-3.0332,-2.9023,-2.8535,-2.8203,-2.7988,-2.7988,-2.8184,-2.8594,-2.8398,-2.8398,-2.8613,-2.8398,-2.8301,-2.8301,-2.8301,-2.8066,-2.7676,0.0,0.0,0.0,0.0,-2.9375,-2.9726,-3.1465,0.0,-3.4824,-3.5898,-3.6992,-3.793,-3.793,-3.7793,-3.7324,-3.5391,-3.4316,0.0,0.0,-3.0723,-3.0449,0.0,-2.9434,-2.8887,0.0,0.0,0.0,-2.9695,0.0,0.0,0.0,-3.333,-3.4379,0.0,0.0,0.0,0.0,0.0,0.0,0.0,0.0,0.0,0.0,0.0,0.0,0.0,0.0,0.0,-4.1744,-4.1752,-4.111,-3.9053,-3.8691,-3.8476,-3.8262,-3.8242,-3.8242,-3.8242,-3.7832,-3.75,-3.7305,-3.6875,-3.6445,-3.6016,-3.6016,-3.6016,-3.6016,-3.6016,-3.6016,-3.6016,-3.6016,-3.6016,-3.6016,-3.6016,-3.6152,-3.6387,-3.6816,-3.7363,-3.7949,-3.8164,-3.8379,-3.8574,-3.0059,0.0,0.0,0.0,0.0,0.0,-3.457,-3.4707,-3.5039,-3.6016,-3.6953,-3.7031,-3.5703,0.0,0.0,-3.3535,-3.1855,-3.0762,0.0,0.0,0.0,-2.8184,-2.8242,-2.8379,-2.8555,-2.8379,-2.8457,-2.8789,-2.8457,-2.8301,-2.8301,-2.8301,0.0,0.0,0.0,0.0,0.0,0.0,0.0,-3.0039,0.0,-3.3789,-3.457,-3.6738,-3.8047,-3.875,-3.9004,-3.8633,-3.7695,-3.5449,0.0,-3.5,-3.2012,-3.1621,0.0,0.0,0.0,0.0,0.0,0.0,0.0,0.0,0.0,-3.0998,0.0,0.0,0.0,0.0,0.0,0.0,0.0,0.0,0.0,0.0,0.0,0.0,0.0,0.0,0.0,0.0,0.0,0.0,0.0,-4.132,-4.1486,-3.8708,-3.8223,-3.8027,-3.793,-3.8105,-3.8125,-3.793,-3.7695,-3.7441,-3.7187,-3.6758,-3.6367,-3.6016,-3.6016,-3.6016,-3.6016,-3.6016,-3.6016,-3.6016,-3.6016,-3.6016,-3.6016,-3.6016,-3.6016,-3.6055,-3.6504,-3.7129,-3.7812,-3.7891,-3.8203,-3.8574,-2.957,-3.0351,0.0,0.0,-3.2363,-3.3711,-3.457,-3.4707,-3.5156,-3.6426,-3.7676,0.0,0.0,0.0,0.0,0.0,0.0,0.0,-3.3437,0.0,0.0,-2.7754,-2.8086,-2.7969,-2.7246,-2.793,-2.832,-2.8359,-2.832,-2.8301,-2.8301,-2.8301,0.0,0.0,-2.7461,0.0,0.0,0.0,-2.9277,0.0,-3.2695,-3.3262,0.0,-3.541,-3.6543,-3.7109,-3.8242,-3.8574,-3.834,0.0,-3.6484,-3.5742,0.0,-3.3516,0.0,0.0,0.0,0.0,0.0,0.0,0.0,0.0,-3.2438,0.0,0.0,0.0,0.0,0.0,0.0,0.0,0.0,0.0,0.0,0.0,0.0,0.0,0.0,0.0,0.0,0.0,0.0,0.0,0.0,-3.834,-3.7174,-3.791,-3.6953,-3.6777,-3.7871,-3.7266,-3.7207,-3.791,-3.6836,-3.6406,-3.6738,-3.6309,-3.6074,-3.6016,-3.6016,-3.6016,-3.6016,-3.6016,-3.6016,-3.6016,-3.6016,-3.6016,-3.6016,-3.6016,-3.6016,-3.6055,-3.6504,-3.6953,-3.7402,-3.7793,-3.8203,-3.8574,-2.9434,-3.0059,0.0,0.0,-3.1894,-3.3144,-3.4492,-3.6191,-3.7519,-3.8066,-3.8848,0.0,0.0,0.0,0.0,0.0,0.0,0.0,0.0,0.0,-2.8784,0.0,0.0,0.0,-2.8867,-2.873,-2.8652,-2.8652,-2.8418,-2.8301,-2.8301,-2.8301,-2.8164,0.0,-2.7812,0.0,-2.8594,0.0,0.0,0.0,0.0,0.0,0.0,-3.6016,-3.7539,-3.8203,-3.875,-3.8789,-3.8359,0.0,-3.6641,0.0,0.0,0.0,0.0,0.0,0.0,0.0,0.0,0.0,0.0,0.0,0.0,0.0,0.0,0.0,-3.1324,0.0,0.0,0.0,0.0,0.0,0.0,0.0,-3.5512,0.0,0.0,0.0,0.0,0.0,0.0,0.0,0.0,0.0,0.0,0.0,-3.5957,-3.5898,-3.6426,-3.6601,-3.6836,-3.7187,-3.668,-3.6484,-3.668,-3.623,-3.6016,-3.6016,-3.6016,-3.6016,-3.6016,-3.6016,-3.6016,-3.6016,-3.6016,-3.6016,-3.6016,-3.6016,-3.6016,-3.6035,-3.623,-3.6699,-3.7324,-3.75,-3.7988,-3.8574,-2.8906,0.0,0.0,0.0,0.0,0.0,-3.4414,-3.666,0.0,0.0,0.0,0.0,-4.0937,-3.9067,0.0,0.0,0.0,-3.3266,0.0,0.0,-3.0148,0.0,0.0,0.0,0.0,0.0,-2.9043,-2.8926,-2.8496,-2.8359,-2.8457,-2.834,-2.8184,0.0,0.0,-2.8769,-2.9082,0.0,0.0,-3.1387,-3.2754,-3.3613,-3.4297,-3.668,-3.8184,-3.9023,-3.9023,-3.8828,-3.8359,-3.6992,-3.6953,0.0,-3.584,0.0,0.0,0.0,0.0,0.0,-3.2266,0.0,0.0,0.0,0.0,0.0,0.0,0.0,0.0,0.0,0.0,0.0,0.0,0.0,0.0,0.0,0.0,-3.4183,0.0,0.0,0.0,0.0,0.0,0.0,0.0,0.0,0.0,-3.5,-3.459,-3.459,-3.5176,-3.5684,-3.6113,-3.6484,-3.6484,-3.6484,-3.6484,-3.6172,-3.6016,-3.6016,-3.6016,-3.6016,-3.6016,-3.6016,-3.6016,-3.6016,-3.6016,-3.6016,-3.6016,-3.6016,-3.6094,-3.6191,-3.6191,-3.6719,-3.7461,-3.7344,-3.7832,-3.8574,-2.7637,-2.873,0.0,0.0,0.0,0.0,0.0,0.0,0.0,0.0,0.0,0.0,0.0,0.0,0.0,0.0,0.0,-3.4574,-3.5994,0.0,-3.1992,0.0,0.0,0.0,0.0,0.0,0.0,-2.8926,-2.8496,-2.8496,0.0,-2.8476,-2.8496,0.0,0.0,-3.0,-3.0859,-3.1738,-3.2812,-3.3984,-3.4453,-3.5644,-3.7129,0.0,-3.75,-3.8594,-3.8594,0.0,0.0,-3.8027,-3.7891,0.0,0.0,0.0,0.0,0.0,0.0,0.0,0.0,0.0,0.0,-3.2676,0.0,0.0,0.0,0.0,-3.1094,0.0,0.0,0.0,0.0,0.0,0.0,-3.2218,0.0,0.0,0.0,0.0,0.0,0.0,0.0,0.0,0.0,0.0,0.0,-3.4023,-3.2578,-3.2539,-3.4609,-3.4355,-3.4746,-3.5996,-3.6035,-3.6035,-3.6035,-3.6035,-3.6016,-3.6016,-3.6016,-3.6016,-3.6016,-3.6016,-3.6016,-3.6016,-3.6016,-3.6016,-3.6016,-3.6016,-3.6269,-3.6641,-3.6641,-3.7168,-3.7851,-3.7441,-3.7832,-3.8574,0.0,0.0,0.0,0.0,0.0,0.0,0.0,-3.5391,0.0,0.0,0.0,0.0,0.0,0.0,-4.0403,0.0,0.0,-3.6868,-3.7295,-3.5979,0.0,0.0,0.0,-3.3613,0.0,0.0,0.0,0.0,0.0,0.0,0.0,0.0,0.0,0.0,0.0,-3.0059,0.0,0.0,0.0,0.0,0.0,-3.6855,-3.8125,0.0,0.0,-3.8184,-3.8476,-3.8398,0.0,-3.8301,-3.8164,-3.791,-3.7754,-3.7324,-3.6719,-3.6016,-3.5898,0.0,0.0,0.0,-3.5781,-3.3906,0.0,0.0,0.0,0.0,0.0,0.0,0.0,0.0,0.0,0.0,-3.1858,-3.1719,-3.1426,-3.0858,0.0,0.0,0.0,0.0,0.0,0.0,0.0,0.0,0.0,-3.1914,-3.0879,-3.0918,-3.25,-3.3262,-3.4101,-3.5117,-3.5723,-3.6016,-3.6016,-3.6016,-3.6016,-3.6016,-3.6016,-3.6016,-3.6016,-3.6016,-3.6016,-3.6016,-3.6016,-3.6016,-3.6016,-3.6016,-3.6113,-3.6269,-3.6562,-3.7012,-3.7519,-3.7656,-3.8086,-3.8574,-2.5901,0.0,0.0,0.0,0.0,0.0,0.0,0.0,0.0,0.0,-3.896,0.0,-3.9451,0.0,-3.9566,0.0,-3.783,-3.7322,-3.7244,-3.7383,0.0,-3.7864,-3.7422,0.0,0.0,0.0,0.0,0.0,0.0,-2.9961,0.0,0.0,0.0,0.0,0.0,0.0,0.0,0.0,-3.4238,0.0,0.0,-3.7617,0.0,0.0,-3.8496,-3.8398,0.0,-3.8398,-3.8203,-3.8476,-3.8379,-3.8164,-3.8164,-3.7754,-3.7168,-3.6465,-3.6445,-3.6484,-3.5625,-3.6016,0.0,-3.4902,-3.4551,0.0,-3.2559,0.0,0.0,0.0,0.0,0.0,0.0,0.0,0.0,-3.2012,-3.1484,-3.0762,0.0,-2.9707,0.0,0.0,0.0,0.0,0.0,0.0,-3.0137,-2.998,-2.957,-2.9766,0.0,0.0,-3.3203,-3.4219,-3.5254,-3.5859,-3.6016,-3.6016,-3.6016,-3.6016,-3.6016,-3.6016,-3.6016,-3.6016,-3.6016,-3.6016,-3.6016,-3.6016,-3.6016,-3.6016,-3.6113,-3.6289,-3.6719,-3.7148,-3.7559,-3.7812,-3.8203,-3.8574,0.0,0.0,0.0,0.0,-3.1035,0.0,0.0,0.0,-3.5881,0.0,-3.743,-3.8003,-3.9562,-3.7878,-3.68,-3.7406,-3.6593,0.0,-3.6289,-3.8372,0.0,0.0,-3.8915,-3.8262,-3.5588,0.0,0.0,0.0,0.0,0.0,0.0,0.0,0.0,0.0,-3.1973,0.0,-3.2305,-3.5273,-3.6348,-3.6133,-3.7402,-3.793,-3.8008,-3.8418,-3.8828,-3.9141,-3.8691,-3.8555,-3.8555,-3.8555,-3.8555,-3.8574,-3.8574,-3.8008,-3.7266,-3.6855,-3.6738,-3.6582,-3.5762,-3.6152,-3.6562,-3.5723,0.0,0.0,0.0,0.0,-3.5,0.0,0.0,0.0,0.0,0.0,0.0,-3.2734,-3.2012,-3.1016,-2.9785,0.0,0.0,0.0,0.0,0.0,0.0,-2.9922,-2.9609,-2.8418,-2.8652,-2.9043,0.0,0.0,-3.2109,-3.3359,-3.4687,-3.5586,-3.6016,-3.6016,-3.6016,-3.6016,-3.6016,-3.6016,-3.6016,-3.6016,-3.6016,-3.6016,-3.6016,-3.6016,-3.6016,-3.6016,-3.6269,-3.668,-3.7109,-3.7539,-3.793,-3.7949,-3.8223,-3.8574,-2.5349,-2.8192,-3.0996,0.0,-3.1348,-3.168,0.0,0.0,0.0,0.0,-4.0785,-4.2959,-3.6738,-3.9703,-4.0279,-3.5967,-3.8887,0.0,0.0,0.0,0.0,-4.1409,-4.2411,-4.1158,-3.6904,-3.7505,0.0,-3.4394,0.0,0.0,-3.1641,0.0,0.0,0.0,0.0,0.0,-3.1367,-3.373,-3.5234,-3.6133,-3.7402,-3.8125,0.0,0.0,-3.8828,-3.9101,-3.8359,-3.8086,-3.8086,-3.8086,-3.8301,-3.8574,-3.8574,-3.8418,-3.8164,-3.7734,-3.7832,-3.8047,-3.7812,-3.791,-3.7949,-3.7402,-3.6816,-3.6094,0.0,0.0,0.0,0.0,0.0,0.0,0.0,0.0,0.0,-3.1953,-3.1113,-3.043,0.0,0.0,0.0,-3.0059,0.0,0.0,-3.0508,-2.9473,-2.8769,-2.8769,-2.8281,-2.8184,-2.8594,0.0,0.0,-3.293,-3.4551,-3.5586,-3.6016,-3.6016,-3.6016,-3.6016,-3.6016,-3.6016,-3.6016,-3.6016,-3.6016,-3.6016,-3.6016,-3.6016,-3.6016,-3.6016,-3.6094,-3.623,-3.666,-3.7285,-3.7969,-3.8281,-3.8476,-3.8574,-2.6831,0.0,0.0,-3.3496,0.0,0.0,-3.3607,0.0,0.0,-3.3706,-3.8889,0.0,-3.4692,-3.7678,-3.9197,-3.7008,-3.8266,0.0,0.0,0.0,0.0,-4.0438,-4.2444,-4.1767,-3.822,-3.8223,0.0,-3.5957,0.0,0.0,-3.2148,0.0,0.0,0.0,0.0,-3.1777,0.0,-3.4023,-3.5664,-3.6914,-3.7637,0.0,0.0,-3.8496,-3.873,-3.8848,-3.8164,-3.8047,-3.8203,-3.8203,-3.8379,-3.8574,-3.8574,-3.8574,-3.8535,-3.8281,-3.8379,-3.8574,-3.8574,-3.8711,-3.875,-3.832,-3.7988,-3.75,-3.6465,-3.6777,-3.6914,0.0,0.0,0.0,0.0,0.0,0.0,0.0,0.0,0.0,0.0,0.0,0.0,0.0,-3.0156,0.0,-3.084,-2.9141,-2.8184,-2.8613,-2.8203,-2.8047,0.0,0.0,0.0,-3.2226,-3.4297,-3.5508,-3.5742,-3.6309,-3.6387,-3.6016,-3.6016,-3.6016,-3.6016,-3.6016,-3.6016,-3.6016,-3.6016,-3.6016,-3.6016,-3.6016,-3.6016,-3.6055,-3.6504,-3.7187,-3.7949,-3.8203,-3.8418,-3.8574,0.0,0.0,0.0,0.0,0.0,0.0,0.0,-3.4559,0.0,-3.3514,0.0,-3.6028,-3.352,-3.4923,-3.6733,-3.8737,0.0,-3.6822,-3.9885,-3.8946,-3.8241,-3.7927,-4.0696,-4.1002,-3.8641,-3.7793,0.0,0.0,0.0,0.0,-3.1886,-3.1171,0.0,0.0,0.0,0.0,0.0,-3.4785,-3.6309,-3.7441,-3.7676,-3.7754,-3.7812,-3.8359,-3.8535,-3.8437,-3.8125,-3.8262,-3.8574,-3.8516,-3.8535,-3.8574,-3.8574,-3.8574,-3.8574,-3.8574,-3.8574,-3.8594,-3.8633,-3.8887,-3.9043,-3.873,-3.8887,-3.8828,-3.7715,-3.7461,-3.7246,-3.6504,-3.5976,-3.5488,0.0,0.0,0.0,0.0,0.0,0.0,0.0,0.0,0.0,0.0,0.0,0.0,-3.0879,-2.9082,-2.8066,-2.8437,-2.8457,-2.8418,-2.8301,0.0,0.0,-3.1504,-3.3867,-3.5273,-3.5566,0.0,-3.6816,-3.6191,-3.6074,-3.6016,-3.6016,-3.6016,-3.6016,-3.6016,-3.6016,-3.6016,-3.6016,-3.6016,-3.6016,-3.6055,-3.6445,-3.7109,-3.7832,-3.7773,-3.8105,-3.8574,0.0,0.0,0.0,0.0,0.0,-3.1381,-3.295,-3.5319,-3.6168,-3.3491,-3.8599,0.0,-3.5782,-3.7674,-3.8508,-3.6402,-3.7771,0.0,0.0,0.0,0.0,-3.8478,-3.9736,-3.8939,-3.5423,-3.5255,-3.4581,0.0,0.0,0.0,-3.0094,-3.0658,0.0,0.0,0.0,0.0,-3.2324,-3.3047,0.0,-3.4863,-3.6309,-3.6894,-3.7012,-3.8144,-3.8359,-3.8086,-3.8359,-3.8516,-3.8516,-3.8164,-3.8281,-3.8574,-3.8574,-3.8574,-3.8574,-3.8574,-3.8574,-3.8652,-3.9004,-3.8887,-3.875,-3.9023,-3.8887,-3.8633,-3.8398,-3.834,-3.8301,-3.8164,-3.75,-3.6719,-3.5937,0.0,0.0,0.0,0.0,0.0,0.0,0.0,0.0,0.0,0.0,-2.9687,0.0,-2.9883,-2.9277,-2.9336,-2.9336,-2.9043,-2.832,0.0,0.0,0.0,-3.2969,0.0,0.0,0.0,-3.6523,-3.707,-3.6348,-3.6016,-3.6016,-3.6016,-3.6016,-3.6016,-3.6016,-3.6016,-3.6016,-3.6016,-3.6016,-3.6035,-3.6094,-3.666,-3.7363,-3.7012,-3.7598,-3.8574,0.0,0.0,0.0,0.0,0.0,0.0,0.0,-3.5295,0.0,-3.3165,-3.6942,-3.841,-3.4652,-3.6287,-3.7617,-3.7475,-3.7461,-3.7933,-3.9031,-3.8364,-3.7417,-3.6074,-3.7478,0.0,-3.5197,-3.4124,-3.3547,-3.3205,0.0,0.0,-2.9581,-3.0291,0.0,-3.0234,0.0,-3.1797,0.0,0.0,0.0,-3.4883,-3.6387,-3.6875,-3.6816,-3.8086,-3.8301,-3.7988,-3.8418,-3.8574,-3.8555,-3.834,-3.8398,-3.8574,-3.8574,-3.8574,-3.8574,-3.8574,-3.8574,-3.8613,-3.8828,-3.8887,-3.8887,-3.8887,-3.8887,-3.8848,-3.8633,-3.8574,-3.8516,-3.8281,-3.791,-3.7226,-3.5937,-3.3945,0.0,0.0,0.0,0.0,0.0,0.0,0.0,0.0,0.0,0.0,0.0,0.0,0.0,0.0,0.0,-2.9297,-2.8652,0.0,0.0,0.0,0.0,0.0,0.0,0.0,0.0,-3.6621,-3.6211,-3.6016,-3.6035,-3.625,-3.6348,-3.6348,-3.6348,-3.6348,-3.6348,-3.6113,-3.6016,-3.6016,-3.6016,-3.6406,-3.6953,-3.6738,-3.7344,-3.8242,0.0,-3.1494,0.0,0.0,-3.3762,0.0,0.0,-3.4826,-3.4362,-3.3253,-3.4714,-3.5294,-3.3735,-3.4643,-3.6183,-3.8364,-3.6522,-3.5978,-3.7899,-3.572,-3.4215,-3.3988,-3.5267,-3.5512,-3.4813,-3.291,-3.2024,0.0,0.0,0.0,0.0,-2.9437,-2.9872,0.0,0.0,0.0,0.0,0.0,-3.3984,-3.5234,-3.6621,-3.6914,-3.668,-3.8047,-3.8242,-3.7851,-3.8379,-3.8574,-3.8574,-3.8574,-3.8574,-3.8574,-3.8574,-3.8574,-3.8574,-3.8574,-3.8574,-3.8574,-3.8574,-3.8809,-3.8984,-3.8652,-3.8828,-3.8984,-3.8652,-3.8574,-3.8476,-3.8125,-3.7988,-3.7441,-3.582,-3.4336,0.0,0.0,0.0,0.0,0.0,0.0,0.0,0.0,0.0,0.0,-2.7585,0.0,0.0,0.0,0.0,-2.9512,-2.9082,-2.9707,-3.0098,0.0,0.0,-3.3496,-3.4199,0.0,-3.6328,-3.6152,-3.6055,-3.6074,-3.6172,-3.6523,-3.6719,-3.6797,-3.6797,-3.6758,-3.6641,-3.6289,-3.6094,-3.6016,-3.6016,-3.6348,-3.6777,-3.6601,-3.7187,-3.8027,0.0,0.0,0.0,0.0,0.0,0.0,0.0,-3.4178,-3.4803,-3.4937,-3.5401,-3.559,-3.5378,-3.5752,-3.6087,-3.6031,-3.5791,-3.5458,-3.5585,-3.4837,-3.4309,-3.4282,-3.3641,-3.2962,-3.2097,-3.0569,-2.8696,0.0,0.0,0.0,0.0,0.0,0.0,0.0,0.0,0.0,0.0,-3.2187,-3.3379,-3.4336,-3.6055,-3.6465,-3.6269,-3.793,-3.8066,-3.7461,-3.8281,-3.8574,-3.8574,-3.8574,-3.8574,-3.8574,-3.8574,-3.8574,-3.8574,-3.8574,-3.8574,-3.8574,-3.8574,-3.8613,-3.8633,-3.8594,-3.8613,-3.8613,-3.8594,-3.8574,-3.8555,-3.8516,-3.8203,-3.7519,-3.6211,-3.5508,-3.4512,0.0,0.0,0.0,0.0,0.0,0.0,0.0,0.0,0.0,0.0,-2.7755,0.0,0.0,-2.9726,-2.9961,-2.9531,-2.959,-2.9805,-3.0176,0.0,-3.3047,-3.4629,-3.5215,-3.5879,-3.6601,-3.6211,-3.623,-3.6621,-3.666,-3.6875,-3.7246,-3.7246,-3.7031,-3.666,-3.6621,-3.6367,-3.6016,-3.6016,-3.6523,-3.7148,-3.6367,-3.7109,-3.8398,0.0,0.0,0.0,0.0,0.0,0.0,0.0,-3.4723,-3.507,-3.5177,-3.5297,-3.5364,-3.5364,-3.5471,-3.5498,-3.5378,-3.5364,-3.5324,-3.5204,-3.4643,-3.4322,-3.4322,-3.3627,-3.2906,-3.2211,-3.0755,-2.9058,0.0,0.0,0.0,0.0,0.0,0.0,0.0,0.0,-3.0586,-3.1445,-3.2383,-3.3437,-3.459,-3.6074,-3.6406,-3.6172,-3.7637,-3.7812,-3.7402,-3.8262,-3.8574,-3.8574,-3.8574,-3.8574,-3.8574,-3.8574,-3.8574,-3.8574,-3.8574,-3.8574,-3.8574,-3.8574,-3.8574,-3.8574,-3.8574,-3.8574,-3.8574,-3.8574,-3.8574,-3.8574,-3.8574,-3.8437,-3.8086,-3.7305,-3.6387,-3.541,0.0,0.0,0.0,0.0,0.0,0.0,0.0,0.0,0.0,0.0,0.0,0.0,0.0,0.0,-3.0312,-2.9609,-2.957,-2.9766,-3.0176,0.0,-3.209,-3.3535,-3.4492,-3.5293,-3.5898,-3.5976,-3.6113,-3.6289,-3.6816,-3.7266,-3.7676,-3.7676,-3.7441,-3.7051,-3.7051,-3.6953,-3.6777,-3.6777,-3.6992,-3.7266,-3.6914,-3.7383,-3.8144,-3.1396,0.0,-3.1677,0.0,-3.3494,-3.3748,-3.5004,-3.5191,-3.5191,-3.5191,-3.5191,-3.5191,-3.5191,-3.5271,-3.5284,-3.5204,-3.5191,-3.5164,-3.507,-3.4603,-3.4282,-3.4202,-3.3694,0.0,-3.2425,-3.1236,-2.9753,-2.8016,-2.7297,0.0,0.0,0.0,0.0,0.0,-2.9871,-3.1309,-3.2402,-3.3066,-3.3965,-3.5,-3.6191,-3.6484,-3.6328,-3.748,-3.7734,-3.7578,-3.832,-3.8574,-3.8574,-3.8574,-3.8574,-3.8574,-3.8574,-3.8574,-3.8574,-3.8574,-3.8574,-3.8574,-3.8574,-3.8672,-3.875,-3.875,-3.875,-3.875,-3.875,-3.875,-3.875,-3.875,-3.8652,-3.8437,-3.8008,-3.709,-3.6133,-3.5312,0.0,0.0,0.0,0.0,0.0,0.0,-2.0564,-2.1417,-2.1914,-2.4597,0.0,0.0,0.0,0.0,-2.8897,-2.9327,0.0,0.0,0.0,0.0,0.0,-3.4004,-3.4863,-3.5195,-3.5879,-3.6211,-3.623,-3.709,-3.7715,-3.8105,-3.8105,-3.7871,-3.748,-3.748,-3.7402,-3.7305,-3.7305,-3.7363,-3.7461,-3.7344,-3.7637,-3.8105,-3.1917,-3.2559,-3.324,-3.4148,-3.479,-3.5177,-3.5191,-3.5191,-3.5191,-3.5191,-3.5191,-3.5191,-3.5191,-3.5458,-3.5511,-3.5217,-3.5191,-3.507,-3.479,-3.4482,-3.4189,0.0,0.0,-3.3,-3.2131,-3.1517,-3.006,-2.7709,0.0,0.0,-2.5859,0.0,-2.9834,-2.935,-3.2093,-3.3144,-3.2871,-3.4141,-3.4941,-3.5469,-3.6328,-3.666,-3.6758,-3.7598,-3.791,-3.7969,-3.8418,-3.8574,-3.8574,-3.8574,-3.8574,-3.8574,-3.8574,-3.8574,-3.8574,-3.8574,-3.8574,-3.8574,-3.8574,-3.8887,-3.9199,-3.9199,-3.9199,-3.9199,-3.9199,-3.9199,-3.9199,-3.9199,-3.8867,-3.8437,-3.8008,-3.7578,-3.6719,-3.498,0.0,0.0,0.0,0.0,0.0,0.0,-2.0561,-2.1704,-2.3019,-2.4154,0.0,0.0,0.0,0.0,0.0,0.0,0.0,-2.957,-3.084,0.0,-3.2168,-3.3848,-3.4707,-3.4726,-3.6035,-3.666,-3.6699,-3.7539,-3.8164,-3.8574,-3.8574,-3.832,-3.791,-3.791,-3.7676,-3.7305,-3.7305,-3.7559,-3.7871,-3.7461,-3.7832,-3.8496,-3.3734,-3.3908,-3.4042,-3.4536,-3.4937,-3.5137,-3.4937,-3.507,-3.5191,-3.5191,-3.5191,-3.5191,-3.5191,-3.5284,-3.5297,0.0,-3.5017,-3.4857,0.0,-3.4295,-3.3988,-3.3895,-3.3587,-3.3093,-3.2425,-3.1824,-3.0768,-2.9205,0.0,0.0,0.0,-2.6511,-2.7858,-2.9003,-3.1235,-3.3049,-3.4609,-3.5312,-3.5859,-3.6289,-3.6562,-3.6836,-3.7168,-3.7715,-3.793,-3.8027,-3.873,-3.8828,-3.8613,-3.8906,-3.8809,-3.8633,-3.8906,-3.8809,-3.8633,-3.8926,-3.9004,-3.9062,-3.9394,-3.957,-3.9668,-3.9668,-3.9668,-3.959,-3.9277,-3.8984,-3.8848,-3.9141,-3.8867,-3.8437,-3.8008,-3.7578,-3.6719,-3.498,-3.3157,0.0,0.0,0.0,0.0,0.0,-1.9573,-1.9693,0.0,-2.2576,0.0,0.0,0.0,0.0,0.0,0.0,0.0,0.0,-3.0976,0.0,-3.2168,-3.3848,-3.4707,-3.4707,-3.5742,-3.6543,-3.7109,-3.7676,-3.8164,-3.8574,-3.8574,-3.8496,-3.8359,-3.8359,-3.8281,-3.8164,-3.8164,-3.8242,-3.8359,-3.8223,-3.834,-3.8555,-3.4469,-3.4536,-3.4509,-3.4589,-3.4923,-3.5097,-3.4803,-3.5004,-3.5191,-3.5191,-3.5191,-3.5191,-3.5191,-3.5191,0.0,-3.5191,-3.4923,-3.471,-3.4603,-3.4148,-3.3828,-3.3721,-3.3521,-3.3146,-3.2559,0.0,0.0,-3.0247,-2.8537,-2.6894,-2.5344,-2.7408,-2.8869,-3.007,-3.2851,-3.4865,-3.6133,-3.6387,-3.666,-3.6914,-3.6914,-3.7148,-3.7578,-3.8008,-3.8262,-3.8496,-3.9199,-3.9297,-3.9101,-3.9375,-3.9297,-3.9121,-3.9375,-3.9277,-3.9121,-3.9394,-3.9453,-3.9531,-3.9824,-4.0019,-4.0137,-4.0137,-4.0137,-4.0059,-3.9766,-3.9238,-3.8945,-3.9375,-3.8984,-3.8437,-3.8008,-3.7461,-3.6543,-3.4961,-3.2392,-2.9529,-2.6251,0.0,0.0,0.0,0.0,0.0,0.0,-2.243,-2.3891,0.0,0.0,0.0,0.0,0.0,0.0,-3.0195,-3.1055,0.0,-3.2637,-3.4004,-3.4785,-3.4961,-3.5684,-3.6562,-3.7539,-3.7637,-3.8008,-3.8574,-3.8574,-3.8574,-3.8574,-3.8574,-3.8574,-3.8574,-3.8574,-3.8574,-3.8574,-3.8574,-3.8574,-3.8574,-3.4322,-3.4589,0.0,0.0,-3.4803,0.0,-3.4776,-3.5004,-3.5191,-3.5191,-3.5191,-3.5191,-3.5191,-3.5191,-3.5191,-3.5191,0.0,0.0,0.0,-3.4028,-3.3721,-3.3427,-3.3414,-3.3146,-3.2585,-3.2291,-3.169,-3.0768,-2.8791,-2.7655,-2.7472,-3.0299,-3.1641,-3.1909,-3.5815,-3.7507,-3.7241,-3.7383,-3.7363,-3.7344,-3.7344,-3.7617,-3.8066,-3.8476,-3.8887,-3.9316,-3.9766,-3.9922,-3.9902,-3.9922,-3.9922,-3.9902,-3.9922,-3.9941,-3.9941,-3.9941,-3.9941,-3.9941,-3.998,-4.0273,-4.0566,-4.0566,-4.0547,-4.0527,-4.0566,-3.9883,-3.9375,-3.9805,-3.9219,-3.8476,-3.7969,-3.7226,-3.6211,-3.4824,-3.1884,-2.8638,-2.5678,0.0,0.0,0.0,0.0,0.0,0.0,-2.3352,-2.4553,0.0,0.0,0.0,0.0,0.0,-3.0273,-3.0234,-3.1094,-3.2148,-3.3418,-3.4277,-3.4941,-3.5449,-3.5859,-3.6699,-3.7871,-3.75,-3.7793,-3.8574,-3.8574,-3.8574,-3.8574,-3.8574,-3.8574,-3.8574,-3.8574,-3.8574,-3.8574,-3.8574,-3.8574,-3.8574,0.0,0.0,-3.467,-3.4376,-3.4803,-3.5017,-3.4509,-3.487,-3.5191,-3.5191,-3.5191,-3.5191,-3.5191,-3.5191,-3.5191,-3.5191,-3.4723,-3.4389,-3.4322,-3.3814,-3.3494,-3.3414,-3.3414,-3.324,-3.2879,-3.2585,-3.1797,-3.0461,-2.9526,-2.8671,-2.7923,-2.844,-2.937,-3.0694,-3.3492,-3.497,-3.5834,-3.7517,-3.8086,-3.7773,-3.7773,-3.8223,-3.8906,-3.9004,-3.9336,-3.9785,-4.0215,-4.0176,-3.9941,-4.0273,-4.0156,-3.9961,-4.0273,-4.0371,-4.0371,-4.0371,-4.0371,-4.0449,-4.0781,-4.0937,-4.1016,-4.1016,-4.0762,-4.0605,-4.0937,-4.0351,-3.9766,-3.9883,-3.9453,-3.873,-3.7637,-3.7012,-3.6035,-3.4043,-3.0372,-2.7105,-2.5411,-2.2195,0.0,0.0,-1.976,-1.9999,-2.0561,-2.2797,-2.4646,0.0,0.0,0.0,0.0,-3.0664,-3.1055,-3.0742,-3.1562,-3.2461,-3.3418,-3.4277,-3.5098,-3.5879,-3.6309,-3.6836,-3.7461,-3.7676,-3.8066,-3.8574,-3.8574,-3.8574,-3.8574,-3.8574,-3.8574,-3.8574,-3.8574,-3.8574,-3.8574,-3.8574,-3.8574,-3.8574,-3.5084,-3.507,-3.487,-3.4576,-3.4897,-3.5044,-3.4589,-3.491,-3.5191,-3.5191,-3.5191,-3.5191,-3.5191,-3.5191,-3.5137,-3.5004,-3.4589,-3.4322,-3.4322,-3.3748,-3.3414,-3.3414,-3.3414,-3.328,-3.2986,-3.2692,-3.1891,-3.0555,-3.01,-2.9432,-2.8537,-2.9229,-2.9972,-3.0644,-3.3826,-3.5554,-3.6056,-3.825,-3.8926,-3.837,-3.7663,-3.804,-3.909,-3.8557,-3.9165,-4.0234,-4.0664,-4.0684,-4.0508,-4.0742,-4.0664,-4.0527,-4.0742,-4.082,-4.082,-4.082,-4.082,-4.0879,-4.1113,-4.1172,-4.1172,-4.1172,-4.0996,-4.0879,-4.1113,-4.0664,-4.0137,-3.9941,-3.9531,-3.8809,-3.7539,-3.6797,-3.5664,-3.3496,-2.9527,-2.6198,-2.4811,-2.1595,0.0,-1.9586,-1.972,-1.9973,-2.0388,-2.2408,-2.4204,-2.5407,-2.7678,0.0,-3.0508,-3.1152,-3.1406,-3.1191,-3.2187,-3.3144,-3.4004,-3.4863,-3.5547,-3.6035,-3.6465,-3.6894,-3.7305,-3.7734,-3.8164,-3.8574,-3.8574,-3.8574,-3.8574,-3.8574,-3.8574,-3.8574,-3.8574,-3.8574,-3.8574,-3.8574,-3.8574,-3.8574,-3.5084,-3.5191,-3.511,-3.4817,-3.5004,-3.5097,-3.4803,-3.5004,-3.5191,-3.5191,-3.5191,-3.5177,-3.5137,-3.5177,-3.5057,-3.4723,-3.4469,-3.4295,-3.4255,-3.3721,-3.3414,-3.3414,-3.3414,-3.3293,-3.3053,-3.2719,-3.1971,-3.0795,-3.0501,-2.99,-2.9032,-3.0553,-3.0905,-3.0676,-3.5004,-3.6706,-3.6332,-3.888,-3.9726,-3.9187,-3.7362,-3.7496,-3.8855,-3.7686,-3.8483,-4.0183,-4.088,-4.1172,-4.1172,-4.1172,-4.1172,-4.1172,-4.1172,-4.1172,-4.1172,-4.1172,-4.1172,-4.1172,-4.1172,-4.1172,-4.1172,-4.1172,-4.1172,-4.1172,-4.1172,-4.0879,-4.0508,-4.0078,-3.9629,-3.8906,-3.7637,-3.6582,-3.5254,-3.3223,-2.913,-2.5746,-2.4378,0.0,-1.9412,-1.9546,-1.9813,-2.0227,-2.0815,-2.2291,-2.384,-2.5447,-2.7382,-2.9268,-3.0957,-3.1543,-3.1797,-3.1797,-3.2851,-3.3867,-3.4805,-3.5605,-3.6055,-3.6113,-3.6484,-3.6914,-3.7402,-3.7754,-3.8164,-3.8574,-3.8574,-3.8574,-3.8574,-3.8574,-3.8574,-3.8574,-3.8574,-3.8574,-3.8574,-3.8574,-3.8574,-3.8574,-3.5137,-3.5191,-3.511,-3.4817,-3.5004,-3.5097,-3.4803,-3.5004,-3.5191,-3.5191,-3.5191,-3.5097,-3.4857,-3.5044,-3.4977,-3.4442,-3.4349,-3.4215,-3.3975,-3.3614,-3.3414,-3.3414,-3.3414,-3.3387,-3.3347,-3.2826,-3.1971,-3.0795,-3.0501,-2.99,-2.9032,-2.9068,-2.8914,-2.8728,-3.3107,-3.4852,-3.4659,-3.8663,-4.0176,-3.9635,-3.7491,-3.704,-3.7623,-3.7439,-3.7692,-3.8632,-4.049,-4.1172,-4.1172,-4.1172,-4.1172,-4.1172,-4.1172,-4.1172,-4.1172,-4.1172,-4.1172,-4.1172,-4.1172,-4.1172,-4.1172,-4.1172,-4.1172,-4.1172,-4.1172,-4.1113,-4.0957,-4.0508,-4.0078,-3.9394,-3.8066,-3.6543,-3.5019,-3.3555,-2.8841,-2.5327,-2.4994,0.0,-1.9639,-2.0388,-2.0735,-2.1136,-2.1724,-2.2936,-2.4512,-2.6684,-2.8096,-2.9702,-3.1832,-3.2715,-3.3125,-3.3125,-3.332,-3.4023,-3.5273,-3.5781,-3.6211,-3.6562,-3.6641,-3.707,-3.7832,-3.7891,-3.8164,-3.8574,-3.8574,-3.8574,-3.8574,-3.8574,-3.8574,-3.8574,-3.8574,-3.8574,-3.8574,-3.8574,-3.8574,-3.8574,-3.511,-3.5191,-3.5151,-3.5017,-3.511,-3.5151,-3.5017,-3.511,-3.5137,-3.4977,-3.4963,-3.4857,-3.4549,-3.4643,-3.4549,-3.4122,-3.4082,-3.3961,-3.3654,-3.3494,-3.3414,-3.3414,-3.3414,-3.3334,-3.3187,-3.2759,-3.2131,-3.1263,-3.0808,-3.0221,-2.9499,-2.9058,-2.8684,-2.8547,-3.1647,-3.3433,-3.4565,-3.7783,-3.885,-3.834,-3.6324,-3.557,-3.5412,-3.4498,-3.5646,-3.8054,-3.904,-4.0197,-4.1172,-4.1172,-4.0353,-3.9688,-4.0841,-4.0353,-3.9688,-4.0841,-4.1172,-4.1172,-4.1172,-4.1172,-4.1172,-4.1172,-4.1172,-4.1172,-4.1172,-4.1172,-4.1055,-4.0605,-4.0195,-3.9492,-3.8164,-3.6543,-3.5039,-3.3945,-2.986,0.0,0.0,-2.3001,-2.104,-2.0953,-2.1309,-2.1804,-2.2405,-2.2993,-2.4202,-2.6238,-2.7748,-2.9379,-3.1593,-3.3027,-3.3984,-3.4473,-3.4492,-3.4883,-3.5723,-3.5918,-3.623,-3.668,-3.6894,-3.7324,-3.793,-3.8164,-3.8379,-3.8574,-3.8574,-3.8574,-3.8574,-3.8574,-3.8574,-3.8574,-3.8574,-3.8574,-3.8574,-3.8574,-3.8574,-3.8574,-3.5004,-3.5151,-3.5191,-3.5191,-3.5191,-3.5191,-3.5191,-3.5191,-3.5124,-3.4897,-3.4803,-3.4643,-3.4349,-3.4322,-3.4175,-3.3814,-3.3841,-3.3748,-3.3427,-3.3414,-3.3414,-3.3414,-3.3414,-3.324,-3.2879,-3.2666,-3.2225,-3.157,-3.1049,-3.0488,-2.99,-2.9379,-2.8951,-2.8762,-3.0643,-3.2443,-3.4002,-3.6281,-3.6923,-3.6518,-3.4714,-3.3677,-3.3307,-3.1945,-3.3512,-3.6602,-3.7578,-3.904,-4.0353,-4.0353,-3.9688,-3.8882,-4.0021,-3.9688,-3.904,-4.0685,-4.1172,-4.1172,-4.1172,-4.1172,-4.1172,-4.1172,-4.1172,-4.1172,-4.1172,-4.1172,-4.1074,-4.0742,-4.0332,-3.9668,-3.8437,-3.6836,-3.5371,-3.4375,0.0,0.0,0.0,-2.4436,-2.2566,-2.17,-2.1977,-2.2498,-2.302,-2.3073,-2.3846,-2.584,-2.7097,-2.8677,-3.0565,-3.2561,-3.4351,-3.5664,-3.5586,-3.5742,-3.6172,-3.6172,-3.6445,-3.6973,-3.7285,-3.7656,-3.8086,-3.8418,-3.8574,-3.8574,-3.8574,-3.8574,-3.8574,-3.8574,-3.8574,-3.8574,-3.8574,-3.8574,-3.8574,-3.8574,-3.8574,-3.8574,-3.479,-3.5017,-3.5191,-3.5191,-3.5191,-3.5191,-3.5191,-3.5191,-3.5191,-3.5164,-3.4923,-3.4643,-3.4349,-3.4322,-3.4082,-3.3494,-3.3721,-3.3748,-3.3427,-3.3414,-3.3414,-3.3414,-3.3414,-3.3146,-3.2585,-3.2559,-3.2118,-3.1263,-3.0942,-3.0488,-2.9913,-2.9593,-2.9152,-2.8775,-3.0875,-3.1676,-3.1722,-3.4002,-3.4959,-3.478,-3.253,-3.1542,-3.1527,-3.1392,-3.1557,-3.2366,-3.6442,-3.8054,-3.8054,-3.8054,-3.9374,-4.0685,-3.8724,-3.9374,-4.1016,-4.1172,-4.1172,-4.1172,-4.1172,-4.1172,-4.1172,-4.1172,-4.1172,-4.1172,-4.1172,-4.1172,-4.1172,-4.1133,-4.0781,-4.0195,-3.9277,-3.7715,-3.6152,-3.4863,0.0,0.0,-2.726,-2.5563,-2.4,-2.293,-2.302,-2.3354,-2.3674,-2.3701,-2.4396,-2.618,-2.6429,-2.7247,-2.905,-3.1318,-3.3842,-3.6543,-3.6191,-3.6191,-3.6621,-3.6621,-3.7031,-3.7832,-3.7851,-3.8105,-3.8535,-3.8555,-3.8574,-3.8574,-3.8574,-3.8574,-3.8574,-3.8574,-3.8574,-3.8574,-3.8574,-3.8574,-3.8574,-3.8574,-3.8574,-3.8574,-3.4723,-3.4857,-3.4977,-3.5164,-3.5191,-3.5137,-3.495,-3.5084,-3.507,-3.4696,-3.4563,-3.4376,-3.4082,-3.3868,-3.3668,-3.3427,-3.3521,-3.3534,-3.3414,-3.3414,-3.3414,-3.3414,-3.3414,-3.3307,-3.3093,-3.2732,-3.2385,-3.2038,-3.1383,-3.0862,-3.0448,-2.9967,-2.9539,-2.9138,-2.9597,-3.0508,-3.1691,-3.2293,-3.2694,-3.253,-3.1722,-3.0578,-2.9453,-2.9453,-3.026,-3.1557,-3.3349,-3.4813,-3.596,-3.596,-3.5621,-3.546,-3.7241,-3.7578,-3.7737,-4.0353,-4.1172,-4.1172,-4.1172,-4.1172,-4.1172,-4.1172,-4.1172,-4.1172,-4.1172,-4.1172,-4.1172,-4.1172,-4.082,-4.0332,-3.9746,-3.8223,-3.6973,-3.6738,0.0,-3.0301,-2.9395,-2.69,-2.4689,-2.3647,-2.3688,-2.3915,-2.4022,-2.4369,-2.4782,-2.5305,-2.6779,-2.784,-2.7987,-3.1388,-3.4297,-3.666,-3.6758,-3.6894,-3.7051,-3.6797,-3.709,-3.793,-3.793,-3.8164,-3.8594,-3.8848,-3.8965,-3.8965,-3.8965,-3.9121,-3.9355,-3.8809,-3.873,-3.8945,-3.8672,-3.8574,-3.8574,-3.8574,-3.8574,-3.8574,-3.4736,-3.483,-3.4963,-3.5164,-3.5191,-3.5097,-3.4803,-3.4937,-3.4883,-3.4389,-3.4242,-3.4108,-3.3908,-3.3601,-3.3414,-3.3414,-3.3414,-3.3414,-3.3414,-3.3414,-3.3414,-3.3414,-3.3414,-3.3374,-3.328,-3.2879,-3.2585,-3.2412,-3.1704,-3.1223,-3.0915,-3.0327,-2.99,-2.9593,-2.9098,-2.9597,-3.072,-3.0672,-3.0527,-3.0426,-3.0426,-2.9439,-2.8136,-2.8136,-2.9118,-3.0426,-3.1241,-3.2381,-3.3676,-3.3676,-3.3186,-3.2858,-3.5137,-3.5782,-3.6459,-4.0349,-4.1269,-4.1172,-4.1172,-4.1172,-4.1172,-4.1172,-4.1172,-4.1172,-4.1172,-4.1172,-4.1172,-4.1172,-4.0937,-4.0605,-4.0176,-3.9004,-3.8125,-3.8125,-3.4799,-3.1894,-3.0843,-2.8191,-2.5898,-2.4434,-2.4489,-2.4609,-2.4609,-2.4983,-2.513,-2.493,-2.6458,-2.7551,-2.7834,-3.1193,-3.3982,-3.6028,-3.6925,-3.7422,-3.7695,-3.7285,-3.7422,-3.8125,-3.8125,-3.8281,-3.8594,-3.8867,-3.9082,-3.9199,-3.9199,-3.9473,-3.9844,-3.9238,-3.916,-3.9375,-3.8945,-3.8769,-3.875,-3.8633,-3.8574,-3.8574,-3.4817,-3.499,-3.5191,-3.5191,-3.5191,-3.5097,-3.4803,-3.4763,-3.4656,-3.4362,-3.4068,-3.3881,-3.3881,-3.3601,-3.3414,-3.3414,-3.3414,-3.3414,-3.3414,-3.3414,-3.3414,-3.3414,-3.3414,-3.328,-3.2986,-3.2973,-3.2692,-3.2104,-3.181,-3.1517,-3.1209,-3.0635,-3.0207,-2.99,-2.9619,-2.9165,-2.8617,-2.8604,-2.843,-2.815,-2.8136,-2.8136,-2.8136,-2.8136,-2.8136,-2.8473,-3.0592,-3.1392,-3.1392,-3.1392,-3.2858,-3.4327,-3.2052,-3.4327,-3.8463,-4.101,-4.1504,-4.1172,-4.1172,-4.1172,-4.1172,-4.1172,-4.1172,-4.1172,-4.1172,-4.1172,-4.1172,-4.1172,-4.1172,-4.1035,-4.0605,-4.0195,-3.9609,-3.873,-3.6402,-3.3898,-3.1743,-2.9508,-2.7453,-2.5671,-2.5518,-2.5518,-2.5518,-2.5518,-2.5518,-2.5518,-2.5518,-2.6406,-2.8342,-3.0235,-3.2448,-3.4755,-3.6485,-3.7715,-3.8555,-3.8144,-3.8144,-3.8574,-3.8574,-3.8574,-3.8574,-3.8574,-3.8809,-3.9199,-3.9199,-3.9473,-3.9902,-3.9902,-3.9902,-3.9844,-3.9394,-3.9199,-3.9141,-3.873,-3.8574,-3.8574,-3.4776,-3.483,-3.4897,-3.4897,-3.4897,-3.4723,-3.4229,-3.4322,-3.4349,-3.4055,-3.3935,-3.3881,-3.3881,-3.3601,-3.3414,-3.3414,-3.3414,-3.3414,-3.3414,-3.3414,-3.3414,-3.3414,-3.3414,-3.3374,-3.328,-3.308,-3.2799,-3.2412,-3.2118,-3.1717,-3.1223,-3.1049,-3.0702,-3.0221,-2.9913,-2.9579,-2.9192,-2.8778,-2.8551,-2.8444,-2.823,-2.8136,-2.8136,-2.8136,-2.8136,-2.8305,-2.8964,-2.9118,-2.9118,-2.9118,-2.9607,-3.026,-3.1076,-3.3524,-3.6028,-3.68,-3.8079,-3.913,-3.913,-4.0091,-4.1172,-4.1172,-4.1172,-4.1172,-4.1172,-4.1172,-4.1172,-4.1172,-4.1172,-4.1133,-4.0996,-4.0625,-4.0254,-3.998,-3.6605,-3.3667,-3.3088,-2.9449,-2.6744,-2.6132,-2.5758,-2.5518,-2.5518,-2.5705,-2.5732,-2.5531,-2.5518,-2.6586,-2.8981,-2.9534,-3.1381,-3.4773,-3.5669,-3.6638,-3.8125,-3.7988,-3.8144,-3.8574,-3.8574,-3.8574,-3.8594,-3.8887,-3.9258,-3.9687,-3.9687,-4.0117,-4.0742,-4.0137,-3.9902,-3.9883,-3.9746,-3.9492,-3.918,-3.9062,-3.9004,-3.8965,-3.4616,-3.4589,-3.4589,-3.4589,-3.4589,-3.4429,-3.3961,-3.4042,-3.4042,-3.3734,-3.3694,-3.3694,-3.3694,-3.3534,-3.3414,-3.3414,-3.3414,-3.3414,-3.3414,-3.3414,-3.3414,-3.3414,-3.3414,-3.3414,-3.3414,-3.3133,-3.2839,-3.2545,-3.2251,-3.1864,-3.1396,-3.1276,-3.0982,-3.0515,-3.0221,-2.986,-2.9459,-2.8978,-2.8778,-2.8751,-2.8444,-2.839,-2.8497,-2.8497,-2.8497,-2.8497,-2.8497,-2.8497,-2.8484,-2.8364,-2.8323,-2.8846,-3.1095,-3.2754,-3.4231,-3.5063,-3.6119,-3.7125,-3.7953,-3.9178,-4.023,-4.1055,-4.1172,-4.1172,-4.1172,-4.1172,-4.1172,-4.1172,-4.1172,-4.1172,-4.1172,-4.0957,-4.0453,-3.9641,-3.6377,-3.364,-3.2698,-2.9341,-2.6827,-2.6587,-2.6253,-2.5985,-2.5865,-2.6026,-2.6052,-2.5879,-2.5865,-2.6621,-2.8203,-2.8806,-3.0205,-3.2609,-3.373,-3.4794,-3.5779,-3.5779,-3.666,-3.8574,-3.875,-3.873,-3.8594,-3.9004,-3.9453,-3.9902,-3.9902,-4.0391,-4.1113,-4.043,-4.0254,-4.0371,-4.0019,-3.9824,-3.9707,-3.9531,-3.9473,-3.9414,-3.4376,-3.4322,-3.4309,-3.4282,-3.4282,-3.4189,-3.3895,-3.3841,-3.3748,-3.3454,-3.3414,-3.3414,-3.3414,-3.3414,-3.3414,-3.3414,-3.3414,-3.3414,-3.3414,-3.3414,-3.3414,-3.3414,-3.3414,-3.3414,-3.3414,-3.3146,-3.2866,-3.2545,-3.2278,-3.1984,-3.1664,-3.1396,-3.1116,-3.0822,-3.0528,-3.0087,-2.9539,-2.9219,-2.9085,-2.9058,-2.8764,-2.8804,-2.9045,-2.9045,-2.9045,-2.9045,-2.9045,-2.9045,-2.9005,-2.8738,-2.8644,-2.9028,-3.148,-3.2082,-3.2423,-3.4598,-3.5043,-3.5213,-3.6972,-3.7775,-3.8598,-4.0506,-4.0938,-4.1094,-4.1191,-4.1211,-4.1211,-4.1172,-4.1172,-4.1172,-4.1172,-4.1172,-4.0509,-3.8231,-3.6121,-3.3888,-3.1314,-2.917,-2.7495,-2.6961,-2.6881,-2.676,-2.6493,-2.6466,-2.6453,-2.6426,-2.6426,-2.6413,-2.6386,-2.8076,-2.9138,-2.9449,-3.1284,-3.2353,-3.2505,-3.2505,-3.4469,-3.8263,-3.8689,-3.8837,-3.8594,-3.9062,-3.9492,-3.9902,-3.9941,-4.041,-4.1152,-4.0742,-4.0801,-4.1035,-4.0293,-4.0215,-4.0469,-4.0098,-3.9961,-3.9883,-3.4336,-3.4322,-3.4242,-3.4015,-3.3975,-3.3881,-3.3561,-3.3507,-3.3494,-3.3414,-3.3414,-3.3414,-3.3414,-3.3414,-3.3414,-3.3414,-3.3414,-3.3414,-3.3414,-3.3414,-3.3414,-3.3414,-3.3414,-3.3414,-3.3414,-3.3347,-3.3066,-3.2545,-3.2478,-3.2185,-3.1664,-3.1597,-3.141,-3.1116,-3.0822,-3.0501,-3.014,-2.9606,-2.9392,-2.9366,-2.9058,-2.8978,-2.9045,-2.9045,-2.9045,-2.9045,-2.9045,-2.9045,-2.9032,-2.8965,-2.8951,-2.8951,-2.9526,-2.9877,-3.023,-3.0741,-3.1888,-3.3273,-3.3429,-3.4876,-3.6686,-3.8616,-3.9245,-3.982,-4.0996,-4.1426,-4.1562,-4.125,-4.1172,-4.1172,-4.1172,-4.1172,-4.0509,-3.8231,-3.6121,-3.3985,-3.1632,-2.9297,-2.7655,-2.7522,-2.7308,-2.7148,-2.7081,-2.7081,-2.6974,-2.6747,-2.6734,-2.6627,-2.64,-2.6847,-2.7762,-2.9293,-2.9898,-3.0823,-3.2505,-3.2505,-3.37,-3.6127,-3.6699,-3.7464,-3.8613,-3.9394,-3.9805,-3.9922,-4.0234,-4.0684,-4.1172,-4.1074,-4.0879,-4.0684,-4.084,-4.0742,-4.0508,-4.041,-4.0391,-4.0273,-3.3921,-3.3881,-3.3841,-3.3681,-3.3654,-3.3601,-3.344,-3.3414,-3.3414,-3.3414,-3.3414,-3.3414,-3.3414,-3.3414,-3.3414,-3.3414,-3.3414,-3.3414,-3.3414,-3.3414,-3.3414,-3.3414,-3.3414,-3.3414,-3.3414,-3.3414,-3.3133,-3.2545,-3.2412,-3.2104,-3.1664,-3.1664,-3.1517,-3.1223,-3.1062,-3.0755,-3.0327,-2.9873,-2.9686,-2.9659,-2.9366,-2.9339,-2.9636,-3.065,-3.1175,-3.1175,-3.1175,-3.0216,-2.9245,-2.9245,-2.9245,-2.9245,-2.9245,-2.9446,-2.9659,-2.9526,-3.034,-3.1293,-3.2141,-3.3337,-3.4726,-3.6537,-3.8353,-3.9887,-4.1226,-4.1797,-4.1933,-4.1308,-4.1328,-4.1406,-4.1211,-4.0353,-3.8882,-3.6762,-3.4489,-3.2381,-3.026,-2.8827,-2.7856,-2.7722,-2.7562,-2.7415,-2.7281,-2.7268,-2.7148,-2.6841,-2.6827,-2.6694,-2.64,-2.6386,-2.6847,-2.7919,-2.7919,-2.8602,-2.9829,-2.9829,-3.0825,-3.2984,-3.5375,-3.6916,-3.7671,-3.941,-4.0195,-4.0215,-4.043,-4.0781,-4.1152,-4.0723,-4.0547,-4.0508,-4.0312,-4.0234,-4.0234,-4.0234,-4.0078,-3.9824,-3.3467,-3.3414,-3.3414,-3.3414,-3.3414,-3.3414,-3.3414,-3.3414,-3.3414,-3.3414,-3.3414,-3.3414,-3.3414,-3.3414,-3.3414,-3.3414,-3.3414,-3.3414,-3.3414,-3.3414,-3.3414,-3.3414,-3.3414,-3.3414,-3.3414,-3.3414,-3.3133,-3.2545,-3.2291,-3.1998,-3.1664,-3.1664,-3.153,-3.1303,-3.1249,-3.0929,-3.0421,-3.0114,-2.9967,-2.99,-2.9659,-2.974,-3.016,-3.2012,-3.3073,-3.347,-3.2881,-3.1501,-2.9566,-2.9566,-2.9566,-2.9566,-2.9566,-2.9726,-2.9873,-2.9633,-2.9566,-2.9839,-3.1383,-3.2032,-3.2887,-3.4573,-3.7335,-3.9988,-4.1105,-4.1946,-4.2324,-4.1543,-4.1601,-4.1522,-4.0859,-3.9254,-3.7082,-3.4489,-3.2546,-3.0578,-2.8473,-2.8136,-2.8056,-2.7802,-2.7776,-2.7682,-2.7442,-2.7415,-2.7295,-2.6987,-2.6921,-2.6774,-2.648,-2.6413,-2.6386,-2.6386,-2.6386,-2.6533,-2.6814,-2.6827,-2.7753,-2.9793,-3.3875,-3.6089,-3.6741,-3.9433,-4.0586,-4.0527,-4.0605,-4.0801,-4.1016,-4.0293,-4.0156,-4.0332,-3.9609,-3.9609,-4.0,-4.0,-3.9668,-3.9199,-3.3414,-3.3414,-3.3414,-3.3414,-3.3414,-3.3414,-3.3414,-3.3414,-3.3414,-3.3414,-3.3414,-3.3414,-3.3414,-3.3414,-3.3414,-3.3414,-3.3414,-3.3414,-3.3414,-3.3414,-3.3414,-3.3414,-3.3414,-3.3414,-3.3414,-3.3414,-3.3133,-3.2545,-3.2505,-3.2211,-3.1664,-3.1664,-3.165,-3.1597,-3.1343,-3.1036,-3.0715,-3.0421,-3.0154,-2.9913,-2.9873,-3.0034,-3.0274,-3.0366,-3.1827,-3.3413,-3.1221,-3.0066,-2.986,-2.986,-2.986,-2.986,-2.986,-2.9887,-2.9913,-2.9873,-2.986,-2.9793,-2.9839,-3.0151,-3.082,-3.2728,-3.5333,-3.7725,-3.9443,-4.1587,-4.2851,-4.2363,-4.2012,-4.1125,-3.924,-3.829,-3.6602,-3.253,-3.1557,-3.0578,-2.8473,-2.8136,-2.8123,-2.8083,-2.8083,-2.807,-2.803,-2.803,-2.7896,-2.7602,-2.7348,-2.7081,-2.6774,-2.6533,-2.6386,-2.6386,-2.6386,-2.6533,-2.6814,-2.6827,-2.7122,-2.7744,-3.01,-3.3247,-3.6741,-3.9739,-4.0879,-4.0547,-4.0918,-4.0898,-4.0605,-4.0488,-4.0254,-3.9961,-3.9844,-4.0059,-4.043,-4.043,-3.9922,-3.9199,-3.3414,-3.3414,-3.3414,-3.3414,-3.3414,-3.3414,-3.3414,-3.3414,-3.3414,-3.3414,-3.3414,-3.3414,-3.3414,-3.3414,-3.3414,-3.3414,-3.3414,-3.3414,-3.3414,-3.3414,-3.3414,-3.3414,-3.3414,-3.3414,-3.3414,-3.3414,-3.32,-3.2786,-3.2625,-3.2332,-3.1904,-3.1744,-3.1664,-3.1664,-3.153,-3.1303,-3.1022,-3.0728,-3.0434,-3.0167,-3.0167,-3.014,-3.0294,-3.1553,-3.3457,-3.5335,-3.4342,-3.2433,-3.0167,-3.0167,-3.0047,-2.9913,-2.9913,-2.9806,-2.9673,-2.9673,-2.9673,-2.9646,-2.9526,-2.97,-3.0052,-3.0956,-3.31,-3.5415,-3.747,-3.881,-4.0177,-4.2056,-4.2285,-4.1413,-3.9011,-3.8166,-3.6442,-3.2052,-3.1392,-3.0578,-2.8473,-2.8136,-2.8136,-2.8136,-2.8136,-2.8136,-2.8136,-2.8136,-2.8016,-2.7722,-2.7575,-2.7308,-2.6854,-2.6694,-2.656,-2.6386,-2.6386,-2.6533,-2.6814,-2.6827,-2.7054,-2.7509,-2.9558,-3.1999,-3.5003,-3.7805,-3.9584,-4.0547,-4.0976,-4.0918,-4.0508,-4.0273,-3.9902,-3.9512,-3.9512,-3.9629,-3.9785,-3.9785,-3.9394,-3.8887]}]]